[[{"header":{"parameterUnit":"m.s-1","parameterCategory":1,"la1":30.6,"la2":29.2853,"lo1":-89.7004,"lo2":-87.6739,"dy":0.0162,"dx":0.0183,"nx":112,"ny":82,"refTime":"2024-09-07T18:00:00:Z","depth":0,"parameterNumber":2,"parameterNumberName":"U-component_of_WINDS"},"data":[0.0,0.0,0.0,0.0,0.0,0.0,0.0,0.0,0.0,0.0,0.0,0.0,0.0,0.0,0.0,0.0,0.0,0.0,0.0,0.0,0.0,0.0,0.0,0.0,0.0,0.0,0.0,0.0,0.0,0.0,0.0,0.0,0.0,0.0,0.0,0.0,0.0,0.0,0.0,0.0,0.0,0.0,0.0,0.0,0.0,0.0,0.0,0.0,0.0,0.0,0.0,0.0,0.0,0.0,0.0,0.0,0.0,0.0,0.0,0.0,0.0,0.0,0.0,0.0,0.0,0.0,0.0,0.0,0.0,0.0,0.0,0.0,0.0,0.0,0.0,0.0,0.0,0.0,0.0,0.0,0.0,0.0,0.0,0.0,0.0,0.0,0.0,0.0,0.0,0.0,1.0968,1.1523,1.2824,1.3722,1.387,1.3547,1.2343,1.0039,0.0,0.0,0.0,0.0,0.0,0.0,0.0,0.0,0.0,0.0,0.0,0.0,0.0,0.0,0.0,0.0,0.0,0.0,0.0,0.0,0.0,0.0,0.0,0.0,0.0,0.0,0.0,0.0,0.0,0.0,0.0,0.0,0.0,0.0,0.0,0.0,0.0,0.0,0.0,0.0,0.0,0.0,0.0,0.0,0.0,0.0,0.0,0.0,0.0,0.0,0.0,0.0,0.0,0.0,0.0,0.0,0.0,0.0,0.0,0.0,0.0,0.0,0.0,0.0,0.0,0.0,0.0,0.0,0.0,0.0,0.0,0.0,0.0,0.0,0.0,0.0,0.0,0.0,0.0,0.0,0.0,0.0,0.0,0.0,0.0,0.0,0.0,0.0,0.0,0.0,0.0,0.0,0.0,0.0,0.0,0.0,0.0,0.0,0.0,0.0,0.0,0.0,0.0,0.0,1.0935,1.3006,1.2334,1.2057,1.2839,1.2396,1.13,0.9528,0.0,0.0,0.0,0.0,0.0,0.0,0.0,0.0,0.0,0.0,0.0,0.0,0.0,0.0,0.0,0.0,0.0,0.0,0.0,0.0,0.0,0.0,0.0,0.0,0.0,0.0,0.0,0.0,0.0,0.0,0.0,0.0,0.0,0.0,0.0,0.0,0.0,0.0,0.0,0.0,0.0,0.0,0.0,0.0,0.0,0.0,0.0,0.0,0.0,0.0,0.0,0.0,0.0,0.0,0.0,0.0,0.0,0.0,0.0,0.0,0.0,0.0,0.0,0.0,0.0,0.0,0.0,0.0,0.0,0.0,0.0,0.0,0.0,0.0,0.0,0.0,0.0,0.0,0.0,0.0,0.0,0.0,0.0,0.0,0.0,0.0,0.0,0.0,0.0,0.0,0.0,0.0,0.0,0.0,0.0,0.0,0.0,0.0,0.0,0.0,0.0,0.0,0.0,1.0457,1.1391,1.3627,1.3231,1.2926,1.3175,1.2794,1.1814,1.0061,0.95,0.0,0.0,0.0,0.0,0.0,0.0,0.0,0.0,0.0,0.0,0.0,0.0,0.0,0.0,0.0,0.0,0.0,0.0,0.0,0.0,0.0,0.0,0.0,0.0,0.0,0.0,0.0,0.0,0.0,0.0,0.0,0.0,0.0,0.0,0.0,0.0,0.0,0.0,0.0,0.0,0.0,0.0,0.0,0.0,0.0,0.0,0.0,0.0,0.0,0.0,0.0,0.0,0.0,0.0,0.0,0.0,0.0,0.0,0.0,0.0,0.0,0.0,0.0,0.0,0.0,0.0,0.0,0.0,0.0,0.0,0.0,0.0,0.0,0.0,0.0,0.0,0.0,0.0,0.0,0.0,0.0,0.0,0.0,0.0,0.0,0.0,0.0,0.0,0.0,0.0,0.0,0.0,0.0,0.0,0.0,0.0,0.0,0.0,0.0,0.0,0.0,0.0,1.1567,1.2171,1.3929,1.4103,1.3961,1.3626,1.3253,1.2312,1.06,0.9398,0.0,0.0,0.0,0.0,0.0,0.0,0.0,0.0,0.0,0.0,0.0,0.0,0.0,0.0,0.0,0.0,0.0,0.0,0.0,0.0,0.0,0.0,0.0,0.0,0.0,0.0,0.0,0.0,0.0,0.0,0.0,0.0,0.0,0.0,0.0,0.0,0.0,0.0,0.0,0.0,0.0,0.0,0.0,0.0,0.0,0.0,0.0,0.0,0.0,0.0,0.0,0.0,0.0,0.0,0.0,0.0,0.0,0.0,0.0,0.0,0.0,0.0,0.0,0.0,0.0,0.0,0.0,0.0,0.0,0.0,0.0,0.0,0.0,0.0,0.0,0.0,0.0,0.0,0.0,0.0,0.0,0.0,0.0,0.0,0.0,0.0,0.0,0.0,0.0,0.0,0.0,0.0,0.0,0.0,0.0,0.0,0.0,0.0,0.0,0.0,0.0,0.0,1.2177,1.332,1.4015,1.4103,1.3961,1.3626,1.2943,1.1954,1.0601,0.8918,0.0,0.0,0.0,0.0,0.0,0.0,0.0,0.0,0.0,0.0,0.0,0.0,0.0,0.0,0.0,0.0,0.0,0.0,0.0,0.0,0.0,0.0,0.0,0.0,0.0,0.0,0.0,0.0,0.0,0.0,0.0,0.0,0.0,0.0,0.0,0.0,0.0,0.0,0.0,0.0,0.0,0.0,0.0,0.0,0.0,0.0,0.0,0.0,0.0,0.0,0.0,0.0,0.0,0.0,0.0,0.0,0.0,0.0,0.0,0.0,0.0,0.0,0.0,0.0,0.0,0.0,0.0,0.0,0.0,0.0,0.0,0.0,0.0,0.0,0.0,0.0,0.0,0.0,0.0,0.0,0.0,0.0,0.0,0.0,0.0,0.0,0.0,0.0,0.0,0.0,0.0,0.0,0.0,0.0,0.0,0.0,0.0,0.0,0.0,0.0,0.0,0.0,1.1853,1.2832,0.0,1.39,1.3674,1.338,1.2871,1.1888,1.0281,0.0,0.0,0.0,0.0,0.0,0.0,0.0,0.0,0.0,0.0,0.0,0.0,0.0,0.0,0.0,0.0,0.0,0.0,0.0,0.0,0.0,0.0,0.0,0.0,0.0,0.0,0.0,0.0,0.0,0.0,0.0,0.0,0.0,0.0,0.0,0.0,0.0,0.0,0.0,0.0,0.0,0.0,0.0,0.0,0.0,0.0,0.0,0.0,0.0,0.0,0.0,0.0,0.0,0.0,0.0,0.0,0.0,0.0,0.0,0.0,0.0,0.0,0.0,0.0,0.0,0.0,0.0,0.0,0.0,0.0,0.0,0.0,0.0,0.0,0.0,0.0,0.0,0.0,0.0,0.0,0.0,0.0,0.0,0.0,0.0,0.0,0.0,0.0,0.0,0.0,0.0,0.0,0.0,0.0,0.0,0.0,0.0,0.0,0.0,0.0,0.0,0.0,1.0923,1.1863,1.2778,0.0,1.3794,1.348,1.322,1.2684,1.1654,0.9949,0.0,0.0,0.0,0.0,0.0,0.0,0.0,0.0,0.0,0.0,0.0,0.0,0.0,0.0,0.0,0.0,0.0,0.0,0.0,0.0,0.0,0.0,0.0,0.0,0.0,0.0,0.0,0.0,0.0,0.0,0.0,0.0,0.0,0.0,0.0,0.0,0.0,0.0,0.0,0.0,0.0,0.0,0.0,0.0,0.0,0.0,0.0,0.0,0.0,0.0,0.0,0.0,0.0,0.0,0.0,0.0,0.0,0.0,0.0,0.0,0.0,0.0,0.0,0.0,0.0,0.0,0.0,0.0,0.0,0.0,0.0,0.0,0.0,0.0,0.0,0.0,0.0,0.0,0.0,0.0,0.0,0.0,0.0,0.0,0.0,0.0,0.0,0.0,0.0,0.0,0.0,0.0,0.0,0.0,0.0,0.0,0.0,0.0,0.0,0.0,0.0,0.0,1.1005,1.2365,1.344,1.4049,1.3794,1.348,1.324,1.2394,1.1214,0.0,0.0,0.0,0.0,0.0,0.0,0.0,0.0,0.0,0.0,0.0,0.0,0.0,0.0,0.0,0.0,0.0,0.0,0.0,0.0,0.0,0.0,0.0,0.0,0.0,0.0,0.0,0.0,0.0,0.0,0.0,0.0,0.0,0.0,0.0,0.0,0.0,0.0,0.0,0.0,0.0,0.0,0.0,0.0,0.0,0.0,0.0,0.0,0.0,0.0,0.0,0.0,0.0,0.0,0.0,0.0,0.0,0.0,0.0,0.0,0.0,0.0,0.0,0.0,0.0,0.0,0.0,0.0,0.0,0.0,0.0,0.0,0.0,0.0,0.0,0.0,0.0,0.0,0.0,0.0,0.0,0.0,0.0,0.0,0.0,0.0,0.0,0.0,0.0,0.0,0.0,0.0,0.0,0.0,0.0,0.0,0.0,0.0,0.0,0.0,0.0,0.0,0.0,1.1142,1.243,1.344,1.4049,1.3641,1.3333,1.3417,1.2484,1.1363,1.0136,0.0,0.0,0.0,0.0,0.0,0.0,0.0,0.0,0.0,0.0,0.0,0.0,0.0,0.0,0.0,0.0,0.0,0.0,0.0,0.0,0.0,0.0,0.0,0.0,0.0,0.0,0.0,0.0,0.0,0.0,0.0,0.0,0.0,0.0,0.0,0.0,0.0,0.0,0.0,0.0,0.0,0.0,0.0,0.0,0.0,0.0,0.0,0.0,0.0,0.0,0.0,0.0,0.0,0.0,0.0,0.0,0.0,0.0,0.0,0.0,0.0,0.0,0.0,0.0,0.0,0.0,0.0,0.0,0.0,0.0,0.0,0.0,0.0,0.0,0.0,0.0,0.0,0.0,0.0,0.0,0.0,0.0,0.0,0.0,0.0,0.0,0.0,0.0,0.0,0.0,0.0,0.0,0.0,0.0,0.0,0.0,0.0,0.0,0.0,0.0,0.0,0.0,1.1196,1.2446,1.344,1.4049,1.3736,1.35,1.3502,1.2833,1.1876,1.0579,0.0,0.0,0.0,0.0,0.0,0.0,0.0,0.0,0.0,0.0,0.0,0.0,0.0,0.0,0.0,0.0,0.0,0.0,0.0,0.0,0.0,0.0,0.0,0.0,0.0,0.0,0.0,0.0,0.0,0.0,0.0,0.0,0.0,0.0,0.0,0.0,0.0,0.0,0.0,0.0,0.0,0.0,0.0,0.0,0.0,0.0,0.0,0.0,0.0,0.0,0.0,0.0,0.0,0.0,0.0,0.0,0.0,0.0,0.0,0.0,0.0,0.0,0.0,0.0,0.0,0.0,0.0,0.0,0.0,0.0,0.0,0.0,0.0,0.0,0.0,0.0,0.0,0.0,0.0,0.0,0.0,0.0,0.0,0.0,0.0,0.0,0.0,0.0,0.0,0.0,0.0,0.0,0.0,0.0,0.0,0.0,0.0,0.0,0.0,0.0,0.0,0.0,1.1226,1.2473,1.3467,1.4049,1.4042,1.3871,1.3549,1.3332,1.2541,1.1009,0.0,0.0,0.0,0.0,0.0,0.0,0.0,0.0,0.0,0.0,0.0,0.0,0.0,0.0,0.0,0.0,0.0,0.0,0.0,0.0,0.0,0.0,0.0,0.0,0.0,0.0,0.0,0.0,0.0,0.0,0.0,0.0,0.0,0.0,0.0,0.0,0.0,0.0,0.0,0.0,0.0,0.0,0.0,0.0,0.0,0.0,0.0,0.0,0.0,0.0,0.0,0.0,0.0,0.0,0.0,0.0,0.0,0.0,0.0,0.0,1.5581,0.0,0.0,0.0,0.0,0.0,0.0,0.0,0.0,0.0,0.0,0.0,0.0,0.0,0.0,0.0,0.0,0.0,0.0,0.0,0.0,0.0,0.0,0.0,0.0,0.0,0.0,0.0,0.0,0.0,0.0,0.0,0.0,0.0,0.0,0.0,0.0,0.0,0.0,0.0,0.0,0.0,1.1401,1.2703,1.3674,1.4055,1.4042,1.3931,1.3746,1.3407,1.278,1.18,1.0593,0.0,0.0,0.0,0.0,0.0,0.0,0.0,0.0,0.0,0.0,0.0,0.0,0.0,0.0,0.0,0.0,0.0,0.0,0.0,0.0,0.0,0.0,0.0,0.0,0.0,0.0,0.0,0.0,0.0,0.0,0.0,0.0,0.0,0.0,0.0,0.0,0.0,0.0,0.0,0.0,0.0,0.0,0.0,0.0,0.0,0.0,0.0,0.0,0.0,0.0,0.0,0.0,0.0,0.0,0.0,0.0,0.0,0.0,0.0,0.0,1.6061,0.0,0.0,0.0,0.0,0.0,0.0,0.0,0.0,0.0,0.0,0.0,0.0,0.0,0.0,0.0,0.0,0.0,0.0,0.0,0.0,0.0,0.0,0.0,0.0,0.0,0.0,0.0,0.0,0.0,0.0,0.0,0.0,0.0,0.0,0.0,0.0,0.0,0.0,0.0,0.0,1.1475,1.2776,1.374,1.4055,1.4164,1.4152,1.4049,1.3942,1.3546,1.2769,1.174,0.0,0.0,0.0,0.0,0.0,0.0,0.0,0.0,0.0,0.0,0.0,0.0,0.0,0.0,0.0,0.0,0.0,0.0,0.0,0.0,0.0,0.0,0.0,0.0,0.0,0.0,0.0,0.0,0.0,0.0,0.0,0.0,0.0,0.0,0.0,0.0,0.0,0.0,0.0,0.0,0.0,0.0,0.0,0.0,0.0,0.0,0.0,0.0,0.0,0.0,0.0,0.0,0.0,2.2255,2.197,2.1497,2.0675,2.0225,2.0056,1.8704,1.8309,1.8467,1.6861,0.0,0.0,0.0,0.0,0.0,0.0,0.0,0.0,0.0,0.0,0.0,0.0,0.0,0.0,0.0,0.0,0.0,0.0,0.0,0.0,0.0,0.0,0.0,0.0,1.6128,1.6121,1.3913,0.0,0.0,0.0,0.0,0.0,0.0,0.0,0.0,0.0,0.0,0.0,1.1818,1.295,1.382,1.4135,1.4327,1.4407,1.4307,1.4516,1.4378,1.3726,1.2932,1.2027,0.0,0.0,0.0,0.0,0.0,0.0,0.0,0.0,0.0,0.0,0.0,0.0,0.0,0.0,0.0,0.0,0.0,0.0,0.0,0.0,0.0,0.0,0.0,0.0,0.0,0.0,0.0,0.0,0.0,0.0,0.0,0.0,1.7272,1.7946,0.0,0.0,0.0,0.0,0.0,0.0,0.0,0.0,0.0,0.0,0.0,0.0,0.0,2.2368,2.3656,2.4806,2.5576,2.5922,2.5781,2.5695,2.5555,2.3276,2.2234,2.2161,2.1091,0.0,1.9305,1.7406,0.0,0.0,0.0,0.0,0.0,0.0,0.0,0.0,0.0,0.0,0.0,0.0,0.0,0.0,0.0,0.0,0.0,0.0,0.0,0.0,0.0,0.0,1.7475,1.6476,1.7131,1.7689,0.0,1.5204,1.3911,1.3311,1.2505,0.0,0.0,0.0,0.0,0.0,0.0,0.0,1.2996,1.3669,1.4135,1.4407,1.4577,1.4573,1.4327,1.4637,1.4705,1.4389,1.3998,1.348,1.2862,1.1918,0.0,0.0,0.0,0.0,0.0,0.0,0.0,0.0,0.0,0.0,0.0,0.0,0.0,0.0,0.0,0.0,0.0,0.0,0.0,0.0,0.0,0.0,0.0,0.0,0.0,0.0,0.0,0.0,0.0,1.7036,1.8843,1.929,1.9465,1.8987,0.0,0.0,0.0,0.0,0.0,0.0,0.0,0.0,0.0,2.5101,2.5328,2.6054,2.7401,2.781,2.8074,2.823,2.7247,2.648,2.5824,2.3648,2.232,2.1721,2.1088,2.0564,2.0061,1.8746,1.79,1.7336,0.0,0.0,0.0,0.0,1.6626,1.6333,1.7794,1.8561,1.885,1.8857,0.0,0.0,0.0,0.0,0.0,0.0,0.0,1.7933,0.0,0.0,1.7954,1.7214,1.7417,1.774,1.7553,1.658,1.5625,0.0,1.4796,1.3897,1.1837,0.0,0.0,0.0,0.0,1.2794,1.3527,1.4193,1.4628,1.4732,1.4768,1.481,1.4738,1.4916,1.4929,1.473,1.4584,1.4281,1.3781,1.3033,1.2134,0.0,0.0,0.0,0.0,0.0,0.0,0.0,0.0,0.0,0.0,0.0,0.0,0.0,0.0,0.0,0.0,0.0,0.0,0.0,0.0,0.0,0.0,0.0,0.0,0.0,0.0,0.0,0.0,1.9101,2.0712,2.0964,2.1609,2.14,0.0,0.0,0.0,0.0,0.0,0.0,2.4116,2.493,2.6298,2.8305,2.8677,2.9338,3.0409,3.0092,2.9742,2.9392,2.7717,2.6324,2.5168,2.3379,2.2148,2.1356,2.1118,2.0955,2.0818,2.0014,1.9162,1.8342,1.8011,1.761,1.7297,1.7933,1.7908,1.7808,1.9378,1.9939,2.003,2.0399,1.9994,1.9346,1.9512,0.0,0.0,0.0,0.0,1.9245,1.8902,1.8445,1.7996,1.7704,1.7624,1.766,1.7775,1.7383,1.6908,0.0,1.6437,1.5615,1.3327,0.0,0.0,0.0,0.0,1.3655,1.4141,1.4668,1.5022,1.513,1.51,1.5152,1.5212,1.5282,1.5221,1.5046,1.5031,1.4829,1.4406,1.4161,1.366,1.2822,0.0,0.0,0.0,0.0,0.0,0.0,0.0,0.0,0.0,0.0,0.0,0.0,0.0,0.0,0.0,0.0,0.0,0.0,0.0,0.0,0.0,0.0,0.0,0.0,0.0,0.0,0.0,0.0,0.0,2.3681,2.4863,0.0,0.0,0.0,0.0,2.3639,2.4637,2.5929,2.7552,2.8524,2.9554,3.0676,3.109,3.1418,3.1609,3.1216,3.0362,2.9098,2.7247,2.569,2.4396,2.2913,2.22,2.214,2.2126,2.1935,2.1583,2.0765,2.0232,1.9898,1.994,1.9621,1.9169,1.9138,1.9036,1.8863,1.8531,1.9149,2.0063,1.9902,1.9392,1.9306,2.1895,2.1021,0.0,0.0,2.032,1.9714,1.9882,1.8984,1.7992,1.7983,1.7972,1.7888,1.7593,1.726,1.6997,0.0,1.6267,1.531,1.4279,0.0,1.3687,1.3688,1.373,1.4154,1.5186,1.5133,1.5183,1.5705,1.5697,1.5635,1.5583,1.5763,1.5724,1.5402,1.5367,1.5206,1.4891,1.5266,1.5158,1.4492,1.4078,0.0,0.0,0.0,0.0,0.0,0.0,0.0,0.0,0.0,0.0,0.0,0.0,0.0,0.0,0.0,0.0,0.0,0.0,0.0,0.0,0.0,0.0,0.0,0.0,0.0,0.0,0.0,0.0,2.5587,2.6806,0.0,2.5711,2.6565,2.725,2.7365,2.8777,2.9936,3.0642,3.1257,3.184,3.2295,3.2448,3.253,3.2603,3.2235,3.1366,2.9964,2.8266,2.6731,2.5373,2.3594,2.2784,2.2754,2.2359,2.2125,2.2008,2.1714,2.1135,2.0436,2.0242,2.0065,1.9881,1.9855,1.9803,1.9725,1.9376,1.9539,1.9928,2.0022,2.0867,2.1815,2.1708,2.2176,2.2659,2.2307,2.2612,2.2696,2.122,2.0483,1.9734,1.8125,1.7748,1.7759,1.7819,1.7606,1.7391,1.7405,1.6908,1.6183,1.5212,1.5185,1.5103,1.4461,1.4631,1.5035,1.5591,1.5731,1.5822,1.598,1.612,1.6098,1.5821,1.5856,1.5665,1.5104,1.5075,1.5157,1.5346,1.5433,1.5637,1.5997,1.5954,1.5056,0.0,0.0,0.0,0.0,0.0,0.0,0.0,0.0,0.0,0.0,0.0,0.0,0.0,0.0,0.0,0.0,0.0,0.0,0.0,0.0,0.0,0.0,0.0,0.0,0.0,0.0,2.6933,2.7244,2.8876,2.958,2.8549,2.9663,3.0479,3.0496,3.1649,3.2342,3.2493,3.2948,3.3194,3.3165,3.3295,3.3314,3.3202,3.2372,3.1262,2.9909,2.8217,2.6679,2.5302,2.4,2.3442,2.3413,2.3003,2.28,2.2652,2.2535,2.2052,2.1306,2.0985,2.0795,2.0692,2.0575,2.0473,2.0327,2.0033,1.9884,1.9894,2.0441,2.1278,2.1974,2.1515,2.2278,2.3224,2.3028,2.3033,2.2845,2.1738,2.0819,1.977,1.8127,1.7742,1.7769,1.7846,1.7714,1.7607,1.7601,1.7305,1.6804,1.6033,1.6157,1.6113,1.534,1.5514,1.5725,1.5795,1.595,1.6119,1.6248,1.6419,1.6407,1.6104,1.6055,1.5911,1.5523,1.5376,1.5584,1.6189,1.5933,1.6137,1.6919,1.7073,1.6472,1.5071,0.0,0.0,0.0,0.0,0.0,0.0,0.0,0.0,0.0,0.0,0.0,0.0,0.0,0.0,0.0,0.0,0.0,0.0,0.0,0.0,0.0,0.0,0.0,2.4818,2.7011,2.8727,2.8752,3.1106,3.2222,3.0926,3.1974,3.2802,3.2921,3.2933,3.3019,3.3115,3.3558,3.3646,3.3307,3.3692,3.3753,3.3437,3.169,3.0171,2.8894,2.6986,2.5461,2.4278,2.4198,2.4231,2.4263,2.4248,2.4057,2.3716,2.3392,2.3068,2.2714,2.2346,2.2008,2.1686,2.1364,2.1014,2.0663,2.0342,2.0047,1.9997,2.1028,2.0444,1.9717,2.1522,2.1343,2.0918,2.271,2.1482,1.9961,2.1274,1.9844,1.805,1.8022,1.7995,1.7942,1.7662,1.7622,1.7622,1.7608,1.7381,1.71,1.678,1.6727,1.662,1.6364,1.631,0.0,1.5875,1.5821,1.6021,1.6541,1.6598,1.6554,1.644,1.6432,1.6525,1.6739,1.6343,1.6511,1.7415,1.6865,1.679,1.7289,1.7398,1.7454,1.7439,0.0,0.0,0.0,0.0,0.0,0.0,0.0,0.0,0.0,0.0,0.0,0.0,0.0,0.0,0.0,0.0,0.0,0.0,0.0,0.0,0.0,2.7165,2.8974,2.8549,3.0258,3.1685,3.2023,3.3037,3.3467,3.2863,3.3428,3.3758,3.3579,3.3821,3.3909,3.3689,3.3808,3.3712,3.3368,3.3831,3.3983,3.3887,3.3708,3.2757,3.1096,2.9566,2.846,2.7769,2.6547,2.6518,2.7503,2.7239,2.7089,2.699,2.6922,2.6626,2.597,2.346,2.2417,2.2329,2.2241,2.1745,2.0999,2.0678,2.0502,2.0457,2.0498,2.0823,2.1151,2.0998,2.1133,2.1402,2.1529,2.1081,2.0431,2.0007,1.9561,1.9004,1.8198,1.8183,1.829,1.7956,1.7889,1.7822,1.7648,1.7541,1.7461,1.7381,1.7193,1.7033,1.6965,1.6752,0.0,1.6448,1.6589,1.6635,1.6532,1.6704,1.6972,1.7386,1.7143,1.7197,1.7752,1.7077,1.7199,1.8362,1.799,1.8261,1.9338,1.922,1.8811,0.0,0.0,0.0,0.0,0.0,0.0,0.0,0.0,0.0,0.0,0.0,0.0,0.0,0.0,0.0,0.0,0.0,0.0,0.0,0.0,0.0,0.0,2.9985,3.1657,3.1773,3.2661,3.3393,3.3758,3.4182,3.4298,3.3963,3.4176,3.4195,3.3855,3.4244,3.4357,3.4009,3.4155,3.4157,3.3965,3.4199,3.429,3.4114,3.3745,3.2711,3.1025,2.9612,2.8893,2.8776,2.7632,2.7884,2.9243,2.8865,2.8607,2.8501,2.8501,2.8277,2.7679,0.0,0.0,0.0,0.0,2.2198,2.1569,2.1247,2.087,2.0525,2.043,2.0682,2.0927,2.0382,2.0527,2.0876,2.0631,2.0246,1.9835,1.9503,1.9288,1.9073,1.8523,1.8632,1.8796,1.8455,1.8387,1.8252,1.7862,1.7769,0.0,1.7635,1.7461,1.734,1.7219,1.7033,1.6898,1.6877,1.6988,1.6999,1.6884,1.7378,1.7819,1.8001,1.8192,0.0,0.0,0.0,1.8432,1.907,1.9069,0.0,0.0,0.0,0.0,0.0,0.0,0.0,0.0,1.9526,1.972,0.0,0.0,0.0,0.0,0.0,0.0,0.0,0.0,0.0,0.0,0.0,0.0,0.0,0.0,0.0,0.0,3.2698,3.3779,3.4432,3.4389,3.4305,3.4309,3.4532,3.4608,3.4441,3.445,3.4344,3.4017,3.4373,3.4463,3.4173,0.0,0.0,0.0,0.0,3.459,3.4251,3.2866,3.1496,3.0248,2.8672,2.8277,2.8946,2.8397,2.9009,3.043,2.9983,2.965,2.9398,2.9398,2.9154,2.8717,2.7961,2.6663,2.5028,2.3488,2.2655,2.2256,2.1861,0.0,0.0,2.0629,2.0315,1.9849,1.981,1.9778,1.9785,1.9973,1.9334,1.8753,1.9442,1.9089,1.8646,1.8851,1.9195,1.9375,1.903,1.8974,1.8796,1.8211,1.8036,1.7929,1.7689,1.7609,1.7528,1.7286,1.7272,1.7255,1.72,1.7332,1.7467,1.762,1.8542,0.0,1.8726,1.9494,2.0209,2.0845,2.054,2.0194,1.9932,2.0405,2.0916,2.139,2.2624,2.3577,2.4239,2.6,2.5998,2.421,2.1,2.0521,0.0,0.0,0.0,0.0,0.0,0.0,0.0,0.0,0.0,0.0,0.0,0.0,0.0,0.0,0.0,3.2714,3.3895,3.4922,3.579,3.5608,3.5133,3.4456,3.3779,3.3682,3.4489,3.4871,3.4908,3.4583,3.4629,3.4636,3.459,3.4648,3.4707,3.4707,3.5059,3.5215,3.5137,3.3763,3.3274,3.3699,0.0,0.0,3.2927,3.2047,3.2423,3.3764,3.3688,3.3402,3.3071,3.3071,3.2613,3.1669,2.9016,2.7101,2.5739,2.5172,2.4078,2.2829,2.2223,2.1724,2.1294,2.0842,2.049,2.0168,1.987,1.9634,0.0,1.9499,1.94,1.9208,1.9071,1.9085,1.9111,1.8945,1.9333,1.9654,1.9347,1.9306,1.9193,1.8809,1.8346,1.7969,1.7942,1.7756,1.7595,1.7528,1.7711,1.7829,1.7826,1.8756,1.9338,1.9124,2.005,2.0824,2.1159,2.1039,2.14,2.2549,2.2901,2.2873,2.2505,2.3188,2.3504,2.3273,2.4636,2.5237,2.5061,2.6562,2.7282,2.7226,2.5373,2.4136,0.0,0.0,0.0,0.0,0.0,0.0,0.0,0.0,0.0,0.0,0.0,2.9336,3.075,0.0,3.3393,3.4913,3.5588,3.5924,3.6065,3.5317,3.4766,3.4816,3.44,3.4258,3.4602,3.4831,3.4884,3.4687,3.4922,3.5039,3.5039,3.5254,3.5469,3.5684,3.5952,3.5918,3.5703,3.5007,3.4406,3.387,3.2473,3.2432,3.3586,3.3073,3.3523,3.4707,3.4707,3.459,3.4375,3.4192,3.3723,3.2941,3.114,2.9168,2.7098,2.5364,2.4116,2.3185,2.2525,2.2006,2.1569,2.1413,2.0958,2.048,2.0475,2.0254,2.002,1.9902,1.9945,1.999,1.972,1.9849,2.0019,1.9877,2.006,2.0202,2.0089,1.9808,1.9513,1.9207,1.8779,1.8342,1.8049,1.8358,1.8458,1.7899,1.8356,1.8904,1.919,2.0301,2.098,2.0777,2.1689,2.2348,2.2451,2.2659,2.3067,2.3725,2.3962,2.4004,2.3809,2.4199,2.4644,2.5194,2.6379,2.7004,2.7004,2.87,2.9037,2.8031,2.7816,2.7171,0.0,0.0,0.0,0.0,0.0,0.0,0.0,2.6973,2.7899,2.9889,3.0867,3.196,3.3818,3.4452,3.517,3.6791,3.6981,3.6816,3.6315,3.5172,3.4642,3.5415,3.5087,3.4844,3.4941,3.5039,3.5117,3.5195,3.5547,3.5762,3.5762,3.6074,3.6426,3.6812,3.6832,3.6582,3.6152,3.5859,3.5047,3.366,3.3387,3.3387,3.366,3.366,3.4078,3.4824,3.4746,3.4746,3.4805,3.4407,3.3945,3.3484,3.2882,3.1141,2.8736,2.6154,2.4836,2.4236,2.3609,2.3003,2.249,2.2368,2.1809,2.1175,2.1137,2.0909,2.068,2.0596,2.0657,2.0761,2.0694,2.08,2.0974,2.0874,2.0843,2.0785,2.0702,2.0288,1.9806,1.9523,1.9157,1.8827,1.8564,1.9293,1.9522,1.8478,1.928,2.0195,2.0723,2.1777,2.2464,2.24,2.3329,2.3791,2.3429,2.4113,2.4551,2.4551,2.4606,2.4645,2.4645,2.4645,2.5268,2.6568,2.7586,2.8286,2.8704,3.0532,3.0374,2.8466,2.9278,2.921,2.4254,2.5053,2.6344,2.793,2.8054,2.8819,0.0,3.2625,3.2241,3.413,3.4921,3.539,3.5749,3.6259,3.6779,3.7432,3.7326,3.7282,3.7555,3.6897,3.64,3.6534,3.4758,3.4131,3.5685,3.623,3.6601,3.6973,3.7051,3.709,3.709,3.7129,3.7168,3.7226,3.7226,3.7031,3.6636,3.5363,3.5051,3.5665,3.443,3.4465,3.5665,3.5665,3.5534,3.5293,3.4883,3.4941,3.5273,3.4824,3.4375,3.3888,3.2603,3.1468,3.0474,2.9782,2.8548,2.7176,2.6808,2.6295,2.5516,2.3998,2.3231,2.2704,2.1475,2.0909,2.0815,2.1315,2.13,2.1224,2.1481,2.159,2.1521,2.1234,2.1148,2.1074,2.0744,2.0452,2.0141,1.9822,1.9292,1.9231,2.0213,2.049,2.0318,1.955,2.058,2.1591,2.1895,2.306,2.3863,2.3876,2.4822,2.5276,2.4901,2.4976,2.5024,2.5024,2.5371,2.5538,2.5538,2.5538,2.5847,2.6488,2.7489,2.8238,2.8701,2.9806,3.0238,2.9966,3.008,2.9141,3.0278,3.0433,3.0228,3.0878,3.1755,3.2752,3.3806,3.3834,3.4075,3.5678,3.6436,3.6859,3.6958,3.7376,3.7794,0.0,3.8022,3.792,3.7885,3.741,3.6855,3.6348,3.5446,3.5286,3.6313,3.6562,3.689,3.7266,3.7305,3.7305,3.7305,3.7305,3.7402,3.7656,3.7656,3.7578,3.7402,3.6816,3.647,3.6406,3.6031,3.5931,3.6001,3.6543,3.6543,3.6167,3.5971,3.582,3.5723,3.5273,3.5,3.4752,3.3641,3.2914,3.2139,2.9877,2.8458,2.7652,2.7292,2.6457,2.5429,2.4683,2.3583,2.2443,2.2037,2.1461,2.1067,2.1748,2.1847,2.1798,2.2128,2.2381,2.238,2.1841,2.1607,2.1387,2.1067,2.0474,2.0218,2.0988,2.0658,2.0543,2.1569,2.2416,2.2844,2.25,2.2895,2.323,2.327,2.4295,2.5045,2.5045,2.543,2.564,2.5445,2.5449,2.5449,2.5449,2.5455,2.5455,2.5455,2.5308,2.5824,2.7122,2.7552,2.8375,2.9555,2.9988,2.9806,2.9096,2.9096,2.826,3.3388,3.3329,3.2719,3.2923,3.427,3.5351,3.4537,3.4765,3.5424,3.6488,3.7011,3.7217,3.6911,3.7214,3.7535,3.7672,3.7806,3.7925,3.8069,3.7637,3.707,3.6445,3.6172,3.6191,3.6656,3.6812,3.7105,3.7617,3.7656,3.7656,3.7656,3.7656,3.7793,3.8086,3.8105,3.8047,3.7894,3.8047,3.7734,3.7012,3.7324,3.7148,3.6528,3.6953,3.6988,3.6695,3.646,3.6211,3.5996,3.5566,3.5391,3.5332,3.472,3.4102,3.3281,3.0671,2.935,2.8822,2.8509,2.7453,2.6103,2.57,2.4319,2.2769,2.2555,2.201,2.1599,2.214,2.221,2.22,2.2631,2.2775,2.2736,2.2319,2.2243,2.2132,2.1804,2.1402,2.1409,2.2326,2.2145,2.2157,2.3083,2.4142,2.4968,2.5213,2.5242,2.5129,2.4784,2.5293,2.5693,2.5693,2.5693,2.5693,2.5693,2.5645,2.5596,2.5596,2.5333,2.5186,2.5186,2.5015,2.5606,2.7054,2.7292,2.8094,2.9486,2.9715,2.9233,2.8119,2.8119,2.757,3.0706,3.1229,3.2169,3.3595,3.4585,3.5428,3.631,3.6644,3.6749,3.6865,3.6922,3.6482,3.5141,3.5229,3.5526,3.5652,3.5997,3.683,3.8372,3.7832,3.7285,3.7266,3.6523,3.6191,0.0,3.7031,3.7637,3.8513,3.8571,3.8571,3.8571,3.8571,3.8571,3.8591,3.8591,3.8359,3.7894,3.834,3.834,3.7855,3.7874,3.7855,3.7796,3.7051,3.6714,3.6656,3.5801,3.5664,3.5996,3.5566,3.5391,3.5391,3.5371,3.4627,3.3598,3.3482,3.273,3.175,3.175,3.0635,2.8937,2.7486,2.6072,2.4583,2.2923,2.2424,2.2473,2.2572,2.2405,2.2324,2.2935,2.2606,2.2198,2.2497,2.3076,2.3454,2.3095,2.3777,2.4263,2.3668,2.354,2.3869,2.4917,2.5361,2.5919,2.6967,2.7382,2.7298,2.6459,2.5947,2.5693,2.5693,2.5693,2.5693,2.5693,2.5455,2.5308,2.5308,2.5064,2.4898,2.4898,2.4917,2.5167,2.5752,2.6524,2.7173,2.7694,2.8466,2.842,2.7602,2.7602,2.7424,3.2424,3.3313,3.3963,3.501,3.6181,3.7075,3.7196,3.7482,3.7575,3.7049,3.6718,3.6208,3.5296,3.5451,3.5864,3.6271,3.7168,3.797,3.8538,3.8574,3.8242,3.7402,3.7285,0.0,0.0,0.0,0.0,3.8086,3.8418,3.8728,3.8965,3.9277,3.9453,3.9453,3.916,3.8926,3.8769,3.8633,3.8359,3.7894,3.7894,3.8086,3.834,3.8066,3.7773,3.7461,3.6894,3.6582,3.6426,3.5976,3.5801,3.5781,3.5508,3.5148,3.4718,3.4135,3.3405,3.2607,3.2086,3.0113,2.7916,2.8394,2.6937,2.4926,2.4574,2.4183,2.3735,2.3065,2.251,2.2181,2.2386,2.2261,2.2292,2.3091,2.345,2.373,2.4255,2.4494,2.4767,2.5335,2.5249,2.5433,2.657,2.6993,2.7292,2.7847,2.7545,2.7129,2.6836,2.6426,2.6172,2.6172,2.5893,2.5645,2.543,2.5357,2.5211,2.5064,2.4775,2.4627,2.4627,2.4523,2.4901,2.5811,2.6108,2.6715,2.7688,2.7934,2.7663,2.6873,2.6873,2.6546,3.4199,3.4862,3.513,3.6351,3.7114,3.7553,3.7324,3.7419,3.7376,3.676,3.5994,3.52,3.4238,3.4241,3.4623,3.5284,3.6319,3.7415,3.8443,3.8672,3.8555,3.8047,3.8086,3.8047,0.0,0.0,0.0,3.8105,3.8711,3.9082,3.9199,3.9648,3.9902,3.9902,3.9609,3.9375,3.9199,3.8926,3.8574,3.8164,3.8164,3.8301,3.8611,3.8611,3.834,3.7874,3.748,3.7051,3.6675,3.6191,3.5913,3.5792,3.552,3.5326,3.5112,3.4549,3.3835,3.299,3.2316,3.0242,2.8048,2.9003,2.7701,2.57,2.5412,2.5115,2.4642,2.3323,2.272,2.2548,2.3027,2.2881,2.2921,2.4222,2.4688,2.4994,2.5576,2.5943,2.6342,2.6976,2.6962,2.7102,2.7847,2.8153,2.8269,2.8293,2.7812,2.7422,2.7266,2.6875,2.6602,2.6602,2.6267,2.5944,2.5794,2.5595,2.5421,2.5246,2.4951,2.4826,2.4826,2.4718,2.4955,2.5698,2.5977,2.6497,2.7278,2.7557,2.7278,2.6487,2.6487,2.617,3.5647,3.572,3.5704,3.7493,3.7443,3.697,3.6876,3.6646,3.6275,3.5805,3.4707,3.341,3.187,3.1647,3.2012,3.297,3.3853,3.5416,3.8295,3.8359,3.8418,0.0,0.0,0.0,0.0,0.0,0.0,3.8747,0.0,3.9707,3.9297,3.9707,3.9961,3.9961,3.9941,3.9726,3.9277,3.9219,3.8984,3.8611,3.8611,3.8611,3.8611,3.8611,3.8359,3.7894,3.7519,3.7109,3.6699,3.6216,3.5816,3.5508,3.5489,3.5205,3.484,3.4787,3.4103,3.3079,3.2579,3.1023,2.9297,2.9363,2.8427,2.6955,2.5532,2.5345,2.5219,2.342,2.3002,2.3387,2.4745,2.4368,2.4099,2.5862,2.6683,2.7099,2.7112,2.8152,2.8924,2.8528,2.8679,2.8848,2.8776,2.8859,2.8828,2.8418,2.834,2.821,2.778,2.7324,2.7025,2.7025,2.6756,2.6602,2.6557,2.6088,2.5796,2.5796,2.5537,2.5388,2.5388,2.5388,2.5407,2.5425,2.6133,2.6474,2.6512,2.7312,2.7286,2.6512,2.6564,2.6359,3.4848,3.6348,3.7701,3.7283,3.7552,3.7712,3.6721,3.6481,3.5806,3.3479,3.2515,3.1377,2.9159,3.0553,3.2349,3.3194,3.5666,0.0,3.9768,4.0488,0.0,4.0722,0.0,4.0859,4.0585,4.0801,0.0,0.0,4.0137,3.998,4.0176,4.0605,4.0878,4.0878,4.0527,4.0312,4.0195,3.9531,3.8984,3.8611,3.8611,3.8611,3.8611,3.8611,3.8516,3.8379,3.7949,3.7572,3.7168,3.6379,3.5862,3.5477,3.5173,3.5173,3.5243,3.4666,3.4231,3.3861,3.2847,3.1096,2.9461,3.052,2.9885,2.846,2.7021,2.6622,2.6172,2.3636,2.3523,2.426,2.4635,2.5345,2.6246,2.7359,2.79,2.8321,2.8773,2.9302,2.956,2.929,2.9408,2.9508,2.9396,2.9389,2.9403,2.9285,2.8965,2.8613,2.821,2.78,2.7448,2.7194,2.6827,2.6448,2.6036,2.5874,2.5719,2.5492,2.544,2.5388,2.5388,2.5388,2.5535,2.5829,2.604,2.6268,2.6584,2.7374,2.7366,2.6584,2.7207,2.7103,3.6551,3.7743,3.8675,3.8003,3.7523,3.6851,3.5388,3.4648,3.3607,3.116,3.0007,2.9152,2.8139,2.9657,3.1514,3.291,3.5566,3.8105,3.998,4.082,4.1367,0.0,4.1933,0.0,4.1758,4.1933,4.1973,0.0,4.1113,4.0762,4.0801,4.1035,4.1211,4.1211,4.0937,4.0723,4.0489,3.9844,3.9277,3.8848,3.8848,3.875,3.8611,3.8611,3.8611,3.8591,3.832,3.7889,3.7352,3.689,3.6115,3.5264,3.5038,3.4969,3.4971,3.4504,3.4229,3.3966,3.3109,3.1786,3.0588,3.1207,3.0876,2.982,2.7718,2.7552,2.7453,2.4636,2.4843,2.6092,2.6703,2.7473,2.8352,2.9462,2.9586,2.9579,2.9916,2.9936,2.9892,2.9892,2.9995,3.0007,2.9894,2.9872,2.9813,2.9618,2.9383,2.9043,2.8633,2.8203,2.785,2.754,2.717,2.6793,2.6371,2.6231,2.6098,2.5939,2.5939,2.5939,2.5939,2.5939,2.6031,2.6251,2.627,2.655,2.7125,2.7233,2.7233,2.7125,2.7233,2.7035,3.8965,3.9191,3.8975,3.8783,3.7421,3.5554,3.3624,3.2264,3.0839,2.8836,2.7578,2.6967,2.7441,2.8594,3.0204,3.2285,3.4531,3.6992,3.9766,4.0469,4.1172,4.2401,4.2557,4.2557,4.2557,4.2557,4.2557,4.2557,4.2207,4.1777,4.1367,4.1328,4.1269,4.1211,4.1211,4.0957,4.0489,4.0156,3.9746,3.9297,3.9297,3.9062,3.8689,3.8689,3.8669,3.8611,3.8538,3.8105,3.7468,3.7302,3.6394,3.5076,3.495,3.469,3.437,3.4336,3.4112,3.3826,3.3308,3.2666,3.2001,3.1557,3.141,3.0908,2.8246,2.8361,2.8838,2.6169,2.6655,2.8246,2.9542,2.9977,3.0411,3.159,3.1351,3.0849,3.0705,3.0284,3.0069,3.0392,3.048,3.0451,3.0294,3.0293,3.0156,2.9833,2.9715,2.954,2.9113,2.8645,2.8198,2.7853,2.753,2.7233,2.6962,2.6736,2.6591,2.6591,2.6591,2.6591,2.6591,2.6591,2.6591,2.6591,2.6591,2.6954,2.7645,2.7062,2.7043,2.7618,2.7035,2.6682,3.833,3.8789,3.8824,3.7788,3.7217,3.6149,3.3276,3.1722,2.9921,2.6665,2.5981,2.5425,2.3828,2.6543,2.9601,3.1445,3.4108,3.7305,4.0957,4.1543,4.2051,0.0,4.3476,4.3476,4.3476,4.3476,0.0,0.0,4.3086,4.2676,4.2226,4.1875,4.1523,4.123,4.1211,4.0957,4.0489,4.0449,4.0195,3.9766,3.9766,3.9531,3.9101,3.9101,3.8906,3.8574,3.8265,0.0,3.7838,3.682,3.6062,3.5433,3.4744,3.4445,3.437,3.4024,3.4091,3.4131,3.3065,3.2618,3.2368,3.1648,3.141,3.1134,2.9737,2.9509,2.9411,2.8048,2.8689,2.9882,3.0142,3.1286,3.2321,3.2217,3.2305,3.2168,3.1161,3.0621,3.0421,3.0762,3.082,3.0801,3.0781,3.0762,3.0742,3.0713,3.0332,3.0059,2.998,2.9095,2.8202,2.7541,2.7233,2.6962,2.6682,2.6646,2.6591,2.6591,2.6591,2.6591,2.6591,2.6591,2.6591,2.6591,2.6591,2.6673,2.6818,2.7341,2.7314,2.6818,2.7341,2.7233,3.8807,3.9051,3.8874,3.8057,3.7265,3.5819,3.2275,3.0366,2.8337,2.4822,2.3887,2.3532,2.2927,2.5078,2.7637,2.9805,3.2324,3.5371,3.9238,4.0371,4.1445,4.3164,4.3574,4.3711,4.3711,4.3711,4.3711,4.3711,4.3516,4.3223,4.2793,4.2148,4.1699,4.1504,4.1328,4.1074,4.0859,4.0859,4.0644,4.0215,4.0,3.9648,3.9199,3.8763,3.8476,3.8265,3.7862,3.7568,3.7329,3.6754,3.6051,3.5241,3.4878,3.4454,3.4059,3.3886,3.3921,3.3967,3.3206,3.2771,3.2496,3.1891,3.1561,3.1216,3.0145,3.0307,3.0682,2.9589,3.0434,3.1662,3.1662,3.2416,3.3126,3.2913,3.2669,3.2255,3.1431,3.0936,3.0704,3.085,3.0898,3.0898,3.0898,3.0898,3.0898,3.0898,3.0568,3.0238,3.0006,2.9212,2.8436,2.782,2.7489,2.7141,2.6637,2.6591,2.6591,2.6591,2.6591,2.6591,2.6591,2.6591,2.6591,2.6591,2.6591,2.6818,2.7233,2.7179,2.7179,2.7233,2.7179,2.6981,3.8965,3.9191,3.8965,3.8386,3.7354,3.5465,3.1414,2.9186,2.6948,2.3477,2.2317,2.2109,2.2849,2.4141,2.5942,2.8496,3.0586,3.3301,3.7363,3.8984,4.0586,4.2812,4.3457,0.0,4.3711,4.3711,0.0,4.3711,4.3613,4.3379,4.2949,4.2305,4.1855,4.168,4.1348,4.1211,4.1211,4.1211,4.0996,4.0664,4.0234,3.9785,3.9336,3.8594,3.8178,3.7972,3.7568,3.7218,3.6923,3.6738,3.6072,3.5135,3.5027,3.4496,3.3817,3.3817,3.3817,3.3762,3.3324,3.2955,3.2566,3.2195,3.1824,3.1345,3.0599,3.1166,3.1942,3.1162,3.195,3.3026,3.3026,3.3197,3.3386,3.3386,3.2773,3.2101,3.1738,3.125,3.0898,3.0898,3.0898,3.0898,3.0898,3.0898,3.0898,3.0898,3.0597,3.0305,2.9978,2.9371,2.8772,2.8295,2.7893,2.7392,2.6784,2.6719,2.6683,2.6618,2.6591,2.6591,2.6591,2.6591,2.6591,2.6591,2.6591,2.6899,2.7538,2.6899,2.6926,2.7511,2.6899,2.6591,3.7664,3.8522,3.8904,3.8004,3.7301,3.5753,3.147,2.8888,2.6399,2.2962,2.2079,2.2031,2.2459,2.3945,2.5942,2.8496,3.0098,3.2637,3.723,3.8691,4.0215,4.2773,0.0,0.0,4.3711,4.3711,4.3711,4.3711,4.3359,4.2949,4.25,4.2362,4.2031,4.1289,4.123,4.1211,4.1211,4.1211,4.1191,4.1152,4.0664,4.0234,3.9824,3.9318,3.8687,3.7972,3.7568,3.7365,0.0,3.6553,3.598,3.551,3.5135,3.4496,3.3817,3.3817,3.3817,3.3762,3.3324,3.2955,3.26,3.2491,3.2181,3.1878,3.2102,3.2466,3.2848,3.307,3.3228,3.3355,3.3355,3.3386,3.3386,3.3386,3.2773,3.2179,3.214,3.1494,3.0898,3.0898,3.0898,3.0898,3.0898,3.0898,3.0898,3.0898,3.0597,3.0372,3.0334,2.9806,2.9266,2.8789,2.8159,2.7601,2.7187,2.7151,2.7004,2.6609,2.6591,2.6591,2.6591,2.6591,2.6591,2.6591,2.6591,2.6646,2.6727,2.6646,2.6646,2.6727,2.6646,2.6591,3.7308,3.8461,3.8876,3.8247,3.7241,3.5365,3.1314,2.8553,2.6141,2.3519,2.2414,2.2168,2.3105,2.3851,2.498,2.7051,2.8047,2.9844,3.3523,3.5469,3.7559,4.041,4.1816,4.2871,0.0,0.0,4.3711,4.3711,4.332,4.2891,4.2421,4.2187,4.1894,4.1562,4.1348,4.1211,4.1211,4.1211,4.1211,4.1211,4.0469,3.9945,3.9524,3.8547,3.7812,3.7255,3.6849,3.6701,0.0,3.6312,3.5815,3.5224,3.5063,3.4496,3.3817,3.3817,3.3817,3.3798,3.3633,3.3274,3.2903,3.2869,3.2692,3.2549,3.2676,3.2645,3.2676,3.3007,3.2943,3.2816,3.3038,3.326,3.3386,3.3386,3.2969,3.248,3.2257,3.1699,3.1191,3.0937,3.0898,3.0898,3.0898,3.0733,3.0597,3.0597,3.0186,2.9863,2.9863,2.9479,2.9128,2.8932,2.8457,2.7961,2.7484,2.7289,2.7179,2.7081,2.6926,2.6845,2.6845,2.6845,2.6763,2.6591,2.6591,2.6591,2.6591,2.6591,2.6591,2.6591,2.6591,2.6591,3.5971,3.7373,3.8133,3.7685,3.6485,3.4523,3.1027,2.8167,2.5759,2.3964,2.2686,2.2326,2.3711,2.3984,2.4512,2.6133,2.6855,2.8262,3.1289,3.332,3.5586,3.8476,0.0,4.1543,4.2832,4.3418,4.3711,4.3711,4.3203,4.2754,4.2401,4.1914,4.1621,4.1621,4.1367,4.1211,4.1211,4.1211,4.1152,4.0976,4.0234,3.9636,3.9067,3.804,3.7292,3.6775,3.6516,3.633,0.0,3.6201,3.5742,3.4991,3.4991,3.4496,3.3817,3.3817,3.3817,3.3817,3.3955,3.3573,3.3088,3.2888,3.2576,3.2256,3.2256,3.2403,3.2581,3.2708,3.2645,3.2613,3.2835,3.3133,3.3386,3.3386,3.3105,3.2715,3.2452,3.1914,3.1426,3.1133,3.0976,3.0898,3.0898,3.0616,3.0392,3.0392,2.9892,2.9509,2.9509,2.9213,2.9005,2.9005,2.8855,2.851,2.8005,2.7753,2.7623,2.7622,2.7308,2.7125,2.7125,2.7043,2.6908,2.6709,2.6646,2.6591,2.6591,2.6591,2.6591,2.6591,2.6591,2.6591,3.3123,3.4884,3.642,3.5924,3.4817,3.3166,3.0681,2.7734,2.5195,2.4033,2.2795,2.2402,2.4102,2.4391,2.482,2.6172,2.7135,2.8738,3.1768,3.3293,3.5039,3.7601,3.8711,3.9746,4.1113,4.2715,4.3711,4.3711,4.291,0.0,4.2382,4.1641,4.1211,4.1211,4.1211,4.1211,4.1211,4.1211,4.0957,4.0489,4.0098,3.9443,3.8587,3.8164,3.7568,3.6812,3.6812,3.659,0.0,3.6201,3.5742,3.4991,3.4991,3.4496,3.3817,3.3817,3.3817,3.3851,3.4267,3.383,3.297,3.2335,3.1508,3.0807,3.0807,3.1809,3.2835,3.2517,3.2645,3.288,3.288,3.3133,3.3386,3.3386,3.3105,3.2793,3.2793,3.2129,3.1494,3.1474,3.1172,3.0898,3.0898,3.0616,3.0392,3.0392,2.9892,2.9509,2.9509,2.9213,2.9005,2.9005,2.9302,2.9293,2.8824,2.8728,2.8511,2.8112,2.7649,2.7395,2.7395,2.7152,2.6989,2.6989,2.6736,2.6591,2.6591,2.6591,2.6591,2.6591,2.6591,2.6591,3.0665,3.1957,3.278,3.2033,3.1035,2.9762,2.787,2.5769,2.4207,2.4229,2.346,2.3303,2.4976,2.5289,2.5913,2.7812,2.834,2.9277,3.1426,3.3594,3.5605,3.7305,4.0332,4.2441,0.0,4.3125,4.3398,4.3691,4.2656,4.2129,4.2362,4.1621,4.1211,4.1211,4.1211,4.1211,4.1211,4.0879,4.051,4.0086,3.9371,3.8609,3.784,3.7369,3.6886,3.6405,3.6405,3.6312,3.6182,3.5925,3.5467,3.4973,3.4715,3.4275,3.3851,3.4094,3.4198,3.4267,3.4612,3.4372,3.3818,3.3605,3.3084,3.2543,3.2288,3.1873,3.1616,3.2211,3.2645,3.288,3.288,3.3133,3.3386,3.3386,3.3289,3.3082,3.2572,3.2026,3.1543,3.1223,3.0847,3.0645,3.0869,3.044,3.0069,3.0069,2.9538,2.9153,2.9153,2.9272,2.9331,2.9331,2.9804,2.9839,2.919,2.9107,2.8984,2.8663,2.8345,2.8044,2.7764,2.7449,2.7179,2.6989,2.6736,2.6591,2.6591,2.6591,2.6872,2.7422,2.6845,2.6445,2.829,2.9367,2.9928,2.9466,2.856,2.7446,2.6275,2.4555,2.3345,2.3854,2.3516,2.3574,2.4957,2.5484,2.6147,2.7474,2.8125,2.9101,3.1016,3.3359,3.5664,3.7773,4.082,0.0,0.0,4.3047,4.3183,4.3437,4.2422,4.1914,4.2168,4.1543,4.1211,4.1211,4.1211,4.1211,4.1211,4.0588,4.0085,3.9644,3.8801,3.7989,3.7222,3.6924,3.659,3.6201,3.6201,3.6127,0.0,3.5687,3.5266,3.4734,3.4513,3.4165,3.3851,3.4232,3.4405,3.4474,3.4956,3.471,3.4134,3.3719,3.3052,3.2416,3.232,3.1873,3.1552,3.2211,3.2645,3.288,3.288,3.3133,3.3386,3.3386,3.3386,3.3265,3.2804,3.227,3.1786,3.1515,3.0993,3.0597,3.0704,3.0245,2.9863,2.9774,2.9302,2.9035,2.9153,2.9361,2.9538,2.9656,3.0098,3.0218,2.9736,2.9661,2.9564,2.9406,2.8928,2.8481,2.813,2.7227,2.6591,2.6345,2.5606,2.5459,2.5916,2.6382,2.7008,2.778,2.6981,2.6373,0.0,2.7032,2.7706,2.7832,2.6979,2.5957,2.5523,2.3864,0.0,2.3049,2.3105,2.3335,2.4313,2.5132,2.5737,2.5991,2.707,2.864,3.082,3.3098,0.0,0.0,4.0547,4.1484,4.1855,4.2578,4.3047,4.3127,4.2246,4.1758,4.1797,4.1406,4.1172,4.1133,4.1133,4.1152,4.1133,4.026,3.9644,3.9145,3.8329,3.752,3.6775,3.6775,3.659,0.0,3.6238,3.6017,3.5687,3.5614,3.5155,3.4439,3.4402,3.4163,3.3886,3.4301,3.4474,3.4577,3.528,3.4946,3.4068,3.2995,3.188,3.1033,3.1355,3.1905,3.2453,3.2453,3.2708,3.2962,3.2962,3.3165,3.3386,3.3386,3.3386,3.3386,3.3355,3.2742,3.2177,3.2137,3.1444,3.0772,3.0421,3.0098,2.9774,2.9538,2.9213,2.9124,2.945,2.9538,2.9627,2.9922,3.0245,3.045,3.045,3.0315,3.0234,3.0195,2.937,2.871,2.8397,2.6536,2.5368,2.5075,2.3687,2.3536,2.475,2.5871,2.6908,2.7807,2.6981,2.6318,2.3751,0.0,2.4422,2.3782,2.3295,2.2932,0.0,2.2127,2.1737,2.25,2.2635,2.3201,2.5031,2.5312,2.6094,2.873,2.9414,3.0497,3.3,3.6328,0.0,4.0976,4.2324,4.3027,4.2793,4.2656,4.2715,4.3047,4.2032,4.1504,4.1777,4.1406,4.1055,4.0666,4.0666,4.053,4.0202,3.9701,3.8937,3.7915,3.7334,3.6831,3.6349,3.6349,3.6479,3.6664,3.6664,3.6625,3.6487,3.5861,3.5326,3.4843,3.4527,3.436,3.4336,3.499,3.523,3.526,3.5375,3.5043,3.4446,3.3508,3.3034,3.2797,3.2892,3.2848,3.2835,3.307,3.3228,3.3292,3.3292,3.3323,3.3386,3.3386,3.3386,3.3323,3.307,3.2633,3.2127,3.1535,3.1027,3.0539,3.0097,2.9774,2.9568,2.9509,2.9213,2.9124,2.945,2.9686,2.9922,3.0245,3.0587,3.0762,3.0762,3.0752,3.0586,3.0215,2.9089,2.8021,2.7141,2.5488,2.4373,2.3838,2.3027,2.3099,2.4111,2.4605,2.5982,2.8082,2.7071,2.5727,2.2982,2.3381,2.3781,2.3216,2.2788,2.2503,2.2609,2.1823,2.1213,2.1807,0.0,2.3485,2.4729,2.577,2.7086,2.9012,3.0332,3.2207,3.5391,0.0,4.0735,4.2978,4.3819,4.42,4.4241,4.3619,4.3041,4.2541,4.1503,4.0977,4.121,4.082,4.0394,3.9949,3.9949,3.9835,3.9624,3.9032,3.8349,3.7502,3.6812,3.6516,3.6479,3.6479,3.6701,3.7071,3.7071,3.6879,3.6493,3.6033,3.551,3.4912,3.4706,3.4646,3.4715,3.5264,3.5354,3.5196,3.5335,3.4961,3.4297,3.3601,3.3386,3.3386,3.3386,3.326,3.3165,3.3355,3.3386,3.3386,3.3386,3.3386,3.3355,3.3197,3.3165,3.307,3.2721,3.2352,3.1932,3.1462,3.0922,3.0414,2.9968,2.9686,2.9509,2.9509,2.9361,2.939,2.9863,3.0039,3.0245,3.0587,3.0791,3.0898,3.0898,3.0898,3.0529,2.9649,2.8629,2.7477,2.6157,2.4261,2.272,2.1587,2.2055,2.2564,2.3087,2.4067,2.5461,2.7203,2.578,2.415,2.3207,2.4121,2.4923,2.4193,2.3694,2.3432,2.366,2.2452,0.0,0.0,0.0,0.0,2.4505,2.6453,0.0,2.8804,3.1084,3.4139,3.8051,3.9744,4.1641,4.4551,4.5154,4.532,4.5372,4.467,4.3616,4.225,4.1152,4.0509,4.0509,4.0061,3.9637,3.9238,3.9163,3.9067,3.8915,3.8327,3.7763,3.7296,3.6608,3.646,3.6812,3.6849,3.7107,3.7495,3.7419,3.7017,3.6366,3.6237,3.5708,3.499,3.499,3.499,3.5024,3.5378,3.523,3.4916,3.5134,3.4648,3.3938,3.3535,3.3386,3.3386,3.3386,3.3386,3.3386,3.3386,3.3386,3.3386,3.3386,3.3386,3.3323,3.2975,3.288,3.2804,3.2485,3.2125,3.184,3.165,3.1047,3.0419,3.0063,2.9724,2.9509,2.9568,2.9568,2.9774,3.0333,3.0392,3.0538,3.085,3.0898,3.0898,3.0898,3.0898,3.0304,2.8938,2.8061,2.6722,2.4751,2.2732,2.0958,1.943,2.0859,2.1729,2.1972,2.3536,2.4872,2.5917,2.4189,2.2445,2.4269,2.6347,2.7547,2.4388,2.3949,2.4386,2.4632,2.3864,2.3175,0.0,0.0,0.0,0.0,2.7353,2.8596,0.0,0.0,3.6901,0.0,0.0,4.3816,4.4375,0.0,4.6694,4.4621,4.428,4.412,4.3849,4.1738,4.0509,4.0509,3.9775,3.9218,3.8774,3.8456,3.7948,3.7216,3.7444,3.7203,3.6404,3.6608,3.6738,3.6812,3.7144,3.7532,3.788,3.7552,3.7289,3.7089,3.6405,3.5843,3.5421,3.5421,3.5421,3.5397,3.5423,3.5382,3.5207,3.4531,3.3945,3.3516,3.3406,3.3386,3.3386,3.3386,3.3386,3.3386,3.3386,3.3386,3.3386,3.3386,3.3386,3.3323,3.2975,3.288,3.2804,3.2485,3.2333,3.2194,3.1821,3.1157,3.0639,3.0498,2.9941,2.9597,2.9804,2.9833,2.9981,3.0362,3.0392,3.0538,3.085,3.0898,3.0898,3.0898,3.0898,3.0216,2.8659,2.7387,2.5097,2.1566,2.0587,1.9918,1.9401,1.9403,2.0026,2.1345,2.1843,2.3211,2.5323,2.3994,2.1963,2.288,2.4577,2.6258,2.5873,2.7386,2.9063,2.9278,2.8476,2.7458,0.0,0.0,0.0,0.0,0.0,3.1054,3.4407,0.0,3.7986,4.1766,4.2799,4.3999,0.0,4.7499,4.7834,4.6921,4.5815,4.4757,4.3901,4.1537,4.0086,3.9853,3.9029,3.8305,3.7699,3.7476,3.7105,3.6457,3.6905,3.6924,3.6553,3.6923,3.7218,3.7439,3.7642,3.7801,3.7933,3.7756,3.7416,3.6953,3.6565,3.6165,3.5777,3.5777,3.5777,3.57,3.5207,3.4883,3.459,3.3945,3.3594,3.3386,3.3386,3.3386,3.3386,3.3386,3.3386,3.3386,3.3386,3.3386,3.3386,3.3386,3.326,3.307,3.2962,3.2613,3.2358,3.239,3.2262,3.2117,3.2092,3.1487,3.0947,3.0814,3.0187,2.9833,3.0128,3.0157,3.0274,3.0645,3.0674,3.0733,3.0898,3.0898,3.0898,3.0898,3.0733,2.9638,2.7289,2.5757,2.3566,2.0557,2.0167,1.9826,1.9401,1.9388,1.9751,2.0443,2.0745,2.1473,2.2536,2.1458,1.9498,2.2577,2.3846,2.5835,2.8099,3.0192,3.2062,3.3444,3.232,0.0,0.0,0.0,0.0,0.0,3.1684,0.0,3.669,3.748,3.8878,4.2122,4.2638,4.3859,4.7075,4.7739,4.7888,4.7804,4.6282,4.4854,4.357,4.126,3.974,3.9335,3.8402,3.7535,3.6805,3.6713,3.6493,3.6219,3.6701,3.6886,3.6812,3.7292,3.7715,3.8009,3.7986,3.7972,3.7874,3.7715,3.7266,3.6695,3.6597,3.6514,3.6471,3.6118,3.5898,3.5591,3.4844,3.4277,3.3867,3.3503,3.3386,3.3386,3.3386,3.3386,3.3386,3.3386,3.3386,3.3386,3.3386,3.3386,3.3386,3.3386,3.3197,3.3007,3.2931,3.2517,3.2166,3.2358,3.2198,3.2104,3.2382,3.1779,3.1211,3.1279,3.059,3.0128,3.048,3.0509,3.0616,3.085,3.0898,3.0898,3.0898,3.082,3.0733,3.0674,3.0098,2.8575,2.5924,2.4394,2.2552,2.0193,2.018,1.987,1.9169,1.9446,1.9606,1.9693,1.9953,1.9997,1.981,1.8884,1.6891,2.5901,2.7488,2.9264,3.1043,2.996,2.9709,3.4602,3.2913,0.0,3.4557,0.0,0.0,0.0,3.5473,3.6298,3.6671,3.8047,4.0107,4.3187,0.0,4.4245,4.4576,4.5912,4.6041,4.4071,4.3743,4.3608,4.3494,4.126,3.974,3.9335,3.8121,3.7257,3.6805,3.642,3.6237,3.6201,3.696,3.7181,3.6812,3.7605,3.7972,3.8009,3.7947,3.7877,3.7835,3.709,3.6753,3.6675,3.623,3.6795,3.7829,3.6505,3.5527,3.4746,3.431,3.3848,3.3457,3.3406,3.3386,3.3386,3.3386,3.3386,3.3386,3.3386,3.3386,3.3386,3.3386,3.3386,3.3386,3.3386,3.3386,3.3292,3.2975,3.2848,3.2772,3.2453,3.239,3.2466,3.2778,3.197,3.1398,3.2007,3.1139,3.048,3.0791,3.085,3.085,3.0898,3.0898,3.0898,3.0898,3.0616,3.0304,2.9981,2.8582,2.6957,2.5161,2.4147,2.2459,1.9933,2.0059,1.9661,1.8486,1.8794,1.9071,1.9348,1.9348,1.9032,1.8413,1.7535,1.511,2.4271,2.6534,2.9277,3.04,3.1272,0.0,0.0,3.7982,3.7839,3.8795,3.8905,0.0,0.0,0.0,3.6869,3.7642,3.8826,4.0484,4.2864,4.3549,4.4162,4.5185,4.5825,4.5779,4.473,4.3718,4.3014,4.2725,4.0691,3.9161,3.852,3.7802,3.711,3.6439,3.6292,3.6201,3.6201,3.6753,3.6951,3.6805,3.7569,3.7931,3.7911,3.7663,3.7402,3.7129,3.6851,3.6523,3.6318,3.7004,3.7629,3.8021,3.719,3.6322,3.5396,3.4443,3.3789,3.3355,3.3165,3.307,3.307,3.307,3.307,3.3133,3.3323,3.3386,3.3386,3.3386,3.3386,3.3386,3.3386,3.326,3.3102,3.3197,3.288,3.2676,3.2943,3.2867,3.2759,3.2804,3.2281,3.1797,3.1786,3.1181,3.0762,3.0898,3.0898,3.0898,3.0898,3.0733,3.0597,3.0597,3.0274,2.9804,2.9076,2.7907,2.6305,2.4271,2.3419,2.1934,1.9585,1.9589,1.8897,1.7232,1.7948,1.7584,1.6068,1.668,1.6462,1.5419,1.4242,1.2051,2.5131,2.7146,2.9645,3.0947,0.0,0.0,3.9564,4.065,4.1176,4.2106,4.1847,4.0827,3.8663,0.0,0.0,0.0,3.8961,4.0178,4.1559,4.2098,4.2779,4.3847,4.4017,4.3891,4.3611,4.2588,4.1814,4.1488,4.0065,3.8865,3.8046,3.7629,3.7034,3.6238,3.6091,3.6017,3.6017,3.6397,3.6607,3.6624,3.7242,3.7598,3.7715,3.7285,3.6953,3.6695,3.6523,3.6289,3.6084,3.7045,3.738,3.7264,3.751,3.6693,3.5281,3.4258,3.3608,3.3197,3.2975,3.2835,3.2772,3.2867,3.288,3.3038,3.3808,3.3733,3.3481,3.3902,3.3733,3.3386,3.3386,3.3228,3.3102,3.3355,3.3038,3.2835,3.3292,3.3228,3.3017,3.284,3.2492,3.2061,3.1601,3.1172,3.0898,3.0898,3.0898,3.0898,3.0898,3.0616,3.0245,2.9844,2.9116,2.8373,2.7607,2.6244,2.47,2.2946,2.1931,2.0721,1.9206,1.8845,1.7907,1.626,1.6585,1.5865,1.3974,1.4669,1.4321,1.3036,1.1711,0.9476,2.9606,3.014,3.0923,3.3386,0.0,0.0,4.0817,3.9972,3.9819,4.418,4.2825,4.0383,3.8971,3.7901,0.0,3.73,3.8359,3.9199,3.9199,3.9609,3.9902,3.9902,3.9902,3.9902,3.9883,3.9883,3.9883,3.9883,3.9453,3.8828,3.8008,3.7629,3.7034,3.6201,3.5815,3.5577,3.5577,3.6002,3.6188,3.6223,3.6542,3.6894,3.7266,3.689,3.6695,3.6675,3.6211,3.5982,3.5982,3.6016,3.5795,3.5606,3.737,3.6478,3.4036,3.3574,3.3197,3.288,3.288,3.2676,3.2453,3.2804,3.288,3.3197,3.4881,3.4465,3.367,3.5005,3.4434,3.3386,3.3386,3.3386,3.3386,3.3386,3.3386,3.3386,3.3386,3.3386,3.3269,3.2871,3.2492,3.2031,3.1552,3.1142,3.085,3.085,3.085,3.085,3.0898,3.0587,2.9873,2.863,2.7004,2.5865,2.5513,2.3389,2.1842,2.1245,1.967,1.8778,1.8766,1.781,1.6743,1.558,1.4599,1.3944,1.3665,1.3665,1.2976,1.1631,1.037,0.7646,2.73,2.9742,0.0,3.3045,0.0,0.0,0.0,4.2592,0.0,0.0,4.299,4.1012,3.9906,3.8603,0.0,3.8013,3.872,3.9199,3.9199,3.9609,3.9902,3.9902,3.9902,3.9766,3.9434,3.9414,3.9185,3.8598,3.8406,3.7998,3.7202,3.6754,3.631,3.5797,3.5376,3.5174,3.5174,3.5536,3.5717,3.5698,3.6062,3.6445,3.6871,3.6406,3.6211,3.6211,3.6074,3.5982,3.6064,3.677,3.7145,3.7265,3.6896,3.604,3.4866,3.352,3.2994,3.2835,3.2358,3.2134,3.2102,3.2453,3.2549,3.274,3.3702,3.3733,3.3481,3.389,3.3702,3.3386,3.3386,3.3386,3.3386,3.3386,3.3386,3.3386,3.3386,3.3386,3.3203,3.2531,3.2094,3.1309,2.9602,2.9071,2.8849,2.8849,2.8849,2.8957,2.9165,2.9135,2.8659,2.7551,2.6368,2.5438,2.4902,2.2937,2.1388,2.0562,1.8546,1.7227,1.6835,1.6353,1.5081,1.2886,1.3485,1.2877,1.0959,1.1864,1.1171,0.8982,0.7662,0.4807,2.9949,3.2234,0.0,3.5974,3.9123,4.2176,4.3381,0.0,0.0,0.0,4.2074,4.0277,3.9419,3.8402,0.0,3.8387,3.8767,3.8945,3.8945,3.9199,3.9375,3.9375,3.9226,3.9035,3.8726,3.8422,3.8103,3.7789,3.7617,3.7229,3.6606,3.6346,3.5959,3.5394,3.4954,3.486,3.5002,3.5175,3.5351,3.5489,3.5825,3.6152,3.6406,3.6133,3.5982,3.5982,3.584,3.5762,3.5824,3.6591,3.6684,3.6269,3.5852,3.5094,3.409,3.307,3.2613,3.2453,3.2038,3.1896,3.1961,3.2294,3.2485,3.2804,3.387,3.3827,3.3513,3.4027,3.3808,3.3386,3.3386,3.3386,3.3386,3.3386,3.3386,3.3386,3.3386,3.3292,3.2944,3.216,3.1294,3.0168,2.8511,2.7679,2.7198,2.7198,2.7198,2.7319,2.7654,2.7125,2.655,2.6097,2.4548,2.3126,2.2083,2.0492,1.8981,1.7536,1.6076,1.4835,1.3965,1.4108,1.3419,1.1722,1.1985,1.1322,0.9609,0.9869,0.9128,0.7459,0.559,0.304,3.5059,3.6023,3.6758,4.0491,4.2026,0.0,4.4206,4.4118,4.351,4.2505,0.0,3.8849,3.8147,3.7662,3.7676,3.8493,3.8611,3.8611,3.8611,3.8611,3.8555,3.8479,3.817,3.7895,3.782,3.7166,3.6872,3.7196,3.6892,3.654,3.6123,3.605,3.5701,3.499,3.4568,3.4524,3.4946,3.4938,3.5093,3.5523,3.5811,3.5947,3.5947,3.5982,3.5962,3.5937,3.558,3.5418,3.5414,3.5741,3.4995,3.3695,3.4407,3.3745,3.239,3.2358,3.2166,3.1896,3.1878,3.1878,3.1961,3.2294,3.2645,3.3197,3.4757,3.4372,3.367,3.485,3.434,3.3386,3.3386,3.3386,3.3355,3.3355,3.3355,3.3355,3.3355,3.3051,3.256,3.1804,3.0377,2.8959,2.794,2.6729,2.5863,2.5741,2.5802,2.5954,2.62,2.487,2.3977,2.4162,2.1874,1.9661,1.7953,1.6861,1.5391,1.3434,1.2952,1.2159,1.0838,1.1546,1.1776,1.145,1.0301,0.9579,0.9244,0.7978,0.7149,0.666,0.4091,0.2153,3.2206,3.4412,0.0,3.9448,4.2578,4.5016,4.4589,4.3645,4.2392,4.0986,4.0527,3.9897,3.8299,3.8183,3.8396,3.8591,3.8611,3.8611,3.8611,3.8611,3.8384,3.7745,3.7562,3.7302,3.6635,3.6449,3.6251,3.6023,3.5893,3.5676,3.5263,3.4951,3.4694,3.4532,3.4147,3.4119,3.4535,3.4787,3.5093,3.5523,3.5592,3.5626,3.5606,3.5879,3.584,3.5527,3.5658,3.5488,3.5144,3.4976,3.4505,3.3776,3.3172,3.2721,3.2358,3.2102,3.1942,3.1846,3.1621,3.1685,3.1961,3.2294,3.2645,3.3007,3.3639,3.3639,3.3449,3.3765,3.3607,3.3386,3.3386,3.3197,3.3026,3.3026,3.3026,3.3026,3.3026,3.2504,3.1884,3.1389,3.0541,2.907,2.6479,2.5591,2.4886,2.3869,2.4348,2.4686,2.4271,2.3683,2.2704,2.1141,1.9529,1.7953,1.6475,1.51,1.4016,1.3331,1.2209,1.1333,1.0808,1.0778,1.0358,0.9518,0.922,0.9068,0.8976,0.7647,0.6416,0.5284,0.3722,0.1569,3.324,3.5381,0.0,4.072,0.0,4.4328,4.3341,4.2043,4.0626,3.9101,3.8997,3.895,3.8153,3.8164,3.8262,3.8262,3.8262,3.8203,3.7988,3.7806,3.7513,3.7102,3.6761,3.638,3.5958,3.5573,3.5341,3.5313,3.5146,3.4929,3.4733,3.4513,3.4312,3.4128,3.41,3.4198,3.4405,3.4542,3.4702,3.4905,3.4714,3.4619,3.4672,3.5032,3.5234,3.5303,3.5251,3.5348,3.5532,3.4644,3.4045,3.3544,3.2549,3.207,3.1891,3.1717,3.1653,3.1653,3.1653,3.1846,3.2198,3.2549,3.2867,3.3165,3.3355,3.3386,3.3386,3.3386,3.3292,3.3165,3.3165,3.2912,3.2619,3.2409,3.2352,3.2352,3.2352,3.1559,3.068,3.0254,2.8601,2.6756,2.5103,2.3327,2.186,2.1011,2.0732,2.0579,2.0403,1.9802,1.9115,1.8369,1.7226,1.5798,1.399,1.3152,1.2155,1.09,1.0128,0.9464,0.8958,0.8793,0.8769,0.8885,0.8885,0.8824,0.8641,0.6665,0.5253,0.4364,0.2464,0.0709,3.4241,3.6419,3.8334,4.2471,4.3232,0.0,4.1694,4.0431,3.9075,3.7602,3.7329,3.7463,3.7829,3.7814,3.7812,3.7812,3.7741,3.7588,3.7238,3.6862,3.654,3.6428,3.5861,3.5433,3.5306,3.4707,3.444,3.4753,3.4495,3.4293,3.4293,3.4293,3.411,3.3725,3.4036,3.4205,3.42,3.415,3.413,3.4197,3.379,3.3548,3.3426,3.3732,3.4326,3.5059,3.4606,3.4983,3.5767,3.4312,3.3576,3.3228,3.2198,3.1653,3.141,3.1474,3.1474,3.1538,3.1878,3.2198,3.2549,3.2816,3.3133,3.3386,3.3386,3.3386,3.3386,3.3323,3.3102,3.2899,3.2835,3.2524,3.2086,3.1634,3.1383,3.1289,3.1396,3.0319,2.9256,2.8916,2.6264,2.3936,2.3479,2.0853,1.8576,1.7805,1.6646,1.5861,1.5895,1.5342,1.507,1.5375,1.4823,1.3548,1.1426,1.1142,1.0297,0.8469,0.816,0.779,0.7169,0.698,0.7378,0.836,0.8391,0.8305,0.8122,0.5468,0.4057,0.3845,0.1233,0.0123,2.9901,0.0,3.8818,0.0,4.2942,4.2148,0.0,0.0,3.9075,0.0,3.7308,3.7332,3.739,3.7386,3.7383,3.7383,3.708,3.6849,3.6791,3.6472,3.602,3.5309,3.513,3.4806,3.4105,3.3927,3.3908,3.3982,3.3927,3.389,3.389,3.389,3.3707,3.3287,3.3337,3.3376,3.3375,3.3352,3.3481,3.378,3.3425,3.2887,3.2224,3.228,3.3179,3.4623,3.3953,3.4199,3.4941,3.3576,3.3019,3.2892,3.1859,3.1442,3.1442,3.1717,3.1814,3.1878,3.223,3.2549,3.2835,3.2899,3.3133,3.3386,3.3386,3.3386,3.3323,3.3038,3.2912,3.2835,3.2549,3.1948,3.1288,3.0646,2.9756,2.9205,2.9826,2.888,2.784,2.7789,2.5574,2.3012,2.0908,1.9223,1.7302,1.4818,1.4006,1.3281,1.2042,1.2628,1.2693,1.1585,1.2068,1.1732,0.9941,0.9233,0.9018,0.9293,0.8441,0.798,0.8111,0.7347,0.6705,0.6307,0.6307,0.6552,0.7103,0.4459,0.3446,0.3845,0.1233,0.0617,3.0855,3.5111,3.9128,0.0,4.146,4.0224,4.006,3.8536,3.7089,3.6661,3.6582,3.6719,3.7207,3.7109,3.6883,3.6654,3.6479,3.6208,3.5734,3.5401,3.5046,3.4703,3.4272,3.3842,3.3505,3.3452,3.3395,3.3156,3.3358,3.3445,3.341,3.3222,3.3114,3.3132,3.3184,3.3092,3.2873,3.285,3.2707,3.2399,3.2269,3.2032,3.1653,3.1653,3.2378,3.3628,3.3289,3.3733,3.4528,3.3379,3.2905,3.2778,3.1777,3.1506,3.1717,3.1846,3.2006,3.223,3.2581,3.2804,3.2912,3.3102,3.3292,3.3386,3.3386,3.3386,3.3323,3.2975,3.2772,3.2397,3.1485,3.0438,2.933,2.82,2.6557,2.5391,2.5875,2.6397,2.6329,2.4797,2.2788,2.079,1.9171,1.728,1.5502,1.4009,1.2841,1.183,1.0967,1.1304,1.1384,1.0763,1.0993,1.0937,1.0275,0.9853,0.9788,1.0193,0.9788,0.9147,0.8324,0.7897,0.7128,0.5939,0.5908,0.5847,0.5786,0.3909,0.2956,0.2802,0.1665,0.145,0.0,0.0,3.7324,4.0403,3.9547,3.8133,0.0,0.0,3.5332,0.0,3.5758,3.5923,3.6697,3.6615,3.6262,3.5862,3.5723,3.5455,3.4856,3.438,3.4084,3.4084,3.3474,3.3031,3.3031,3.3031,3.2936,3.2625,3.2949,3.3154,3.3107,3.2922,3.2885,3.2939,3.3005,3.2803,3.2294,3.2296,3.1981,3.141,3.141,3.141,3.141,3.141,3.1809,3.2511,3.2511,3.3095,3.3945,3.3051,3.2638,3.2575,3.1923,3.157,3.1557,3.1974,3.2102,3.2083,3.2785,3.3038,3.307,3.3323,3.3323,3.3292,3.3355,3.3292,3.307,3.2816,3.2422,3.167,3.0197,2.8838,2.7434,2.5628,2.379,2.2472,2.2557,2.3884,2.4301,2.1681,2.0214,1.8832,1.7087,1.5294,1.3792,1.2759,1.1424,1.0445,1.0167,1.0472,1.0822,1.111,1.1164,1.1197,1.1225,1.0913,1.0827,1.1126,1.0936,1.0149,0.8745,0.844,0.7556,0.5939,0.5908,0.5724,0.5418,0.394,0.3048,0.2712,0.2219,0.2157,0.0,3.0037,0.0,3.7565,3.7348,3.6264,0.0,0.0,3.4863,3.5332,3.5109,3.5008,3.5504,3.5562,3.544,3.5028,3.4718,3.4477,3.4405,3.3727,3.3248,3.3248,3.2881,3.2625,3.2625,3.2625,3.2625,3.2588,3.2907,3.3107,3.3121,3.3373,3.3237,3.2562,3.2511,3.2195,3.1483,3.1446,3.1428,3.141,3.141,3.141,3.141,3.141,3.1442,3.1474,3.1474,3.2033,3.2905,3.2262,3.1942,3.1974,3.223,3.1538,3.0567,3.2243,3.2001,3.1116,3.2797,3.3355,3.3386,3.3386,3.3197,3.2994,3.3292,3.2962,3.2453,3.2422,3.1717,3.0578,2.8867,2.758,2.6088,2.3415,2.2384,2.1874,2.1321,2.1776,2.1587,1.9152,1.8864,1.7871,1.4184,1.344,1.2446,0.9763,0.9006,0.8695,0.8635,0.9831,1.1108,1.221,1.2821,1.2935,1.2376,1.1683,1.1526,1.2083,1.1299,1.0482,0.9741,0.8806,0.7556,0.5939,0.5908,0.6184,0.6797,0.4803,0.4158,0.4711,0.2866,0.265,0.0,0.0,0.0,3.4775,3.4937,3.448,3.5887,3.5211,3.4446,3.4863,3.4644,3.4403,3.4356,3.4765,3.4895,3.4308,3.41,3.3818,3.3302,3.3019,3.2826,3.2826,3.2459,3.2221,3.2221,3.2221,3.221,3.2148,3.2483,3.2782,3.2954,3.2682,3.2477,3.2456,3.2018,3.1653,3.141,3.141,3.141,3.1377,3.0487,3.0065,3.0033,2.9084,2.8641,2.8706,2.9867,3.1102,3.2243,3.2006,3.2038,3.2134,3.1377,3.0876,3.0599,3.0322,3.003,2.9867,3.0484,3.129,3.2046,3.2046,3.2575,3.3197,3.3102,3.2912,3.2435,3.1134,3.0307,2.9191,2.6584,2.4316,2.1997,1.9068,1.8419,1.8585,1.9004,1.9304,1.9335,1.8908,1.7882,1.643,1.4366,1.3842,1.3341,1.2314,1.2438,1.2627,1.2611,1.3078,1.3728,1.4563,1.3847,1.3563,1.4221,1.2993,1.2475,1.3114,1.2234,1.1329,1.0482,0.9481,0.8385,0.7194,0.7194,0.6674,0.5602,0.4466,0.382,0.3664,0.3358,0.394,2.6003,0.0,0.0,0.0,3.2786,3.2573,3.4463,3.4155,3.3567,3.4005,3.3939,3.3745,3.3567,3.3857,3.3969,3.3471,3.34,3.3221,3.2676,3.2478,3.2404,3.2404,3.2038,3.1799,3.1799,3.1897,3.1949,3.1915,3.2365,3.2706,3.2899,3.2581,3.239,3.239,3.1731,3.141,3.141,3.141,3.141,3.1377,2.9967,2.9297,2.9232,2.7784,2.7105,2.7221,2.9001,3.034,3.1249,3.1942,3.2358,3.2453,3.1148,3.0484,3.016,2.9215,2.8723,2.8625,2.9574,3.0516,3.1387,3.1835,3.2174,3.2333,3.2237,3.163,3.0678,2.9263,2.8048,2.6396,2.3289,2.0039,1.7051,1.5029,1.5349,1.6365,1.7281,1.8033,1.8547,1.8504,1.7238,1.5759,1.4422,1.4039,1.3842,1.3711,1.4193,1.4688,1.5077,1.4938,1.508,1.5836,1.4687,1.4182,1.4993,1.381,1.3084,1.3204,1.2573,1.1631,1.0338,0.967,0.8848,0.7933,0.7903,0.7255,0.5908,0.5233,0.4585,0.4002,0.4616,0.5628,0.0,0.0,0.0,0.0,0.0,0.0,3.4098,3.3479,3.2307,3.277,3.2925,3.3019,3.3161,3.2836,3.2551,3.2551,3.257,3.257,3.257,3.2239,3.1983,3.1983,3.1634,3.141,3.141,3.1717,3.1929,3.191,3.2549,3.288,3.2912,3.3197,3.307,3.2422,3.1763,3.141,3.141,3.141,3.141,3.1377,2.9967,2.9297,2.9232,2.7784,2.7105,2.7205,2.9001,2.9802,2.9965,3.2033,3.2899,3.2785,3.1675,3.0419,2.9149,2.9117,2.8229,2.7403,3.0175,3.1143,3.1419,3.2765,3.1886,3.0304,3.0578,2.8967,2.7039,2.6906,2.4938,2.2065,1.886,1.4861,1.1658,1.1684,1.3578,1.5564,1.6375,1.815,1.9188,1.7797,1.6958,1.5921,1.4143,1.3866,1.3777,1.3374,1.3678,1.4358,1.5501,1.5057,1.5027,1.595,1.544,1.4922,1.465,1.4043,1.3234,1.2234,1.2144,1.1269,0.9366,0.9244,0.8818,0.7903,0.7903,0.7933,0.7933,0.7255,0.6613,0.597,0.6674,0.7647,2.397,0.0,0.0,0.0,0.0,0.0,0.0,3.0987,3.1467,3.1963,3.2156,3.2265,3.2252,3.1986,3.1708,3.1708,3.1964,3.2056,3.1763,3.1648,3.1575,3.1575,3.1483,3.1506,3.175,3.1846,3.2102,3.2581,3.2804,3.3026,3.326,3.3102,3.274,3.207,3.1846,3.1653,3.141,3.141,3.141,3.1377,2.9967,2.9297,2.9232,2.7784,2.7105,2.7205,2.9263,3.003,2.9932,3.1777,3.2549,3.2422,3.1083,2.9722,2.8378,2.7618,2.6435,2.536,2.6453,2.7436,2.8328,2.8723,2.9149,2.923,2.7719,2.6778,2.5613,2.2733,2.0323,1.7542,1.2756,1.1238,1.1033,1.1289,1.2627,1.4553,1.7055,1.8407,1.8984,1.8343,1.7281,1.6019,1.4511,1.4063,1.394,1.4086,1.4838,1.5706,1.6518,1.6454,1.6562,1.718,1.6029,1.5227,1.5264,1.3635,1.2414,1.1941,1.0755,0.9852,0.9305,0.8172,0.7683,0.7903,0.808,0.8416,0.8909,0.8233,0.7714,0.7378,0.8471,0.9195,0.0,0.0,0.0,0.0,0.0,0.0,2.9014,2.9929,3.0464,3.0406,3.1,3.1368,3.1003,3.0783,3.0767,3.1116,3.1341,3.1469,3.1428,3.141,3.141,3.141,3.1506,3.1685,3.1896,3.2134,3.2485,3.2867,3.3038,3.3197,3.3386,3.2943,3.2517,3.2102,3.1846,3.1621,3.141,3.141,3.141,3.1377,2.9967,2.9297,2.9232,2.7784,2.7105,2.7205,2.923,2.99,2.9722,3.1474,3.2262,3.2262,3.0843,2.9428,2.8048,2.6835,2.5611,2.4631,2.5442,2.6334,2.712,2.7072,2.7122,2.6692,2.3964,2.2632,2.1304,1.7823,1.5402,1.3108,0.9838,1.0027,1.115,1.1355,1.3495,1.5966,1.7818,1.862,1.8908,1.8568,1.7625,1.6333,1.4479,1.3866,1.3604,1.353,1.4184,1.4767,1.508,1.5232,1.5393,1.5587,1.4504,1.3797,1.3878,1.1979,1.0559,0.999,0.9055,0.8324,0.7897,0.698,0.6919,0.7872,0.805,0.8873,1.0338,0.9663,0.9329,0.9329,0.9657,1.0112,2.6358,2.6767,0.0,0.0,2.8166,0.0,2.93,2.9663,2.942,2.8638,2.9593,3.0305,2.9527,2.9398,2.9626,3.0278,3.0554,3.0867,3.1336,3.141,3.141,3.141,3.1717,3.191,3.1942,3.2549,3.2931,3.2943,3.3228,3.3386,3.3386,3.2804,3.2453,3.239,3.1795,3.1442,3.141,3.141,3.141,3.1377,3.013,2.9526,2.9493,2.818,2.7585,2.7685,2.9313,2.9852,2.9641,3.1087,3.1814,3.1923,3.0682,2.9232,2.7717,2.6501,2.5341,2.4563,2.5883,2.6437,2.6555,2.6559,2.5293,2.3168,1.9943,1.7798,1.5915,1.3169,1.1121,0.9673,0.9252,1.0564,1.199,1.199,1.5226,1.8384,1.8512,1.8672,1.862,1.8127,1.7441,1.6205,1.3905,1.2964,1.2347,1.1714,1.1904,1.204,1.1894,1.2314,1.2507,1.2194,1.1729,1.1395,1.1256,0.9662,0.8276,0.7403,0.7281,0.6823,0.5939,0.597,0.6613,0.7872,0.8177,0.9542,1.1941,1.1216,1.1057,1.142,1.0324,1.0452,2.7969,2.8426,2.9244,2.8262,0.0,0.0,2.7817,2.8491,2.9083,2.8019,2.8375,2.8731,2.8252,2.8145,2.8103,2.8004,2.9121,3.0319,3.1272,3.141,3.141,3.141,3.1717,3.2025,3.2294,3.2676,3.3007,3.3292,3.3355,3.3386,3.3386,3.3007,3.2676,3.2422,3.2006,3.1685,3.141,3.141,3.141,3.141,3.112,3.0991,3.0972,3.0682,3.0567,3.0617,3.1216,3.1313,3.094,3.0437,3.008,2.9902,2.9591,2.7899,2.5614,2.5614,2.4786,2.3747,2.4597,2.4162,2.3297,2.3542,2.1979,1.9577,1.7372,1.6269,1.5088,1.1963,1.1234,1.1142,0.9823,1.1639,1.3802,1.3802,1.5592,1.7581,1.8684,1.8052,1.6872,1.541,1.4113,1.2914,1.1891,0.9501,0.7688,0.7578,0.7607,0.773,0.7964,0.9333,0.9848,0.8787,0.9793,1.0148,0.9094,0.8197,0.7495,0.7041,0.6491,0.6088,0.5908,0.6429,0.7072,0.7872,0.9967,1.1661,1.2934,1.1752,1.1631,1.2384,1.0626,0.993,2.9556,2.9484,2.9965,2.9436,0.0,0.0,0.0,2.8539,2.8689,2.7988,2.8032,2.8158,2.7984,2.7362,2.7066,2.7504,2.8327,2.9076,2.9576,3.0798,3.1593,3.1593,3.1678,3.1828,3.1984,3.2327,3.2607,3.2793,3.2793,3.2793,3.2793,3.2539,3.2276,3.2119,3.1798,3.157,3.141,3.141,3.141,3.141,3.141,3.141,3.141,3.141,3.141,3.141,3.1589,3.1557,3.1313,3.0048,2.9018,2.8196,2.8196,2.6904,2.5008,2.5177,2.4481,2.3338,2.2983,2.2593,2.2065,2.0743,1.9565,1.8138,1.5394,1.3399,1.1992,1.1419,1.153,1.1952,1.2372,1.4447,1.6561,1.7236,1.8497,1.9757,2.0613,1.8732,1.6303,1.4192,1.122,0.8999,0.8833,0.7184,0.5826,0.5619,0.5319,0.5152,0.5345,0.6444,0.6954,0.6308,0.6702,0.6955,0.6819,0.5664,0.5076,0.5391,0.5083,0.4899,0.4899,0.6031,0.7495,0.9323,1.142,1.2513,1.2513,1.1541,1.1291,1.1714,0.9771,0.886,0.0,0.0,0.0,0.0,0.0,2.9469,0.0,0.0,0.0,2.7966,2.7678,2.7522,0.0,0.0,2.5678,2.665,2.7129,2.7354,2.7259,2.9326,3.0884,3.0914,3.1188,3.1331,3.1235,3.1519,3.1827,3.2179,3.1885,3.1816,3.2088,3.1853,3.1652,3.1589,3.1384,3.13,3.13,3.1373,3.141,3.141,3.141,3.141,3.141,3.141,3.141,3.141,3.141,3.1249,3.0876,2.9461,2.8031,2.6688,2.6373,2.5584,2.4568,2.4249,2.3584,2.2709,2.1596,2.1239,2.0928,1.8484,1.7564,1.6817,1.3778,1.1344,0.9995,1.1854,1.2659,1.3427,1.5407,1.7346,1.908,2.0189,2.1006,2.1538,2.1591,1.8613,1.5174,1.2743,0.8486,0.5392,0.573,0.5058,0.432,0.3921,0.3421,0.3052,0.2985,0.3749,0.4178,0.3911,0.3651,0.3717,0.4331,0.3224,0.2837,0.3579,0.3797,0.3889,0.3889,0.5751,0.8033,1.074,1.2204,1.2453,1.1518,1.0407,1.0067,1.0468,0.8465,0.752,0.0,0.0,0.0,0.0,3.2154,0.0,0.0,0.0,2.8802,2.7355,0.0,0.0,0.0,0.0,0.0,0.0,0.0,0.0,2.4839,2.6398,2.7605,2.7803,2.9432,3.0372,2.9978,2.9907,3.0537,3.2081,3.0771,3.0431,3.1695,3.1443,3.1124,3.0816,3.0832,3.0846,3.0846,3.1226,3.141,3.141,3.141,3.141,3.141,3.141,3.141,3.141,3.141,3.0682,2.9428,2.7949,2.6522,2.5094,2.3786,2.3236,2.2962,2.1596,2.101,2.0941,2.1148,1.975,1.7805,1.7469,1.5693,1.355,1.2578,1.2607,1.3159,1.4089,1.5774,1.7346,1.7615,1.8804,1.9979,2.0094,1.9775,1.9188,1.8288,1.5022,1.1574,0.9096,0.5608,0.3153,0.3519,0.2182,0.0941,0.0605,0.0471,0.0336,0.0034,0.1411,0.1915,0.0672,0.1866,0.2382,0.1546,0.2101,0.256,0.2652,0.3425,0.3889,0.3889,0.6604,0.8952,1.0755,1.1571,1.148,1.0459,0.7784,0.7505,0.9407,0.7159,0.6119,0.0,0.0,0.0,0.0,0.0,0.0,2.9725,0.0,2.8598,0.0,0.0,0.0,0.0,0.0,0.0,0.0,2.3298,0.0,0.0,0.0,2.5645,2.6975,0.0,2.8288,2.8851,2.8844,2.9364,3.0595,2.9746,2.9586,3.0537,3.0727,3.066,3.0375,3.0426,3.0552,3.0791,3.0956,3.1189,3.141,3.141,3.141,3.141,3.141,3.0843,2.9835,2.9835,2.9034,2.7618,2.6188,2.5364,2.4771,2.2416,2.21,2.2825,2.216,2.1368,2.0491,1.982,1.8425,1.6836,1.6088,1.489,1.361,1.2924,1.274,1.2896,1.346,1.4116,1.4981,1.6171,1.7077,1.8031,1.9419,1.8896,1.8052,1.7793,1.4206,1.0313,0.7847,0.4645,0.215,0.1445,0.0706,0.0168,0.0034,-0.0168,-0.0337,-0.0471,-0.0067,-0.0067,-0.0832,-0.0228,0.0193,0.0127,0.1061,0.188,0.2467,0.3394,0.4349,0.5325,0.6909,0.8556,1.0203,1.0098,0.9583,0.8617,0.6006,0.4936,0.5341,0.4367,0.3943,3.4607,0.0,0.0,0.0,0.0,0.0,0.0,0.0,0.0,0.0,0.0,0.0,0.0,0.0,0.0,0.0,0.0,2.218,0.0,2.2345,0.0,0.0,0.0,2.6269,2.7305,2.7207,2.7559,2.8816,2.8242,2.8334,2.9393,2.9782,2.9922,2.9807,2.9941,3.0167,3.0473,3.0571,3.0827,3.1244,3.1244,3.1075,3.0811,3.0714,2.9685,2.7999,2.79,2.7061,2.5683,2.466,2.4192,2.3924,2.1769,2.1318,2.1906,2.1667,2.0865,1.9715,1.8149,1.6842,1.5637,1.4648,1.4062,1.3629,1.2935,1.2598,1.2495,1.2717,1.2775,1.3054,1.4558,1.5135,1.5774,1.7504,1.7022,1.6012,1.5584,1.2132,0.8437,0.6037,0.3316,0.1076,0.0168,0.0,0.0,0.0,-0.0202,-0.037,-0.037,-0.0606,-0.0937,-0.1254,-0.1269,-0.1058,-0.0663,0.028,0.1356,0.256,0.3609,0.4807,0.6211,0.6543,0.7301,0.8581,0.7925,0.7129,0.6198,0.4018,0.261,0.197,0.2342,0.2498,0.0,0.0,0.0,3.2609,0.0,0.0,0.0,0.0,2.8803,0.0,0.0,0.0,0.0,0.0,0.0,0.0,0.0,0.0,0.0,0.0,0.0,0.0,0.0,0.0,2.5141,2.4437,2.4824,2.6934,2.5942,2.6234,2.853,2.8644,2.8763,2.9035,2.9409,2.9629,2.9647,3.002,3.0424,3.0809,3.0809,3.0323,2.933,2.8953,2.7851,2.6254,2.5878,2.4892,2.3609,2.3543,2.2883,2.1897,2.1794,2.0781,1.9312,1.8526,1.8228,1.7955,1.6269,1.4746,1.3455,1.3241,1.2932,1.2556,1.2002,1.2272,1.2783,1.2816,1.3259,1.3766,1.3831,1.3864,1.3896,1.3953,1.3439,1.2291,0.9897,0.7303,0.4848,0.2685,0.0807,-0.0337,-0.0034,0.0,0.0,0.0,0.0,0.0,0.0,-0.0034,-0.0167,-0.0495,-0.0521,-0.0642,-0.0948,-0.0062,0.1233,0.2868,0.4158,0.5172,0.5878,0.5311,0.5154,0.5525,0.4872,0.4077,0.3134,0.1445,0.0585,0.0585,0.191,0.2498,3.7637,3.8094,3.7974,3.4607,0.0,0.0,0.0,0.0,0.0,0.0,0.0,0.0,0.0,0.0,0.0,0.0,0.0,0.0,0.0,0.0,0.0,0.0,0.0,0.0,0.0,2.3887,2.4629,2.5644,2.6113,2.6795,2.7736,2.8625,2.8923,2.8619,2.8975,2.9335,2.9592,2.8865,2.868,2.9084,2.7957,2.7242,2.6907,2.6551,2.5436,2.3814,2.3669,2.2778,2.146,2.146,2.1391,2.1179,2.0245,1.9533,1.9036,1.9175,1.7904,1.5894,1.4301,1.3347,1.2801,1.2468,1.2249,1.1951,1.1269,1.1082,1.0975,1.0505,1.0333,1.0525,1.1219,1.0677,1.0141,1.0868,0.96,0.801,0.718,0.4818,0.2851,0.2821,0.178,0.084,0.074,0.1312,0.1446,0.0471,0.0337,0.0438,0.0707,0.0741,0.0567,0.0195,0.0162,0.0032,-0.0312,0.1359,0.2862,0.3853,0.5176,0.551,0.4619,0.48,0.4459,0.3505,0.2827,0.1997,0.1014,-0.0216,-0.1048,-0.1448,-0.0123,0.0863,3.8671,3.92,3.92,3.6361,3.5609,3.4646,3.1072,0.0,2.8202,0.0,0.0,0.0,0.0,0.0,0.0,0.0,0.0,0.0,0.0,1.8688,0.0,0.0,0.0,0.0,0.0,2.231,2.3069,2.4512,2.5005,2.5794,2.6985,2.7957,2.8463,2.8417,2.8773,2.8894,2.8678,2.7839,2.7275,2.7083,2.5977,2.5244,2.4741,2.4419,2.3324,2.166,2.1562,2.0952,2.01,2.01,2.0282,2.0481,1.9077,1.8139,1.7561,1.7185,1.5094,1.2323,1.183,1.1535,1.1383,1.149,1.1392,1.1122,1.0525,1.0087,0.9721,0.9217,0.8851,0.8751,0.9449,0.854,0.7598,0.8291,0.6856,0.5188,0.4654,0.3186,0.2083,0.2385,0.2217,0.1948,0.1849,0.2218,0.205,0.0706,0.0606,0.0808,0.1077,0.1072,0.096,0.0711,0.0674,0.0602,0.0371,0.2125,0.3354,0.3543,0.4773,0.4926,0.3638,0.3541,0.2956,0.1816,0.0677,-0.0308,-0.1077,-0.1727,-0.2498,-0.3328,-0.2218,-0.1415]},{"header":{"parameterUnit":"m.s-1","parameterCategory":1,"la1":30.6,"la2":29.2853,"lo1":-89.7004,"lo2":-87.6739,"dy":0.0162,"dx":0.0183,"nx":112,"ny":82,"refTime":"2024-09-07T18:00:00:Z","depth":0,"parameterNumber":3,"parameterNumberName":"V-component_of_WINDS"},"data":[0.0,0.0,0.0,0.0,0.0,0.0,0.0,0.0,0.0,0.0,0.0,0.0,0.0,0.0,0.0,0.0,0.0,0.0,0.0,0.0,0.0,0.0,0.0,0.0,0.0,0.0,0.0,0.0,0.0,0.0,0.0,0.0,0.0,0.0,0.0,0.0,0.0,0.0,0.0,0.0,0.0,0.0,0.0,0.0,0.0,0.0,0.0,0.0,0.0,0.0,0.0,0.0,0.0,0.0,0.0,0.0,0.0,0.0,0.0,0.0,0.0,0.0,0.0,0.0,0.0,0.0,0.0,0.0,0.0,0.0,0.0,0.0,0.0,0.0,0.0,0.0,0.0,0.0,0.0,0.0,0.0,0.0,0.0,0.0,0.0,0.0,0.0,0.0,0.0,0.0,2.8342,3.0973,3.5779,3.8818,3.8765,3.7927,3.5038,2.947,0.0,0.0,0.0,0.0,0.0,0.0,0.0,0.0,0.0,0.0,0.0,0.0,0.0,0.0,0.0,0.0,0.0,0.0,0.0,0.0,0.0,0.0,0.0,0.0,0.0,0.0,0.0,0.0,0.0,0.0,0.0,0.0,0.0,0.0,0.0,0.0,0.0,0.0,0.0,0.0,0.0,0.0,0.0,0.0,0.0,0.0,0.0,0.0,0.0,0.0,0.0,0.0,0.0,0.0,0.0,0.0,0.0,0.0,0.0,0.0,0.0,0.0,0.0,0.0,0.0,0.0,0.0,0.0,0.0,0.0,0.0,0.0,0.0,0.0,0.0,0.0,0.0,0.0,0.0,0.0,0.0,0.0,0.0,0.0,0.0,0.0,0.0,0.0,0.0,0.0,0.0,0.0,0.0,0.0,0.0,0.0,0.0,0.0,0.0,0.0,0.0,0.0,0.0,0.0,2.9149,3.5672,3.8174,3.9285,3.9078,3.7661,3.4649,2.9598,0.0,0.0,0.0,0.0,0.0,0.0,0.0,0.0,0.0,0.0,0.0,0.0,0.0,0.0,0.0,0.0,0.0,0.0,0.0,0.0,0.0,0.0,0.0,0.0,0.0,0.0,0.0,0.0,0.0,0.0,0.0,0.0,0.0,0.0,0.0,0.0,0.0,0.0,0.0,0.0,0.0,0.0,0.0,0.0,0.0,0.0,0.0,0.0,0.0,0.0,0.0,0.0,0.0,0.0,0.0,0.0,0.0,0.0,0.0,0.0,0.0,0.0,0.0,0.0,0.0,0.0,0.0,0.0,0.0,0.0,0.0,0.0,0.0,0.0,0.0,0.0,0.0,0.0,0.0,0.0,0.0,0.0,0.0,0.0,0.0,0.0,0.0,0.0,0.0,0.0,0.0,0.0,0.0,0.0,0.0,0.0,0.0,0.0,0.0,0.0,0.0,0.0,0.0,2.7785,3.098,3.7441,3.8699,3.8843,3.8264,3.7156,3.4188,2.876,2.6057,0.0,0.0,0.0,0.0,0.0,0.0,0.0,0.0,0.0,0.0,0.0,0.0,0.0,0.0,0.0,0.0,0.0,0.0,0.0,0.0,0.0,0.0,0.0,0.0,0.0,0.0,0.0,0.0,0.0,0.0,0.0,0.0,0.0,0.0,0.0,0.0,0.0,0.0,0.0,0.0,0.0,0.0,0.0,0.0,0.0,0.0,0.0,0.0,0.0,0.0,0.0,0.0,0.0,0.0,0.0,0.0,0.0,0.0,0.0,0.0,0.0,0.0,0.0,0.0,0.0,0.0,0.0,0.0,0.0,0.0,0.0,0.0,0.0,0.0,0.0,0.0,0.0,0.0,0.0,0.0,0.0,0.0,0.0,0.0,0.0,0.0,0.0,0.0,0.0,0.0,0.0,0.0,0.0,0.0,0.0,0.0,0.0,0.0,0.0,0.0,0.0,0.0,3.1248,3.344,3.8204,3.8681,3.8358,3.7566,3.6413,3.343,2.8023,2.4886,0.0,0.0,0.0,0.0,0.0,0.0,0.0,0.0,0.0,0.0,0.0,0.0,0.0,0.0,0.0,0.0,0.0,0.0,0.0,0.0,0.0,0.0,0.0,0.0,0.0,0.0,0.0,0.0,0.0,0.0,0.0,0.0,0.0,0.0,0.0,0.0,0.0,0.0,0.0,0.0,0.0,0.0,0.0,0.0,0.0,0.0,0.0,0.0,0.0,0.0,0.0,0.0,0.0,0.0,0.0,0.0,0.0,0.0,0.0,0.0,0.0,0.0,0.0,0.0,0.0,0.0,0.0,0.0,0.0,0.0,0.0,0.0,0.0,0.0,0.0,0.0,0.0,0.0,0.0,0.0,0.0,0.0,0.0,0.0,0.0,0.0,0.0,0.0,0.0,0.0,0.0,0.0,0.0,0.0,0.0,0.0,0.0,0.0,0.0,0.0,0.0,0.0,3.3063,3.6597,3.8505,3.8681,3.8358,3.7566,3.532,3.2188,2.7981,2.3271,0.0,0.0,0.0,0.0,0.0,0.0,0.0,0.0,0.0,0.0,0.0,0.0,0.0,0.0,0.0,0.0,0.0,0.0,0.0,0.0,0.0,0.0,0.0,0.0,0.0,0.0,0.0,0.0,0.0,0.0,0.0,0.0,0.0,0.0,0.0,0.0,0.0,0.0,0.0,0.0,0.0,0.0,0.0,0.0,0.0,0.0,0.0,0.0,0.0,0.0,0.0,0.0,0.0,0.0,0.0,0.0,0.0,0.0,0.0,0.0,0.0,0.0,0.0,0.0,0.0,0.0,0.0,0.0,0.0,0.0,0.0,0.0,0.0,0.0,0.0,0.0,0.0,0.0,0.0,0.0,0.0,0.0,0.0,0.0,0.0,0.0,0.0,0.0,0.0,0.0,0.0,0.0,0.0,0.0,0.0,0.0,0.0,0.0,0.0,0.0,0.0,0.0,3.2183,3.5195,0.0,3.8256,3.7632,3.6824,3.4889,3.1796,2.7225,0.0,0.0,0.0,0.0,0.0,0.0,0.0,0.0,0.0,0.0,0.0,0.0,0.0,0.0,0.0,0.0,0.0,0.0,0.0,0.0,0.0,0.0,0.0,0.0,0.0,0.0,0.0,0.0,0.0,0.0,0.0,0.0,0.0,0.0,0.0,0.0,0.0,0.0,0.0,0.0,0.0,0.0,0.0,0.0,0.0,0.0,0.0,0.0,0.0,0.0,0.0,0.0,0.0,0.0,0.0,0.0,0.0,0.0,0.0,0.0,0.0,0.0,0.0,0.0,0.0,0.0,0.0,0.0,0.0,0.0,0.0,0.0,0.0,0.0,0.0,0.0,0.0,0.0,0.0,0.0,0.0,0.0,0.0,0.0,0.0,0.0,0.0,0.0,0.0,0.0,0.0,0.0,0.0,0.0,0.0,0.0,0.0,0.0,0.0,0.0,0.0,0.0,2.9362,3.2263,3.5048,0.0,3.7962,3.7162,3.6384,3.4209,3.0965,2.639,0.0,0.0,0.0,0.0,0.0,0.0,0.0,0.0,0.0,0.0,0.0,0.0,0.0,0.0,0.0,0.0,0.0,0.0,0.0,0.0,0.0,0.0,0.0,0.0,0.0,0.0,0.0,0.0,0.0,0.0,0.0,0.0,0.0,0.0,0.0,0.0,0.0,0.0,0.0,0.0,0.0,0.0,0.0,0.0,0.0,0.0,0.0,0.0,0.0,0.0,0.0,0.0,0.0,0.0,0.0,0.0,0.0,0.0,0.0,0.0,0.0,0.0,0.0,0.0,0.0,0.0,0.0,0.0,0.0,0.0,0.0,0.0,0.0,0.0,0.0,0.0,0.0,0.0,0.0,0.0,0.0,0.0,0.0,0.0,0.0,0.0,0.0,0.0,0.0,0.0,0.0,0.0,0.0,0.0,0.0,0.0,0.0,0.0,0.0,0.0,0.0,0.0,2.9582,3.3743,3.6927,3.8534,3.7962,3.7162,3.6376,3.3149,2.9503,0.0,0.0,0.0,0.0,0.0,0.0,0.0,0.0,0.0,0.0,0.0,0.0,0.0,0.0,0.0,0.0,0.0,0.0,0.0,0.0,0.0,0.0,0.0,0.0,0.0,0.0,0.0,0.0,0.0,0.0,0.0,0.0,0.0,0.0,0.0,0.0,0.0,0.0,0.0,0.0,0.0,0.0,0.0,0.0,0.0,0.0,0.0,0.0,0.0,0.0,0.0,0.0,0.0,0.0,0.0,0.0,0.0,0.0,0.0,0.0,0.0,0.0,0.0,0.0,0.0,0.0,0.0,0.0,0.0,0.0,0.0,0.0,0.0,0.0,0.0,0.0,0.0,0.0,0.0,0.0,0.0,0.0,0.0,0.0,0.0,0.0,0.0,0.0,0.0,0.0,0.0,0.0,0.0,0.0,0.0,0.0,0.0,0.0,0.0,0.0,0.0,0.0,0.0,3.0406,3.4094,3.6927,3.8534,3.7477,3.6509,3.6186,3.3115,2.9697,2.6235,0.0,0.0,0.0,0.0,0.0,0.0,0.0,0.0,0.0,0.0,0.0,0.0,0.0,0.0,0.0,0.0,0.0,0.0,0.0,0.0,0.0,0.0,0.0,0.0,0.0,0.0,0.0,0.0,0.0,0.0,0.0,0.0,0.0,0.0,0.0,0.0,0.0,0.0,0.0,0.0,0.0,0.0,0.0,0.0,0.0,0.0,0.0,0.0,0.0,0.0,0.0,0.0,0.0,0.0,0.0,0.0,0.0,0.0,0.0,0.0,0.0,0.0,0.0,0.0,0.0,0.0,0.0,0.0,0.0,0.0,0.0,0.0,0.0,0.0,0.0,0.0,0.0,0.0,0.0,0.0,0.0,0.0,0.0,0.0,0.0,0.0,0.0,0.0,0.0,0.0,0.0,0.0,0.0,0.0,0.0,0.0,0.0,0.0,0.0,0.0,0.0,0.0,3.076,3.4254,3.6927,3.8534,3.7484,3.6531,3.6113,3.3651,3.0588,2.6985,0.0,0.0,0.0,0.0,0.0,0.0,0.0,0.0,0.0,0.0,0.0,0.0,0.0,0.0,0.0,0.0,0.0,0.0,0.0,0.0,0.0,0.0,0.0,0.0,0.0,0.0,0.0,0.0,0.0,0.0,0.0,0.0,0.0,0.0,0.0,0.0,0.0,0.0,0.0,0.0,0.0,0.0,0.0,0.0,0.0,0.0,0.0,0.0,0.0,0.0,0.0,0.0,0.0,0.0,0.0,0.0,0.0,0.0,0.0,0.0,0.0,0.0,0.0,0.0,0.0,0.0,0.0,0.0,0.0,0.0,0.0,0.0,0.0,0.0,0.0,0.0,0.0,0.0,0.0,0.0,0.0,0.0,0.0,0.0,0.0,0.0,0.0,0.0,0.0,0.0,0.0,0.0,0.0,0.0,0.0,0.0,0.0,0.0,0.0,0.0,0.0,0.0,3.0791,3.4328,3.7,3.8534,3.7871,3.6976,3.6179,3.4506,3.1838,2.7949,0.0,0.0,0.0,0.0,0.0,0.0,0.0,0.0,0.0,0.0,0.0,0.0,0.0,0.0,0.0,0.0,0.0,0.0,0.0,0.0,0.0,0.0,0.0,0.0,0.0,0.0,0.0,0.0,0.0,0.0,0.0,0.0,0.0,0.0,0.0,0.0,0.0,0.0,0.0,0.0,0.0,0.0,0.0,0.0,0.0,0.0,0.0,0.0,0.0,0.0,0.0,0.0,0.0,0.0,0.0,0.0,0.0,0.0,0.0,0.0,2.632,0.0,0.0,0.0,0.0,0.0,0.0,0.0,0.0,0.0,0.0,0.0,0.0,0.0,0.0,0.0,0.0,0.0,0.0,0.0,0.0,0.0,0.0,0.0,0.0,0.0,0.0,0.0,0.0,0.0,0.0,0.0,0.0,0.0,0.0,0.0,0.0,0.0,0.0,0.0,0.0,0.0,3.0851,3.4784,3.7632,3.8615,3.7871,3.6953,3.6104,3.4477,3.2289,2.9484,2.6096,0.0,0.0,0.0,0.0,0.0,0.0,0.0,0.0,0.0,0.0,0.0,0.0,0.0,0.0,0.0,0.0,0.0,0.0,0.0,0.0,0.0,0.0,0.0,0.0,0.0,0.0,0.0,0.0,0.0,0.0,0.0,0.0,0.0,0.0,0.0,0.0,0.0,0.0,0.0,0.0,0.0,0.0,0.0,0.0,0.0,0.0,0.0,0.0,0.0,0.0,0.0,0.0,0.0,0.0,0.0,0.0,0.0,0.0,0.0,0.0,2.9238,0.0,0.0,0.0,0.0,0.0,0.0,0.0,0.0,0.0,0.0,0.0,0.0,0.0,0.0,0.0,0.0,0.0,0.0,0.0,0.0,0.0,0.0,0.0,0.0,0.0,0.0,0.0,0.0,0.0,0.0,0.0,0.0,0.0,0.0,0.0,0.0,0.0,0.0,0.0,0.0,3.0949,3.4924,3.7815,3.8615,3.8201,3.7538,3.6658,3.5736,3.4171,3.1705,2.8876,0.0,0.0,0.0,0.0,0.0,0.0,0.0,0.0,0.0,0.0,0.0,0.0,0.0,0.0,0.0,0.0,0.0,0.0,0.0,0.0,0.0,0.0,0.0,0.0,0.0,0.0,0.0,0.0,0.0,0.0,0.0,0.0,0.0,0.0,0.0,0.0,0.0,0.0,0.0,0.0,0.0,0.0,0.0,0.0,0.0,0.0,0.0,0.0,0.0,0.0,0.0,0.0,0.0,3.5702,3.6563,3.7565,3.7979,3.9059,4.0502,3.8032,3.6571,3.557,3.209,0.0,0.0,0.0,0.0,0.0,0.0,0.0,0.0,0.0,0.0,0.0,0.0,0.0,0.0,0.0,0.0,0.0,0.0,0.0,0.0,0.0,0.0,0.0,0.0,3.4933,3.4376,2.8765,0.0,0.0,0.0,0.0,0.0,0.0,0.0,0.0,0.0,0.0,0.0,3.1821,3.5401,3.8036,3.8836,3.864,3.8152,3.727,3.7147,3.6152,3.3973,3.1808,2.9308,0.0,0.0,0.0,0.0,0.0,0.0,0.0,0.0,0.0,0.0,0.0,0.0,0.0,0.0,0.0,0.0,0.0,0.0,0.0,0.0,0.0,0.0,0.0,0.0,0.0,0.0,0.0,0.0,0.0,0.0,0.0,0.0,2.7945,2.9502,0.0,0.0,0.0,0.0,0.0,0.0,0.0,0.0,0.0,0.0,0.0,0.0,0.0,3.4984,3.7266,3.9173,4.0535,4.1333,4.3931,4.5244,4.5457,4.6622,4.7344,4.7593,4.765,0.0,3.83,3.701,0.0,0.0,0.0,0.0,0.0,0.0,0.0,0.0,0.0,0.0,0.0,0.0,0.0,0.0,0.0,0.0,0.0,0.0,0.0,0.0,0.0,0.0,3.9597,3.9473,3.9874,3.9672,0.0,3.3122,2.9329,2.8144,2.6364,0.0,0.0,0.0,0.0,0.0,0.0,0.0,3.5051,3.7301,3.8836,3.9651,3.8922,3.8088,3.7262,3.71,3.6568,3.5558,3.4537,3.3103,3.1245,2.8465,0.0,0.0,0.0,0.0,0.0,0.0,0.0,0.0,0.0,0.0,0.0,0.0,0.0,0.0,0.0,0.0,0.0,0.0,0.0,0.0,0.0,0.0,0.0,0.0,0.0,0.0,0.0,0.0,0.0,2.7033,2.9865,3.1059,3.0812,2.9912,0.0,0.0,0.0,0.0,0.0,0.0,0.0,0.0,0.0,3.9495,4.0045,4.1342,4.3587,4.4667,4.5423,4.5786,4.7552,4.8517,4.8825,4.944,4.9839,5.0104,4.9907,4.8008,4.4859,4.1981,3.9278,3.6654,0.0,0.0,0.0,0.0,3.3438,3.3626,3.6434,3.6925,3.6163,3.5187,0.0,0.0,0.0,0.0,0.0,0.0,0.0,3.4174,0.0,0.0,4.1476,4.3011,4.3519,4.343,4.2705,4.0275,3.7034,0.0,3.146,2.9465,2.5384,0.0,0.0,0.0,0.0,3.4334,3.6604,3.8731,3.9986,3.9865,3.9435,3.8834,3.7899,3.7746,3.7362,3.6516,3.6154,3.5181,3.3528,3.1174,2.8629,0.0,0.0,0.0,0.0,0.0,0.0,0.0,0.0,0.0,0.0,0.0,0.0,0.0,0.0,0.0,0.0,0.0,0.0,0.0,0.0,0.0,0.0,0.0,0.0,0.0,0.0,0.0,0.0,3.0164,3.2472,3.3145,3.4124,3.3794,0.0,0.0,0.0,0.0,0.0,0.0,3.79,3.9511,4.1881,4.5187,4.606,4.7351,4.9261,4.9226,4.9256,4.9465,5.0066,5.0636,5.1177,5.1376,5.1706,5.2038,5.146,5.1063,5.057,4.6373,4.3549,4.1562,3.9012,3.7604,3.7147,3.8186,3.8241,3.8244,4.1262,4.1861,4.1124,4.0198,3.8562,3.6432,3.3795,0.0,0.0,0.0,0.0,3.7366,4.0363,4.1858,4.3113,4.538,4.5913,4.5857,4.5562,4.4918,4.2923,0.0,3.6595,3.4866,3.0198,0.0,0.0,0.0,0.0,3.7014,3.8459,4.0096,4.0924,4.0467,4.0186,3.9665,3.8679,3.8609,3.8213,3.7357,3.7321,3.6645,3.5214,3.3412,3.1416,2.914,0.0,0.0,0.0,0.0,0.0,0.0,0.0,0.0,0.0,0.0,0.0,0.0,0.0,0.0,0.0,0.0,0.0,0.0,0.0,0.0,0.0,0.0,0.0,0.0,0.0,0.0,0.0,0.0,0.0,3.7851,3.9692,0.0,0.0,0.0,0.0,3.7739,3.9095,4.1144,4.4092,4.5649,4.7585,5.0059,5.0859,5.1712,5.2737,5.2016,5.1932,5.2561,5.2622,5.2966,5.3531,5.4309,5.4689,5.4713,5.4677,5.4206,5.3253,4.9746,4.7809,4.6805,4.4785,4.3558,4.299,4.3047,4.3135,4.3381,4.4668,4.4704,4.4216,4.4245,4.1945,3.9042,3.8552,3.7296,0.0,0.0,4.0369,4.2097,4.4853,4.6045,4.6567,4.6696,4.6742,4.6523,4.5758,4.4965,4.4062,0.0,4.1496,3.9689,3.7197,0.0,3.6127,3.6794,3.7154,3.8496,4.1654,4.1507,4.1364,4.2004,4.1297,4.04,3.9498,3.9385,3.8979,3.8182,3.8154,3.7756,3.6914,3.485,3.2928,3.13,2.6757,0.0,0.0,0.0,0.0,0.0,0.0,0.0,0.0,0.0,0.0,0.0,0.0,0.0,0.0,0.0,0.0,0.0,0.0,0.0,0.0,0.0,0.0,0.0,0.0,0.0,0.0,0.0,0.0,4.0898,4.2899,0.0,4.1096,4.2359,4.3451,4.3794,4.5997,4.8083,4.9759,5.0757,5.1958,5.3418,5.3737,5.4006,5.4327,5.4183,5.4465,5.5116,5.5699,5.6279,5.6904,5.6523,5.6391,5.6319,5.5341,5.4762,5.4387,5.3158,5.158,4.9798,4.8568,4.7922,4.7702,4.7713,4.7735,4.7767,4.7657,4.7464,4.709,4.5774,4.4058,4.2414,4.2205,4.1652,4.1302,4.2511,4.3321,4.4245,4.5963,4.6552,4.6917,4.7604,4.7787,4.7658,4.7344,4.709,4.667,4.5788,4.4263,4.2366,4.0019,4.0279,4.0394,3.9132,3.986,4.1168,4.2837,4.2785,4.246,4.2109,4.1721,4.0933,3.953,3.9431,3.8834,3.7502,3.743,3.6933,3.5879,3.4562,3.3438,3.2573,2.9652,2.6578,0.0,0.0,0.0,0.0,0.0,0.0,0.0,0.0,0.0,0.0,0.0,0.0,0.0,0.0,0.0,0.0,0.0,0.0,0.0,0.0,0.0,0.0,0.0,0.0,0.0,0.0,4.305,4.3547,4.6212,4.7338,4.5633,4.7471,4.8895,4.9161,5.102,5.252,5.3481,5.4164,5.4837,5.5539,5.5825,5.5996,5.6016,5.614,5.6543,5.7226,5.7774,5.8372,5.8981,5.83,5.8021,5.7949,5.6935,5.6343,5.6066,5.5776,5.4581,5.2818,5.2021,5.155,5.1296,5.1006,5.0753,5.039,4.9582,4.9137,4.8627,4.7082,4.6022,4.5304,4.4918,4.4806,4.4852,4.4953,4.5388,4.6008,4.6885,4.7386,4.7876,4.8563,4.8746,4.8654,4.8292,4.8258,4.813,4.755,4.6285,4.4721,4.2882,4.3503,4.3602,4.1722,4.2408,4.3204,4.3469,4.3454,4.3183,4.2466,4.2359,4.1651,3.9921,3.9182,3.8354,3.7246,3.6334,3.5734,3.5421,3.3688,3.2678,3.2632,3.0643,2.8423,2.594,0.0,0.0,0.0,0.0,0.0,0.0,0.0,0.0,0.0,0.0,0.0,0.0,0.0,0.0,0.0,0.0,0.0,0.0,0.0,0.0,0.0,0.0,0.0,3.9766,4.3278,4.6029,4.6013,4.984,5.1629,4.9491,5.1231,5.2879,5.3723,5.3807,5.4213,5.5113,5.585,5.6343,5.6544,5.7269,5.7732,5.7915,5.7912,5.819,5.8834,5.879,5.9083,5.9621,5.9612,5.9598,5.9585,5.9549,5.9079,5.8332,5.7536,5.674,5.5956,5.522,5.4472,5.3675,5.2878,5.2093,5.1224,5.0427,4.9619,4.888,4.836,4.8016,4.7601,4.6684,4.6766,4.6915,4.5987,4.6531,4.7457,4.7783,4.8732,4.9591,4.9601,4.961,4.938,4.8526,4.8333,4.8333,4.8296,4.7672,4.6902,4.6104,4.5957,4.5663,4.4883,4.4737,0.0,4.369,4.3543,4.3428,4.3233,4.3169,4.2432,4.0628,3.8771,3.7667,3.7487,3.5049,3.4278,3.5706,3.2397,3.0843,3.1595,2.9647,2.8658,2.8667,0.0,0.0,0.0,0.0,0.0,0.0,0.0,0.0,0.0,0.0,0.0,0.0,0.0,0.0,0.0,0.0,0.0,0.0,0.0,0.0,0.0,4.295,4.592,4.5633,4.8481,5.0768,5.1247,5.287,5.3753,5.33,5.4283,5.5088,5.5472,5.601,5.6504,5.6908,5.711,5.7303,5.7504,5.8229,5.8638,5.8693,5.9201,5.9554,5.9734,6.0202,6.0258,5.9891,5.9802,5.9473,5.8981,5.8414,5.801,5.7798,5.7571,5.7019,5.6333,5.5859,5.5571,5.5353,5.5136,5.382,5.2057,5.126,5.0825,5.0633,5.0574,5.0272,4.9753,4.9096,4.8314,4.7511,4.6767,4.6799,4.7129,4.7565,4.834,4.9107,4.9495,5.0041,5.0251,4.9417,4.9233,4.905,4.8406,4.8113,4.7893,4.7672,4.7159,4.6718,4.6452,4.5948,0.0,4.5268,4.4592,4.3907,4.3278,4.2541,4.155,4.0104,3.9017,3.8009,3.7062,3.5306,3.4637,3.5272,3.3835,3.32,3.358,3.2427,3.1307,0.0,0.0,0.0,0.0,0.0,0.0,0.0,0.0,0.0,0.0,0.0,0.0,0.0,0.0,0.0,0.0,0.0,0.0,0.0,0.0,0.0,0.0,4.7638,5.0416,5.1219,5.246,5.3569,5.4354,5.5103,5.5628,5.5833,5.6252,5.656,5.6764,5.7488,5.7965,5.817,5.8493,5.8717,5.8829,5.9235,5.9317,5.9013,5.9719,6.0247,6.0563,6.1222,6.1522,6.1361,6.0985,6.0397,5.9708,5.8936,5.841,5.8114,5.8114,5.7658,5.6907,0.0,0.0,0.0,0.0,5.4943,5.3385,5.2589,5.1898,5.1447,5.1863,5.1595,5.1074,5.1168,5.0647,4.9784,4.8531,4.8354,4.8482,4.8196,4.8576,4.9206,4.9874,5.0334,5.0523,5.0108,5.0008,4.9808,4.8994,4.882,0.0,4.837,4.7893,4.748,4.7149,4.6718,4.6269,4.5902,4.5361,4.4647,4.377,4.2945,4.1916,4.0431,3.9014,0.0,0.0,0.0,3.4484,3.4359,3.4226,0.0,0.0,0.0,0.0,0.0,0.0,0.0,0.0,3.1097,3.1066,0.0,0.0,0.0,0.0,0.0,0.0,0.0,0.0,0.0,0.0,0.0,0.0,0.0,0.0,0.0,0.0,5.2391,5.4387,5.605,5.5572,5.5302,5.5988,5.6767,5.7315,5.7461,5.7547,5.7655,5.7894,5.85,5.8946,5.9115,0.0,0.0,0.0,0.0,5.9911,5.925,5.9985,6.0583,6.1085,6.184,6.2408,6.2789,6.2311,6.1683,6.0951,6.0301,5.955,5.8803,5.8803,5.8314,5.744,5.6856,5.6614,5.6545,5.6271,5.5811,5.5172,5.4278,0.0,0.0,5.2792,5.2495,5.2047,5.2896,5.3075,5.2655,5.0868,5.0696,5.0747,4.9356,4.9326,4.9787,5.0336,5.0498,5.0555,5.0561,5.0665,5.0523,4.9865,4.9637,4.9344,4.86,4.8379,4.8076,4.7333,4.7213,4.6928,4.6157,4.5899,4.5429,4.4447,4.3816,0.0,4.109,3.8992,3.8008,3.8642,3.6536,3.489,3.4093,3.4857,3.5508,3.5954,3.6162,3.7777,4.0895,3.9846,3.9986,4.1049,3.4822,3.4153,0.0,0.0,0.0,0.0,0.0,0.0,0.0,0.0,0.0,0.0,0.0,0.0,0.0,0.0,0.0,5.2289,5.4775,5.6849,5.8333,5.8536,5.8184,5.7133,5.8214,5.8856,5.8478,5.8978,5.941,5.9599,5.9753,5.984,5.9911,6.0013,6.0114,6.0114,6.0723,6.0994,6.0858,6.1542,6.1364,6.0327,0.0,0.0,5.9862,6.0912,6.0978,6.0291,6.0154,5.9643,5.8978,5.8978,5.816,5.6986,5.7333,5.7789,5.8152,5.7463,5.7506,5.7678,5.6237,5.5594,5.5383,5.5012,5.4352,5.3763,5.4041,5.367,0.0,5.2679,5.2674,5.2328,5.067,5.0791,5.1031,4.9758,5.0446,5.1201,5.0566,5.1041,5.1334,5.056,4.9981,4.9537,4.938,4.8783,4.826,4.8076,4.8009,4.7924,4.7758,4.6643,4.5558,4.4715,4.3491,4.217,4.0863,3.9779,3.9363,3.9753,3.9867,3.9568,3.8833,4.0062,4.0556,4.0058,4.0154,4.0241,4.0351,4.0178,4.0542,4.133,3.9924,3.9727,0.0,0.0,0.0,0.0,0.0,0.0,0.0,0.0,0.0,0.0,0.0,4.4852,4.752,0.0,5.3246,5.635,5.7861,5.8984,5.9948,6.0483,6.0216,5.8738,5.9209,5.9561,5.9407,5.9726,5.9967,6.008,6.0486,6.0689,6.0689,6.1061,6.1434,6.1806,6.2192,6.2212,6.1839,6.2191,6.199,6.126,6.1968,6.1725,6.0747,6.1472,6.1184,6.0114,6.0114,5.9911,5.9539,5.9148,5.8337,5.7345,5.7278,5.7869,5.8781,5.9125,5.9223,5.9049,5.7923,5.7328,5.7118,5.7176,5.6429,5.5606,5.6065,5.5647,5.4818,5.3946,5.3972,5.3913,5.2137,5.1963,5.1981,5.1115,5.1169,5.1449,5.1493,5.1602,5.1589,5.1287,5.0988,5.0565,4.9757,4.9019,4.848,4.8273,4.7975,4.7762,4.7648,4.676,4.5772,4.4876,4.3921,4.293,4.1948,4.1302,4.1031,4.1196,4.1555,4.1576,4.1238,4.1914,4.2153,4.1826,4.1506,4.1336,4.1336,4.0704,4.1039,4.225,4.1877,4.174,0.0,0.0,0.0,0.0,0.0,0.0,0.0,3.8432,4.0927,4.4156,4.7304,5.041,5.3533,5.4934,5.6696,5.9964,6.0718,6.1046,6.1573,6.2008,6.1858,6.0652,6.0391,6.0351,6.052,6.0689,6.0825,6.096,6.1569,6.1941,6.1941,6.2482,6.3091,6.368,6.3714,6.3362,6.2618,6.2741,6.2661,6.2399,6.2545,6.2545,6.2399,6.2399,6.1636,6.0317,6.0182,6.0182,6.0283,5.952,5.8795,5.8069,5.7604,5.8032,5.8999,6.006,6.0237,5.9891,5.9175,5.8491,5.802,5.8653,5.7946,5.7015,5.7778,5.7446,5.6531,5.5271,5.5249,5.5252,5.3647,5.3145,5.2992,5.2654,5.2161,5.1933,5.247,5.2338,5.2105,5.2044,5.2014,5.1552,5.0151,4.9372,4.8777,4.8138,4.7569,4.7146,4.6959,4.6436,4.5804,4.5051,4.4577,4.3932,4.3151,4.2728,4.2523,4.2523,4.2672,4.274,4.274,4.274,4.2737,4.2725,4.2076,4.1985,4.2505,4.1308,4.1425,4.2805,4.2254,4.2253,2.9162,3.0224,3.2751,3.8179,3.8524,3.9803,0.0,4.8482,4.8081,5.287,5.4683,5.582,5.7072,5.8594,6.0018,6.1084,6.2198,6.3134,6.3835,6.3586,6.3286,6.3119,6.2465,6.2053,6.212,6.2753,6.3396,6.4038,6.4174,6.4241,6.4241,6.4309,6.4377,6.4478,6.4478,6.414,6.3376,6.3961,6.3642,6.2402,6.3003,6.2984,6.2402,6.2402,6.1937,6.1129,6.0419,6.052,6.1095,6.0317,5.9539,5.8918,5.9505,5.9495,5.9089,5.8609,5.935,6.0505,5.9685,5.8973,5.8421,5.8385,5.777,5.7181,5.7821,5.7446,5.6898,5.7296,5.6969,5.6204,5.506,5.4723,5.4372,5.2889,5.3091,5.3415,5.2747,5.328,5.369,5.3017,5.2381,5.1778,5.1151,5.024,4.9128,4.7712,4.6979,4.6566,4.6424,4.5813,4.5356,4.526,4.4838,4.4224,4.3403,4.3315,4.3288,4.3288,4.3944,4.4344,4.4344,4.4344,4.421,4.392,4.3254,4.2815,4.2601,4.1835,4.1572,4.1769,4.1687,4.2301,3.6446,3.7582,3.904,4.2941,4.4571,4.645,5.1075,5.1852,5.2534,5.5869,5.7608,5.8773,5.9724,6.0843,6.2053,0.0,6.4148,6.4617,6.5044,6.4552,6.3835,6.2956,6.2571,6.2527,6.2976,6.3328,6.3815,6.4546,6.4613,6.4613,6.4613,6.4613,6.4783,6.5222,6.5222,6.5087,6.4783,6.5073,6.4461,6.3057,6.3766,6.3509,6.2434,6.3294,6.3294,6.2564,6.2226,6.2042,6.1873,6.1095,6.0622,6.0268,5.9688,5.9378,5.9269,5.9437,5.9999,6.0676,6.041,6.0397,6.0456,6.0427,5.9774,5.9042,5.9237,5.8075,5.6722,5.6841,5.6635,5.6235,5.5728,5.5922,5.6006,5.4918,5.459,5.4467,5.4173,5.3773,5.3452,5.3281,5.2697,5.1903,5.0891,5.0053,4.9128,4.7909,4.7071,4.6339,4.5794,4.5214,4.4893,4.4893,4.472,4.4465,4.4127,4.4079,4.4079,4.4079,4.4481,4.4706,4.4706,4.4789,4.4449,4.3669,4.3353,4.2819,4.2013,4.1753,4.1835,4.2285,4.2285,4.2848,4.0819,4.2468,4.3966,4.6855,4.963,5.192,5.3119,5.4505,5.6076,5.7899,5.9231,6.0436,6.1582,6.2629,6.3801,6.5168,6.5812,6.6104,6.6021,6.5189,6.4208,6.3125,6.2651,6.2685,6.3409,6.368,6.4187,6.5155,6.5222,6.5222,6.5222,6.5222,6.5459,6.5967,6.6,6.5899,6.5717,6.5899,6.5358,6.4106,6.4647,6.4343,6.3348,6.4005,6.3984,6.3477,6.3071,6.2719,6.2347,6.1603,6.1298,6.1197,6.0061,5.9516,5.9352,5.9953,6.0177,6.0172,6.0278,6.0766,6.1401,6.157,6.1247,6.0798,6.0628,5.9163,5.7482,5.7025,5.6746,5.654,5.6369,5.6816,5.7168,5.6661,5.6019,5.5474,5.5352,5.4419,5.3492,5.3243,5.281,5.2042,5.0652,4.9983,4.9269,4.8176,4.741,4.6584,4.5527,4.4933,4.4615,4.4615,4.4615,4.4615,4.4615,4.4643,4.4671,4.4671,4.4776,4.4858,4.4858,4.4954,4.4575,4.3665,4.3517,4.3004,4.2061,4.1948,4.2238,4.294,4.294,4.3434,3.9658,4.2348,4.6048,5.0278,5.332,5.5611,5.6995,5.8078,5.9026,6.0011,6.0251,6.0792,6.2429,6.4213,6.5431,6.5407,6.6819,6.7656,6.6883,6.5527,6.458,6.4546,6.326,6.2685,0.0,6.414,6.5189,6.6622,6.6724,6.6724,6.6724,6.6724,6.6724,6.6757,6.6757,6.644,6.5717,6.6406,6.6406,6.5649,6.5683,6.5649,6.5547,6.4174,6.3511,6.3409,6.2009,6.1772,6.2347,6.1603,6.1298,6.1298,6.1264,6.0431,5.9309,5.9329,5.9123,5.8858,5.8858,5.9401,6.016,6.0751,6.1329,6.1814,6.1616,6.0885,5.9908,5.8993,5.8178,5.7498,5.7215,5.7388,5.7547,5.7388,5.7116,5.6624,5.5842,5.5343,5.4576,5.3003,5.2717,5.2226,5.0735,5.0383,4.979,4.8338,4.7969,4.7342,4.5887,4.5055,4.4615,4.4615,4.4615,4.4615,4.4615,4.4706,4.4789,4.4789,4.4927,4.4974,4.4974,4.5009,4.4824,4.4491,4.4035,4.3591,4.3262,4.2805,4.2836,4.3275,4.3275,4.3941,4.4474,4.7631,5.083,5.3976,5.6521,5.8406,5.9023,5.9766,6.0352,6.031,5.9918,5.9816,6.0676,6.1714,6.2828,6.3945,6.5861,6.7112,6.6833,6.6812,6.6237,6.4783,6.458,0.0,0.0,0.0,0.0,6.5967,6.6542,6.6994,6.7489,6.803,6.8335,6.8335,6.7827,6.7421,6.7151,6.6914,6.644,6.5717,6.5717,6.5967,6.6406,6.5933,6.5425,6.4884,6.3903,6.3362,6.3091,6.2313,6.2009,6.1975,6.1501,6.1032,6.0514,5.9497,5.9193,5.928,5.8942,5.958,6.0555,6.0375,6.1039,6.1888,6.1692,6.0712,5.9587,5.9599,5.864,5.7595,5.7474,5.7522,5.751,5.7152,5.6964,5.6763,5.62,5.5585,5.4821,5.3871,5.2788,5.1787,5.0905,5.0106,4.9364,4.8783,4.7831,4.6989,4.6481,4.5771,4.5331,4.5331,4.4905,4.4643,4.472,4.4762,4.4845,4.4927,4.5042,4.5123,4.5123,4.5224,4.533,4.5447,4.5277,4.524,4.5293,4.5142,4.5308,4.5736,4.5736,4.6152,4.8728,5.1685,5.4224,5.6922,5.8751,5.9952,6.0095,6.0541,6.0843,6.0578,5.9535,5.8873,5.9753,6.0291,6.1197,6.2842,6.477,6.6215,6.6753,6.6981,6.6779,6.5899,6.5967,6.5899,0.0,0.0,0.0,6.6,6.7049,6.7692,6.7895,6.8673,6.9113,6.9113,6.8605,6.8199,6.7895,6.7421,6.6812,6.6102,6.6102,6.6339,6.6791,6.6791,6.6406,6.5683,6.4918,6.4174,6.3443,6.2685,6.244,6.2464,6.199,6.1651,6.1278,6.0295,5.9803,5.9515,5.8905,5.9515,6.0494,6.0129,6.0696,6.157,6.1732,6.1009,6.0232,6.0462,5.9773,5.8835,5.8271,5.7993,5.7725,5.7149,5.6694,5.6303,5.6041,5.5398,5.4689,5.4031,5.2988,5.1993,5.1287,5.0271,4.9397,4.9068,4.8173,4.7496,4.7225,4.6549,4.6075,4.6075,4.5727,4.5507,4.5592,4.5704,4.5801,4.5898,4.6014,4.6082,4.6082,4.6184,4.6323,4.654,4.6385,4.636,4.654,4.6376,4.654,4.6995,4.6995,4.7395,5.2049,5.4352,5.6315,5.9066,6.0067,6.0404,6.0324,6.0465,6.0597,6.0558,5.8848,5.7796,5.9236,5.9754,6.0445,6.1926,6.3669,6.5313,6.6748,6.644,6.6542,0.0,0.0,0.0,0.0,0.0,0.0,6.7028,0.0,6.8774,6.8064,6.8774,6.9214,6.9214,6.918,6.8808,6.803,6.7929,6.7523,6.6791,6.6791,6.6791,6.6791,6.6791,6.644,6.5717,6.4986,6.4275,6.3565,6.2806,6.2586,6.2761,6.2727,6.2304,6.1658,6.1643,6.0817,5.9599,5.8849,5.92,5.9985,5.9953,6.0359,6.0989,6.164,6.1759,6.1642,6.1513,6.142,6.1024,5.9556,5.874,5.809,5.7327,5.6258,5.5408,5.5358,5.488,5.4256,5.3582,5.3235,5.2788,5.1846,5.0814,4.9932,4.9221,4.9086,4.88,4.8056,4.7327,4.6868,4.6868,4.6932,4.702,4.7,4.7307,4.7511,4.7511,4.7651,4.7686,4.7686,4.7686,4.772,4.7755,4.7327,4.7092,4.716,4.6656,4.6671,4.716,4.7131,4.7737,5.3662,5.6645,5.9536,6.0028,6.1055,6.1691,6.0739,6.0565,5.9739,5.6624,5.5062,5.3601,5.1407,5.4209,5.7322,5.8819,6.312,0.0,6.9055,7.0128,0.0,7.0444,0.0,7.077,7.0207,7.0669,0.0,0.0,6.9519,6.9248,6.9586,7.0331,7.0714,7.0714,7.0195,6.9823,6.962,6.847,6.7523,6.6791,6.6791,6.6791,6.6791,6.6791,6.6711,6.6474,6.573,6.5406,6.5277,6.3973,6.3548,6.3674,6.3128,6.2725,6.2372,6.198,6.1596,6.1087,5.995,5.9734,5.9905,5.9417,5.9695,6.0344,6.0959,6.1135,6.1286,6.2183,6.1682,6.0808,6.0404,5.926,5.7925,5.6801,5.6189,5.5583,5.4689,5.4319,5.409,5.4015,5.3327,5.2422,5.1497,5.1096,5.0863,5.066,5.0168,4.956,4.88,4.809,4.7661,4.7761,4.7296,4.7106,4.7335,4.7469,4.7553,4.763,4.7658,4.7686,4.7686,4.7686,4.7962,4.8513,4.84,4.8633,4.9217,4.8692,4.8741,4.9217,4.8831,4.9022,5.7859,6.0109,6.1968,6.1787,6.176,6.1254,5.9261,5.8383,5.6912,5.323,5.1325,4.9924,4.8615,5.1302,5.4515,5.7002,6.1603,6.6,6.9248,7.0703,7.165,0.0,7.2631,0.0,7.2326,7.2631,7.2699,0.0,7.121,7.0601,7.0669,7.1075,7.1289,7.1289,7.0906,7.0534,7.0217,6.9011,6.803,6.7286,6.7286,6.7117,6.6791,6.6791,6.6791,6.6757,6.6373,6.6125,6.5936,6.512,6.4571,6.4194,6.3783,6.333,6.2928,6.265,6.2311,6.1832,6.0742,6.0255,5.9952,5.9236,5.9233,5.9727,6.0646,6.0721,6.0766,6.2046,6.1584,6.064,6.0331,5.9253,5.7969,5.6974,5.616,5.5412,5.4742,5.4285,5.3997,5.3997,5.3492,5.2768,5.1842,5.1674,5.1573,5.1235,5.0829,5.0304,4.9593,4.8849,4.8421,4.8553,4.8269,4.8211,4.8443,4.8564,4.8635,4.872,4.872,4.872,4.872,4.872,4.8893,4.9306,4.9341,4.9412,4.9634,4.9575,4.9575,4.9634,4.9575,4.9728,6.2432,6.3487,6.3757,6.36,6.2278,6.0208,5.7083,5.5254,5.3281,4.9882,4.7767,4.6766,4.753,4.9526,5.2249,5.5919,5.981,6.4072,6.8876,7.0094,7.1312,7.3534,7.3804,7.3804,7.3804,7.3804,7.3804,7.3804,7.3105,7.236,7.165,7.1492,7.1391,7.1289,7.1289,7.0939,7.0217,6.9553,6.8842,6.8064,6.8064,6.7658,6.6927,6.6927,6.6893,6.6791,6.6833,6.6586,6.614,6.6099,6.5488,6.4519,6.4454,6.3973,6.3302,6.3321,6.2909,6.222,6.1345,6.0715,6.0185,5.9271,5.8995,5.9216,6.0401,6.039,6.0207,6.1372,6.112,6.0401,5.9822,5.8992,5.8109,5.7432,5.6269,5.5297,5.5109,5.4494,5.3899,5.3717,5.3667,5.3414,5.2603,5.2469,5.2232,5.1607,5.1404,5.11,5.0489,4.9677,4.9212,4.9229,4.9411,4.9575,4.9723,4.9889,5.0011,5.0011,5.0011,5.0011,5.0011,5.0011,5.0011,5.0011,5.0011,4.9772,4.9301,4.9713,4.9679,4.9316,4.9728,4.9918,6.232,6.3688,6.4534,6.3515,6.2401,6.0536,5.6562,5.3987,5.0923,4.5496,4.4719,4.4093,4.1271,4.5974,5.1335,5.4465,5.9152,6.4613,7.0939,7.1954,7.2834,0.0,7.5303,7.5303,7.5303,7.5303,0.0,0.0,7.4627,7.3916,7.3138,7.2529,7.1921,7.1323,7.1289,7.0939,7.0217,7.006,6.962,6.8876,6.8876,6.847,6.7726,6.7726,6.7387,6.6812,6.7035,0.0,6.6963,6.6682,6.6073,6.5259,6.4831,6.4105,6.3302,6.3489,6.3364,6.2943,6.1698,6.1184,6.0875,5.9444,5.8995,5.9097,5.9725,5.9838,5.9886,6.0494,6.0149,5.9609,5.9478,5.884,5.801,5.7307,5.6809,5.6212,5.5077,5.4261,5.3701,5.3551,5.3517,5.3484,5.3315,5.3281,5.3247,5.3129,5.2536,5.2063,5.1928,5.0905,4.9974,4.9494,4.9575,4.9723,4.9918,4.9982,5.0011,5.0011,5.0011,5.0011,5.0011,5.0011,5.0011,5.0011,5.0011,4.9967,4.9845,4.9515,4.953,4.9845,4.9515,4.9575,6.3951,6.4671,6.4777,6.381,6.2326,5.9686,5.425,5.1295,4.8047,4.2139,4.1011,4.0811,3.9762,4.3436,4.7868,5.1623,5.5987,6.1264,6.7963,6.9925,7.1785,7.4762,7.5473,7.5709,7.5709,7.5709,7.5709,7.5709,7.5371,7.4864,7.4119,7.3003,7.2225,7.1887,7.1492,7.1142,7.077,7.077,7.0398,6.9654,6.9282,6.8673,6.7895,6.765,6.7319,6.7035,6.7263,6.7428,6.7516,6.7342,6.6657,6.5673,6.5424,6.4544,6.347,6.3563,6.3544,6.3298,6.2287,6.1634,6.1116,5.9978,5.9357,5.9098,5.9564,5.9482,5.9333,5.9755,5.9329,5.8772,5.8772,5.8404,5.7959,5.7586,5.687,5.5937,5.4923,5.4127,5.3584,5.3501,5.3518,5.3518,5.3518,5.3518,5.3518,5.3518,5.3212,5.2906,5.2499,5.2095,5.1365,5.0188,5.0236,5.0248,5.0031,5.0011,5.0011,5.0011,5.0011,5.0011,5.0011,5.0011,5.0011,5.0011,5.0011,4.9845,4.9575,4.9605,4.9605,4.9575,4.9605,4.9757,6.4768,6.5225,6.4768,6.3886,6.2091,5.8805,5.2216,4.8815,4.5465,3.9757,3.8219,3.8294,3.9626,4.1813,4.4877,4.9357,5.2976,5.7679,6.4715,6.7523,7.0297,7.4153,7.527,0.0,7.5709,7.5709,0.0,7.5709,7.554,7.5134,7.439,7.3274,7.2496,7.2191,7.1616,7.1289,7.1289,7.1289,7.1007,7.0432,6.9688,6.891,6.8132,6.7612,6.7309,6.7201,6.7428,6.7577,6.7739,6.7839,6.7045,6.5819,6.5876,6.4964,6.36,6.36,6.36,6.3496,6.2756,6.1979,6.1168,6.0392,5.9616,5.903,5.9332,5.908,5.8753,5.8994,5.8616,5.8151,5.8151,5.8009,5.79,5.79,5.6765,5.553,5.4972,5.4126,5.3518,5.3518,5.3518,5.3518,5.3518,5.3518,5.3518,5.3518,5.3601,5.3497,5.2919,5.3124,5.2785,5.1309,5.1173,5.0911,5.0306,5.0252,5.0183,4.9996,5.0011,5.0011,5.0011,5.0011,5.0011,5.0011,5.0011,4.9801,4.9361,4.9801,4.9786,4.9376,4.9801,5.0011,6.2451,6.4032,6.4668,6.3249,6.1621,5.863,5.2182,4.79,4.3882,3.8837,3.786,3.8159,3.8949,4.1474,4.4877,4.9357,5.2131,5.6528,6.4566,6.7015,6.9654,7.4086,0.0,0.0,7.5709,7.5709,7.5709,7.5709,7.51,7.439,7.3612,7.3466,7.28,7.1424,7.1323,7.1289,7.1289,7.1289,7.1255,7.1188,7.0432,6.9688,6.8977,6.8187,6.7603,6.7201,6.7428,6.7496,0.0,6.7939,6.705,6.5572,6.5819,6.4964,6.36,6.36,6.36,6.3496,6.2756,6.1979,6.115,6.0233,5.9424,5.8788,5.8666,5.8421,5.8207,5.8081,5.7991,5.7918,5.7918,5.79,5.79,5.79,5.6765,5.5665,5.5597,5.4481,5.3518,5.3518,5.3518,5.3518,5.3518,5.3518,5.3518,5.3518,5.3601,5.3683,5.3615,5.391,5.3761,5.2954,5.2406,5.1774,5.1065,5.0996,5.072,5.0045,5.0011,5.0011,5.0011,5.0011,5.0011,5.0011,5.0011,4.9982,4.9938,4.9982,4.9982,4.9938,4.9982,5.0011,6.271,6.3932,6.3909,6.2874,6.0697,5.7219,5.1226,4.7053,4.3399,3.9778,3.8434,3.8396,4.002,4.1258,4.3267,4.6853,4.8578,5.1691,5.8137,6.1434,6.5053,6.9992,7.2428,7.4255,0.0,0.0,7.5709,7.5709,7.5033,7.4289,7.3567,7.3071,7.2563,7.1988,7.1526,7.1289,7.1289,7.1289,7.1289,7.1289,7.0094,6.9449,6.924,6.8132,6.7605,6.7557,6.7779,6.7859,0.0,6.8024,6.7182,6.5727,6.5857,6.4964,6.36,6.36,6.36,6.3565,6.3255,6.2251,6.1076,6.0695,5.959,5.8419,5.8348,5.8366,5.8348,5.8117,5.8153,5.8225,5.8099,5.7972,5.79,5.79,5.7103,5.6258,5.58,5.4905,5.4025,5.3585,5.3518,5.3518,5.3518,5.3568,5.3601,5.3601,5.3833,5.4013,5.4013,5.4223,5.428,5.3986,5.331,5.2379,5.1083,5.1055,5.0715,4.9747,4.9786,4.983,4.983,4.983,4.9874,5.0011,5.0011,5.0011,5.0011,5.0011,5.0011,5.0011,5.0011,5.0011,6.0914,6.2353,6.2532,6.1799,5.9465,5.5994,5.0943,4.6647,4.3082,4.0785,3.8999,3.8621,4.1068,4.1542,4.2455,4.5263,4.6515,4.8951,5.4194,5.7712,6.1637,6.6643,0.0,7.1954,7.4187,7.5202,7.5709,7.5709,7.483,7.4052,7.3534,7.2597,7.209,7.209,7.156,7.1289,7.1289,7.1289,7.1188,7.0973,6.9688,6.9086,6.905,6.7925,6.7536,6.7819,6.7959,6.8059,0.0,6.8083,6.7221,6.5895,6.5895,6.4964,6.36,6.36,6.36,6.36,6.3526,6.2401,6.102,6.1128,5.992,5.8492,5.8492,5.8456,5.8401,5.833,5.8366,5.8384,5.8259,5.8045,5.79,5.79,5.734,5.6664,5.6139,5.5277,5.4431,5.3923,5.3653,5.3518,5.3518,5.3635,5.3717,5.3717,5.3997,5.4207,5.4207,5.4367,5.4478,5.4478,5.3983,5.306,5.1646,5.1382,5.0875,4.9896,4.9712,4.9634,4.9634,4.9679,4.9752,4.9903,4.9982,5.0011,5.0011,5.0011,5.0011,5.0011,5.0011,5.0011,5.5882,5.8561,6.0464,5.9714,5.7873,5.5265,5.1698,4.6907,4.2826,4.1469,3.9432,3.8802,4.1745,4.23,4.3044,4.5331,4.694,4.9713,5.4955,5.7593,6.0689,6.5209,6.7049,6.8842,7.112,7.3984,7.5709,7.5709,7.4322,0.0,7.35,7.2124,7.1289,7.1289,7.1289,7.1289,7.1289,7.1289,7.0939,7.0217,6.9451,6.8836,6.8289,6.7541,6.7428,6.7799,6.7799,6.7919,0.0,6.8083,6.7221,6.5895,6.5895,6.4964,6.36,6.36,6.36,6.3581,6.3358,6.2307,6.104,6.1378,6.0445,5.918,5.918,5.8737,5.8259,5.8437,5.8366,5.8189,5.8189,5.8045,5.79,5.79,5.734,5.6799,5.6799,5.5649,5.4617,5.4583,5.3991,5.3518,5.3518,5.3635,5.3717,5.3717,5.3997,5.4207,5.4207,5.4367,5.4478,5.4478,5.4319,5.388,5.3157,5.223,5.1368,5.0651,4.9881,4.9486,4.9486,4.9619,4.9708,4.9708,4.9889,5.0011,5.0011,5.0011,5.0011,5.0011,5.0011,5.0011,5.1162,5.312,5.422,5.2983,5.1396,4.9472,4.6962,4.353,4.1096,4.1807,4.0582,4.0312,4.3315,4.3856,4.4939,4.8173,4.9086,5.071,5.4431,5.8186,6.167,6.4613,6.9857,7.351,0.0,7.4695,7.5168,7.5676,7.3883,7.2969,7.3466,7.209,7.1289,7.1289,7.1289,7.1289,7.1289,7.0804,7.0521,7.0403,6.9147,6.8591,6.8706,6.794,6.7759,6.8019,6.8019,6.8024,6.8049,6.7566,6.6792,6.5861,6.529,6.4462,6.3581,6.3452,6.3396,6.3358,6.317,6.2009,6.0619,6.0782,5.9686,5.8333,5.8475,5.8702,5.8841,5.8562,5.8366,5.8189,5.8189,5.8045,5.79,5.79,5.773,5.7444,5.7061,5.6248,5.5399,5.4907,5.4177,5.3618,5.3534,5.3735,5.3899,5.3899,5.4191,5.4399,5.4399,5.4335,5.4303,5.4303,5.4045,5.3624,5.3001,5.2646,5.182,5.0341,5.0163,4.9884,4.9324,4.9456,4.9605,4.9708,4.9889,5.0011,5.0011,5.0011,4.9816,4.9471,4.983,4.9999,4.7257,4.9117,5.0056,4.9467,4.8006,4.6305,4.4774,4.1843,3.988,4.1212,4.073,4.0832,4.3281,4.4195,4.5345,4.7646,4.8714,5.0405,5.3721,5.778,6.1772,6.5425,7.0703,0.0,0.0,7.4559,7.4796,7.5236,7.3477,7.2597,7.3037,7.1954,7.1289,7.1289,7.1289,7.1289,7.1289,7.0656,7.0224,7.007,6.8931,6.8445,6.8465,6.8005,6.7919,6.8083,6.8083,6.7945,0.0,6.7206,6.6413,6.5412,6.491,6.4255,6.3581,6.3377,6.3283,6.3246,6.2981,6.1821,6.0486,6.0674,5.9704,5.8404,5.8457,5.8702,5.8875,5.8562,5.8366,5.8189,5.8189,5.8045,5.79,5.79,5.79,5.7835,5.7468,5.6604,5.5755,5.528,5.4364,5.3601,5.3584,5.38,5.4013,5.4062,5.4319,5.4463,5.4399,5.4287,5.4191,5.4127,5.3882,5.3546,5.3234,5.2829,5.2121,5.0996,5.055,5.0085,4.9656,4.9756,4.9878,5.0008,5.0391,5.0509,5.032,5.0077,4.9742,4.9226,4.9757,4.9994,0.0,4.6005,4.7331,4.8026,4.6669,4.4959,4.4262,4.1386,0.0,3.9872,4.002,4.0519,4.2164,4.3586,4.4635,4.5074,4.6887,4.9544,5.3382,5.7255,0.0,0.0,7.0229,7.1853,7.2496,7.3747,7.4559,7.4603,7.3172,7.2326,7.2394,7.1718,7.1312,7.1334,7.1334,7.1278,7.1244,7.0709,7.007,6.9365,6.8793,6.8302,6.7819,6.7819,6.7919,0.0,6.8064,6.765,6.6941,6.6891,6.6029,6.4685,6.4616,6.4167,6.3563,6.334,6.3246,6.3189,6.2755,6.1688,6.0523,6.0848,6.0116,5.9062,5.8892,5.8685,5.8472,5.8472,5.833,5.8187,5.8187,5.8027,5.79,5.79,5.79,5.79,5.7918,5.6783,5.5802,5.5734,5.4601,5.3635,5.3701,5.3882,5.4062,5.4191,5.4367,5.4415,5.4239,5.4191,5.4143,5.398,5.38,5.3684,5.3684,5.2907,5.2367,5.23,5.1062,5.036,5.0447,5.0437,5.0467,5.057,5.1235,5.1347,5.0816,5.0299,4.9752,4.9211,4.9757,5.0022,3.9092,0.0,4.1513,4.0575,4.0045,3.9669,0.0,3.8374,3.7697,3.8971,3.9254,4.0235,4.3464,4.3842,4.5196,4.9763,5.0947,5.2757,5.7085,6.2922,0.0,7.0973,7.3308,7.4525,7.4119,7.3883,7.3984,7.4559,7.271,7.1796,7.236,7.1718,7.1379,7.1512,7.1512,7.1274,7.0697,6.9993,6.9437,6.9021,6.8316,6.8011,6.8004,6.8004,6.7979,6.7879,6.7879,6.7367,6.6508,6.6048,6.5317,6.4423,6.3839,6.353,6.3321,6.2962,6.2828,6.2721,6.1893,6.1003,6.0039,5.9,5.8461,5.8191,5.8137,5.8207,5.8259,5.8081,5.7991,5.7954,5.7954,5.7936,5.79,5.79,5.79,5.7936,5.8081,5.7386,5.664,5.6167,5.5332,5.4531,5.4017,5.4062,5.4175,5.4207,5.4367,5.4415,5.4239,5.411,5.398,5.38,5.3651,5.3551,5.3551,5.3331,5.2976,5.2334,5.2477,5.2081,5.1045,5.1542,5.1604,5.1121,5.1492,5.1502,5.1123,5.08,5.011,4.9009,4.9664,5.0153,3.7365,3.8769,4.0122,3.9413,3.9075,3.8879,3.8817,3.7467,3.6421,3.716,0.0,4.007,4.251,4.43,4.6562,5.0186,5.2536,5.5784,6.1298,0.0,6.9849,7.1882,7.3199,7.3927,7.3811,7.2864,7.2616,7.3498,7.2248,7.1604,7.2011,7.1783,7.1486,7.1243,7.1243,7.1039,7.0664,7.0055,6.9451,6.8891,6.8243,6.7959,6.7979,6.7979,6.7859,6.7658,6.7658,6.6961,6.5835,6.551,6.4727,6.3719,6.3342,6.3152,6.3114,6.2808,6.2489,6.213,6.1511,6.0554,5.9404,5.8272,5.79,5.79,5.79,5.7972,5.8027,5.7918,5.79,5.79,5.79,5.79,5.7918,5.8009,5.8027,5.8081,5.8278,5.7769,5.7019,5.6252,5.557,5.4869,5.4133,5.411,5.4207,5.4207,5.4287,5.4271,5.4013,5.3915,5.38,5.3651,5.3534,5.3518,5.3518,5.3518,5.3414,5.3283,5.3351,5.3207,5.2824,5.2777,5.2566,5.2196,5.1958,5.1739,5.1551,5.1101,5.0377,4.9457,5.0258,5.0845,3.7685,3.9507,4.1123,4.0514,4.0174,3.9829,3.9376,3.7413,0.0,0.0,0.0,0.0,4.16,4.5077,0.0,4.9765,5.3771,5.8908,6.5083,6.7894,6.9905,7.147,7.1738,7.2002,7.2523,7.1488,7.1175,7.2085,7.1819,7.16,7.16,7.1718,7.1507,7.0879,7.0742,7.0661,7.0567,7.0132,6.955,6.8781,6.8309,6.7945,6.7799,6.7779,6.7638,6.7469,6.7332,6.6438,6.5102,6.5039,6.4171,6.2962,6.2962,6.2962,6.2943,6.261,6.211,6.148,6.1085,6.0013,5.8709,5.8084,5.79,5.79,5.79,5.79,5.79,5.79,5.79,5.79,5.79,5.79,5.7936,5.8135,5.8189,5.8277,5.8455,5.8029,5.7294,5.6371,5.5723,5.5089,5.4304,5.4179,5.4207,5.4175,5.4175,5.4062,5.375,5.3717,5.3634,5.3501,5.3518,5.3518,5.3518,5.3518,5.3767,5.4425,5.4048,5.4113,5.4785,5.3962,5.3376,5.3203,5.2534,5.2137,5.2078,5.1347,5.0714,5.0187,5.0999,5.162,3.9555,4.1758,4.252,3.8467,3.842,3.8838,3.6864,3.6529,3.6554,0.0,0.0,0.0,0.0,4.6903,4.9344,0.0,0.0,6.2724,0.0,0.0,7.0547,7.0843,0.0,7.1306,7.115,7.0949,7.0864,7.1032,7.1389,7.16,7.16,7.1206,7.1024,7.1134,7.0551,6.9983,6.9534,6.9234,6.8787,6.8196,6.7954,6.7839,6.7799,6.7618,6.7448,6.7208,6.6541,6.5658,6.4647,6.4183,6.3514,6.2765,6.2765,6.2765,6.2644,6.182,6.1438,6.1134,5.981,5.8795,5.8051,5.7934,5.79,5.79,5.79,5.79,5.79,5.79,5.79,5.79,5.79,5.79,5.7936,5.8135,5.8189,5.8277,5.8455,5.8405,5.808,5.726,5.6645,5.5993,5.509,5.4505,5.4159,5.4045,5.4029,5.3948,5.3734,5.3717,5.3634,5.3501,5.3518,5.3518,5.3518,5.3518,5.3816,5.4617,5.5004,5.5229,5.5278,5.4608,5.3898,5.3214,5.313,5.2857,5.2338,5.209,5.1452,5.0446,5.1091,5.1742,3.7336,4.0007,4.1768,3.9228,4.1131,4.3393,4.2254,4.1336,4.066,0.0,0.0,0.0,0.0,0.0,5.3382,5.952,0.0,6.4487,6.7084,6.8327,6.8816,0.0,6.855,6.8793,6.8994,6.9219,6.9583,7.0172,7.0692,7.1032,7.1163,7.0683,7.0366,7.0161,6.9838,6.9328,6.8655,6.8415,6.8183,6.7939,6.7739,6.7577,6.7455,6.7387,6.6984,6.637,6.5976,6.5135,6.4005,6.3732,6.3196,6.2518,6.2518,6.2518,6.2382,6.1134,6.0419,5.9911,5.8795,5.8186,5.79,5.79,5.79,5.79,5.79,5.79,5.79,5.79,5.79,5.79,5.79,5.7972,5.8081,5.8187,5.8384,5.8525,5.8508,5.8578,5.839,5.7377,5.673,5.6047,5.5093,5.4459,5.4029,5.3866,5.3849,5.3783,5.3618,5.3601,5.3568,5.3518,5.3518,5.3518,5.3518,5.3568,5.4092,5.5184,5.5872,5.6027,5.5536,5.5222,5.4473,5.3214,5.3177,5.3002,5.2739,5.2579,5.2243,5.1751,5.2207,5.2763,3.5869,3.8347,4.0602,4.0837,4.3522,4.6218,4.6725,4.5416,0.0,0.0,0.0,0.0,0.0,5.2601,0.0,6.3389,6.4918,6.6002,6.7737,6.8152,6.8024,6.7465,6.7237,6.737,6.7956,6.8295,6.8822,6.9642,7.0221,7.0599,7.0781,7.018,6.9673,6.9311,6.9138,6.8724,6.8118,6.7859,6.7759,6.7799,6.7536,6.7346,6.718,6.6969,6.6437,6.5683,6.5324,6.4546,6.3477,6.3308,6.2769,6.207,6.2322,6.2178,6.1724,6.0351,5.937,5.866,5.8103,5.79,5.79,5.79,5.79,5.79,5.79,5.79,5.79,5.79,5.79,5.79,5.79,5.8009,5.8117,5.8205,5.8437,5.8631,5.8525,5.8613,5.8442,5.7528,5.6746,5.5945,5.5145,5.4413,5.3866,5.3667,5.3651,5.3635,5.3501,5.3518,5.3518,5.3518,5.3517,5.3568,5.3601,5.3882,5.4529,5.5752,5.6523,5.6527,5.5669,5.5633,5.4872,5.3298,5.3156,5.3056,5.3023,5.2926,5.2868,5.2896,5.3234,5.3777,3.8175,3.9121,3.9865,4.2581,4.254,4.2478,4.4892,4.4939,0.0,4.6542,0.0,0.0,0.0,5.4886,5.9671,6.3039,6.5899,6.8089,6.9282,0.0,7.0464,7.0393,6.953,6.9069,6.9511,6.958,6.9618,6.9689,7.0221,7.0599,7.0781,6.9666,6.9068,6.9311,6.8586,6.8152,6.8083,6.7719,6.7597,6.7799,6.7407,6.7201,6.718,6.6226,6.5771,6.5615,6.4241,6.3579,6.3443,6.2753,6.1924,6.1206,6.205,6.1535,6.0182,5.9351,5.8626,5.7949,5.7934,5.79,5.79,5.79,5.79,5.79,5.79,5.79,5.79,5.79,5.79,5.79,5.79,5.79,5.7954,5.8135,5.8207,5.8294,5.8472,5.8508,5.8421,5.8157,5.7087,5.6065,5.5719,5.4551,5.3667,5.3534,5.3501,5.3501,5.3518,5.3518,5.3518,5.3518,5.3635,5.3767,5.3948,5.4614,5.5347,5.61,5.6629,5.6563,5.5805,5.5677,5.4948,5.3498,5.3349,5.3209,5.3067,5.3067,5.3098,5.3192,5.357,5.4142,3.5647,3.8072,4.0436,4.1938,4.2993,0.0,0.0,4.9388,5.0673,5.225,5.4105,0.0,0.0,0.0,6.1971,6.2647,6.6078,6.8728,6.8931,6.9609,6.9823,6.9165,6.8744,6.8351,6.8063,6.8624,6.8837,6.8374,6.8651,6.9042,6.9402,6.8549,6.8171,6.8532,6.8256,6.8083,6.8083,6.7253,6.6832,6.6913,6.6487,6.6281,6.6247,6.5399,6.4783,6.4309,6.3748,6.326,6.2747,6.1891,6.1329,6.0995,6.0911,5.993,5.8619,5.8912,5.8524,5.7918,5.8027,5.8081,5.8081,5.8081,5.8081,5.8045,5.7936,5.79,5.79,5.79,5.79,5.79,5.79,5.7972,5.8063,5.8009,5.8189,5.8348,5.8153,5.8241,5.8123,5.7468,5.6552,5.5704,5.5125,5.4211,5.3551,5.3518,5.3518,5.3518,5.3518,5.3568,5.3601,5.3601,5.3783,5.4045,5.4397,5.4918,5.5616,5.6576,5.6976,5.6769,5.5886,5.5802,5.5174,5.3833,5.3639,5.3719,5.4028,5.3924,5.395,5.4217,5.4457,5.4784,3.4949,3.7926,4.1037,4.1584,0.0,0.0,5.0187,5.2264,5.4027,5.6067,5.6552,5.6909,5.7932,0.0,0.0,0.0,6.6225,6.8636,6.8404,6.9036,6.9214,6.8496,6.8433,6.8236,6.7719,6.8321,6.8569,6.8035,6.7932,6.8086,6.8548,6.7885,6.7678,6.8064,6.7876,6.7738,6.7738,6.6602,6.604,6.5986,6.5325,6.5121,6.5324,6.458,6.4005,6.3477,6.326,6.2854,6.2341,6.1729,6.1298,6.0958,5.9379,5.8508,5.8141,5.8523,5.8358,5.8009,5.8135,5.8259,5.8294,5.8241,5.8189,5.8099,5.7609,5.7698,5.7845,5.7554,5.7698,5.79,5.79,5.7991,5.8063,5.7918,5.8099,5.8259,5.7954,5.7991,5.7841,5.6952,5.6206,5.5462,5.4735,5.3991,5.3518,5.3518,5.3518,5.3518,5.3518,5.3635,5.38,5.3979,5.433,5.4722,5.5069,5.5645,5.6219,5.6705,5.6854,5.6641,5.5976,5.6017,5.5421,5.4134,5.4035,5.421,5.4648,5.4506,5.4639,5.4959,5.5097,5.5327,3.7095,3.9059,4.1505,4.1925,0.0,0.0,5.1487,5.2685,5.3874,5.7188,5.6895,5.7273,6.132,6.1024,0.0,6.412,6.644,6.7895,6.7895,6.8605,6.9113,6.9113,6.9113,6.9113,6.9079,6.9079,6.9079,6.9079,6.8335,6.8108,6.8569,6.7885,6.7678,6.8083,6.7359,6.6999,6.6999,6.5794,6.5201,6.5181,6.4016,6.3903,6.4546,6.3815,6.3477,6.3443,6.2719,6.24,6.24,6.2381,6.1921,6.0902,5.7613,5.7397,5.8878,5.8152,5.8009,5.8189,5.8189,5.8348,5.8472,5.8277,5.8189,5.8009,5.692,5.7218,5.7735,5.6844,5.7237,5.79,5.79,5.79,5.79,5.79,5.79,5.79,5.79,5.79,5.7697,5.6934,5.6206,5.548,5.4719,5.4008,5.3501,5.3501,5.3501,5.3501,5.3518,5.3651,5.3962,5.4633,5.5367,5.5865,5.5984,5.6904,5.7181,5.6447,5.6229,5.6121,5.6084,5.6272,5.5743,5.4334,5.4484,5.4655,5.4806,5.4806,5.4974,5.5314,5.5445,5.5728,3.4785,3.7685,0.0,4.2343,0.0,0.0,0.0,5.4761,0.0,0.0,6.0548,6.0305,6.123,6.284,0.0,6.3108,6.5733,6.7895,6.7895,6.8605,6.9113,6.9113,6.9113,6.8876,6.8301,6.8267,6.8128,6.7789,6.7539,6.759,6.7987,6.7342,6.7049,6.7325,6.662,6.624,6.624,6.5025,6.4435,6.4401,6.3255,6.3125,6.3781,6.3057,6.2719,6.2719,6.2482,6.24,6.2308,6.112,5.9516,5.7728,5.7361,5.7258,5.7387,5.7913,5.8169,5.8259,5.8525,5.8648,5.8666,5.8472,5.8419,5.8312,5.7717,5.7698,5.7845,5.7606,5.7717,5.79,5.79,5.79,5.79,5.79,5.79,5.79,5.79,5.79,5.7509,5.6274,5.5939,5.5621,5.4734,5.4532,5.4473,5.4473,5.4473,5.446,5.4349,5.4365,5.4617,5.5184,5.5673,5.6061,5.6344,5.713,5.7394,5.6782,5.7185,5.6902,5.5715,5.5207,5.4961,5.4995,5.4851,5.4957,5.5411,5.5224,5.5369,5.5726,5.5844,5.6005,3.782,4.0843,0.0,4.6201,4.9738,5.35,5.6472,0.0,0.0,0.0,6.2746,6.2618,6.3391,6.4468,0.0,6.4204,6.5977,6.7455,6.7455,6.7895,6.8199,6.8199,6.8285,6.8124,6.7671,6.7395,6.7262,6.7304,6.6998,6.6991,6.7333,6.6941,6.6662,6.6566,6.5826,6.539,6.5313,6.4198,6.361,6.3533,6.276,6.2618,6.3057,6.2584,6.24,6.24,6.2076,6.1941,6.1815,5.9858,5.8422,5.7483,5.7376,5.7339,5.7443,5.8081,5.8384,5.8472,5.8701,5.8822,5.8788,5.8561,5.8455,5.8277,5.7572,5.7643,5.7827,5.748,5.7609,5.79,5.79,5.79,5.79,5.79,5.79,5.79,5.79,5.7954,5.7568,5.6126,5.6167,5.6071,5.4915,5.4989,5.5228,5.5228,5.5228,5.5169,5.5089,5.5308,5.5586,5.5886,5.6456,5.6969,5.734,5.7969,5.7988,5.7135,5.7238,5.6725,5.5496,5.5299,5.5229,5.5295,5.5198,5.5338,5.574,5.5615,5.5663,5.595,5.6128,5.6246,4.3487,4.6212,4.8945,5.1594,5.3071,0.0,6.0152,6.1567,6.2284,6.3915,0.0,6.4337,6.6743,6.5895,6.5256,6.6588,6.6791,6.6791,6.6791,6.6791,6.6779,6.6732,6.6954,6.7065,6.7018,6.6534,6.6519,6.7277,6.6641,6.6345,6.6617,6.6568,6.6269,6.5807,6.5014,6.4506,6.4279,6.3437,6.2904,6.2707,6.2498,6.242,6.242,6.24,6.2367,6.2245,6.1549,6.1192,6.0878,5.8683,5.8313,5.9029,5.7618,5.7646,5.8508,5.8525,5.8631,5.8822,5.8788,5.8788,5.8788,5.8561,5.8366,5.8009,5.6996,5.7275,5.7735,5.6939,5.7293,5.79,5.79,5.79,5.7918,5.7918,5.7918,5.7918,5.7918,5.8047,5.7696,5.6284,5.6535,5.653,5.5207,5.5414,5.578,5.5836,5.5808,5.5738,5.5709,5.6272,5.6659,5.6665,5.7545,5.8338,5.8723,5.9046,5.8719,5.7474,5.6664,5.6,5.5435,5.597,5.6002,5.5351,5.5577,5.5745,5.5802,5.5879,5.5951,5.6012,5.6297,5.6365,4.0217,4.3603,0.0,5.0377,5.4375,5.827,6.0742,6.2476,6.3896,6.5038,6.5094,6.5345,6.6925,6.6722,6.6419,6.6757,6.6791,6.6791,6.6791,6.6791,6.6651,6.6207,6.6222,6.6099,6.5667,6.5503,6.5568,6.5916,6.5764,6.5793,6.606,6.5474,6.5079,6.4945,6.422,6.3748,6.3524,6.3163,6.2904,6.2707,6.2669,6.2649,6.2615,6.2459,6.2076,6.1535,6.1143,6.0247,5.8998,5.8643,5.8287,5.799,5.8113,5.8278,5.8525,5.8666,5.8753,5.8806,5.8927,5.8892,5.8788,5.8561,5.8366,5.8117,5.7753,5.7753,5.7863,5.768,5.7772,5.79,5.79,5.8009,5.8151,5.8151,5.8151,5.8151,5.8151,5.7818,5.7225,5.6338,5.5958,5.5769,5.575,5.5991,5.6308,5.6747,5.6501,5.6353,5.6576,5.6825,5.7181,5.7694,5.8259,5.8723,5.9155,5.8916,5.838,5.7458,5.6828,5.6173,5.5441,5.4969,5.5049,5.5756,5.5845,5.587,5.5885,5.5964,5.604,5.6158,5.6322,5.6384,4.1741,4.478,0.0,5.206,0.0,5.943,6.1113,6.2626,6.3925,6.4914,6.5386,6.596,6.7009,6.6688,6.6271,6.6271,6.6271,6.617,6.5797,6.5812,6.58,6.5494,6.5642,6.563,6.5373,6.5093,6.5175,6.5634,6.5325,6.5176,6.5324,6.491,6.4531,6.4186,6.3714,6.3396,6.3283,6.2718,6.2362,6.2248,6.1908,6.1737,6.1753,6.1998,6.1569,6.0536,6.0069,5.9194,5.8125,5.8159,5.8014,5.7808,5.8419,5.8684,5.8736,5.8875,5.8909,5.8909,5.8909,5.8806,5.8613,5.8419,5.8241,5.8027,5.7918,5.79,5.79,5.79,5.7954,5.8027,5.8027,5.8171,5.8246,5.7871,5.7769,5.7769,5.7769,5.7449,5.6949,5.6158,5.6361,5.657,5.6383,5.693,5.7509,5.7824,5.7842,5.7814,5.7917,5.8126,5.8396,5.8594,5.8981,5.9218,5.927,5.9021,5.8437,5.7412,5.7077,5.6557,5.5769,5.5321,5.5364,5.59,5.59,5.5909,5.5938,5.605,5.6161,5.6237,5.643,5.6519,4.3191,4.6249,4.9066,5.436,5.7371,0.0,6.1164,6.2333,6.3375,6.4396,6.523,6.5963,6.6609,6.6078,6.5493,6.5493,6.5534,6.5352,6.4742,6.4822,6.4914,6.4798,6.5114,6.5259,6.5194,6.4763,6.4772,6.5447,6.4876,6.4496,6.4496,6.4496,6.4152,6.3427,6.3261,6.3081,6.2906,6.2087,6.1652,6.1615,6.1037,6.0679,6.0613,6.1247,6.0826,5.9593,5.9043,5.8366,5.7659,5.7674,5.779,5.7991,5.8613,5.8909,5.8995,5.8961,5.8961,5.8927,5.8788,5.8613,5.8419,5.8225,5.8045,5.79,5.79,5.79,5.79,5.7936,5.8063,5.8223,5.8259,5.8299,5.8184,5.7586,5.7278,5.7107,5.7227,5.7098,5.6728,5.6069,5.6972,5.7608,5.7036,5.7882,5.8693,5.8809,5.9147,5.9322,5.9192,5.9459,5.9609,5.945,5.959,5.9572,5.93,5.9036,5.8396,5.7307,5.7155,5.6773,5.6106,5.6091,5.604,5.5941,5.5937,5.5989,5.6016,5.6141,5.626,5.6314,5.651,5.6601,3.8057,0.0,4.963,0.0,5.7051,5.875,0.0,0.0,6.3375,0.0,6.4701,6.4823,6.4925,6.4837,6.4749,6.4749,6.4877,6.4964,6.4862,6.5042,6.4981,6.4526,6.4534,6.4355,6.3889,6.3807,6.3772,6.391,6.3807,6.3738,6.3738,6.3738,6.3393,6.2687,6.2616,6.2197,6.1309,6.1188,6.1028,6.0863,6.0926,6.0729,6.0287,6.0391,5.9857,5.8852,5.9106,5.8422,5.7158,5.779,5.8065,5.8137,5.8754,5.8978,5.8978,5.8875,5.8823,5.8788,5.8596,5.8419,5.8259,5.8223,5.8045,5.79,5.79,5.79,5.7936,5.8099,5.8171,5.8259,5.8419,5.8082,5.7775,5.7941,5.7085,5.6403,5.6916,5.6833,5.661,5.6505,5.6771,5.7226,5.7737,5.8402,5.9,5.943,5.9627,5.9753,5.9855,5.9894,6.004,6.0303,5.9651,5.932,5.9606,5.8297,5.7342,5.7061,5.6482,5.6115,5.5938,5.6044,5.6124,5.617,5.617,5.6142,5.6075,5.6269,5.634,5.6314,5.651,5.6559,3.9493,4.4991,5.0082,0.0,5.6158,5.8051,5.9252,6.0856,6.234,6.318,6.3362,6.3599,6.4444,6.4275,6.4045,6.4131,6.4231,6.416,6.3889,6.4029,6.4046,6.3832,6.3533,6.3232,6.3013,6.2997,6.2806,6.2358,6.2737,6.2735,6.2178,6.2235,6.2115,6.1662,6.1679,6.1507,6.118,6.066,6.016,5.975,5.982,5.977,5.953,5.953,5.9094,5.8392,5.854,5.806,5.7181,5.7814,5.8085,5.8157,5.8754,5.8944,5.8875,5.8806,5.8718,5.8596,5.8401,5.8277,5.8171,5.8063,5.7954,5.79,5.79,5.79,5.7936,5.8135,5.8294,5.837,5.829,5.8315,5.8269,5.7739,5.7525,5.7366,5.7107,5.6609,5.6382,5.703,5.7484,5.7904,5.846,5.9047,5.9538,5.9787,6.0088,6.0335,6.0459,6.0436,6.0501,6.0654,5.9858,5.9193,5.8836,5.772,5.678,5.6192,5.5868,5.5778,5.5907,5.5969,5.6033,5.621,5.6214,5.622,5.6226,5.6349,5.6407,5.6415,5.6499,5.6544,0.0,0.0,4.7773,5.1713,5.4557,5.6735,0.0,0.0,6.1197,0.0,6.2169,6.2614,6.3882,6.3659,6.3365,6.3548,6.3626,6.3552,6.3125,6.3074,6.3102,6.3102,6.2543,6.2204,6.2204,6.2204,6.1944,6.1358,6.1805,6.1784,6.1055,6.111,6.1041,6.0745,6.071,6.0731,6.0737,6.0027,5.9443,5.8995,5.8995,5.8995,5.8995,5.8995,5.8737,5.8351,5.8351,5.7977,5.7483,5.8047,5.828,5.8315,5.8719,5.8909,5.8961,5.8736,5.8666,5.8632,5.8243,5.8099,5.8081,5.7936,5.7936,5.7954,5.7918,5.7954,5.8081,5.8225,5.849,5.8634,5.8396,5.8558,5.8582,5.7731,5.788,5.8069,5.7449,5.6783,5.6648,5.7702,5.819,5.8611,5.9225,5.9673,6.0038,6.0186,6.0533,6.0789,6.0757,6.0744,6.0604,6.0313,5.9509,5.8628,5.7747,5.6972,5.6193,5.5457,5.5455,5.5605,5.5803,5.585,5.5977,5.621,5.6214,5.6233,5.6263,5.6347,5.6402,5.6458,5.648,5.6482,0.0,3.8446,0.0,4.8081,5.176,5.4273,0.0,0.0,6.0385,6.1197,6.1505,6.1877,6.2673,6.2775,6.2799,6.303,6.3201,6.3333,6.3283,6.2851,6.253,6.253,6.1841,6.1358,6.1358,6.1358,6.1358,6.1289,6.1163,6.1055,6.1002,6.0909,6.0583,5.9972,5.9956,5.9683,5.9133,5.9064,5.903,5.8995,5.8995,5.8995,5.8995,5.8995,5.8978,5.8961,5.8961,5.8615,5.8085,5.8578,5.8753,5.8736,5.8596,5.8927,5.9349,5.8544,5.8632,5.9063,5.8191,5.7918,5.79,5.79,5.8009,5.8169,5.7954,5.8187,5.8472,5.849,5.8875,5.9211,5.9022,5.8643,5.8339,5.8411,5.7935,5.7545,5.7794,5.7666,5.7737,5.8508,5.8601,5.8912,5.9946,6.0157,6.0331,6.0783,6.094,6.0906,6.0717,6.0574,6.0115,5.9024,5.8134,5.7308,5.6552,5.5862,5.5415,5.5217,5.5382,5.5543,5.5598,5.5794,5.5977,5.621,5.6214,5.6184,5.6113,5.6319,5.637,5.6327,5.6451,5.6461,0.0,0.0,0.0,4.456,4.8587,5.1847,5.3773,5.69,5.9588,6.0385,6.0691,6.0962,6.1347,6.2237,6.2791,6.2535,6.256,6.2447,6.2059,6.1856,6.1737,6.1737,6.1047,6.0599,6.0599,6.0599,6.0339,5.9752,6.006,5.9986,5.9222,5.9417,5.9351,5.9007,5.9201,5.9219,5.8995,5.8995,5.8995,5.9012,5.9433,5.9648,5.9664,6.0046,6.0215,6.0184,5.966,5.9114,5.8544,5.8718,5.8701,5.8648,5.9012,5.9233,5.9332,5.943,5.9578,5.966,5.9347,5.8926,5.8563,5.8563,5.8315,5.8009,5.8063,5.8171,5.8438,5.9097,5.9482,5.9603,5.9272,5.9437,5.9626,5.9233,5.8865,5.8608,5.8597,5.854,5.8529,5.8628,5.8949,5.937,5.9983,6.0106,6.0179,6.0358,6.0293,6.0214,6.0137,6.0077,5.9611,5.8407,5.7818,5.7042,5.5996,5.5451,5.513,5.5021,5.5183,5.5376,5.5543,5.5722,5.5898,5.6064,5.6064,5.6128,5.6245,5.6347,5.6394,5.6365,5.6423,5.6347,3.332,0.0,0.0,0.0,4.5177,4.8235,5.1577,5.4659,5.7343,5.9121,5.9834,6.0257,6.0713,6.1713,6.232,6.1968,6.1917,6.1747,6.1374,6.1082,6.0944,6.0944,6.0254,5.9806,5.9806,5.9754,5.946,5.8857,5.9146,5.9003,5.8223,5.8401,5.8508,5.8508,5.8823,5.8995,5.8995,5.8995,5.8995,5.9012,5.9697,5.9985,6.0017,6.0615,6.0879,6.087,6.0042,5.9465,5.9081,5.8753,5.8525,5.8472,5.9046,5.9347,5.9513,5.9982,6.0219,6.0266,5.9806,5.9331,5.8875,5.8633,5.8493,5.8405,5.8458,5.8789,5.9247,5.9915,6.0149,6.0168,5.9889,6.0107,6.0332,5.9861,5.9618,5.9388,5.9169,5.8984,5.8825,5.8798,5.914,5.9592,5.9929,6.0061,6.0106,6.0136,5.9984,5.9744,5.9365,5.936,5.884,5.7346,5.7046,5.6489,5.5349,5.5133,5.5028,5.5,5.5147,5.5314,5.561,5.573,5.5866,5.6003,5.6008,5.6056,5.6214,5.6281,5.6298,5.6342,5.6295,5.6203,0.0,0.0,0.0,0.0,0.0,0.0,5.0316,5.2174,5.3502,5.7263,5.8791,5.9722,6.0758,6.1112,6.122,6.122,6.1254,6.1254,6.1254,6.0634,6.0151,6.0151,5.9495,5.8995,5.8995,5.8875,5.8805,5.8771,5.8419,5.8189,5.8171,5.8009,5.8081,5.849,5.8806,5.8995,5.8995,5.8995,5.8995,5.9012,5.9697,5.9985,6.0017,6.0615,6.0879,6.0835,6.0042,5.9693,5.9611,5.8615,5.8223,5.8243,5.872,5.938,6.0014,6.003,6.0452,6.0831,5.9461,5.896,5.8858,5.8209,5.865,5.9395,5.9211,5.9972,6.0909,6.0967,6.0955,6.0933,6.0855,6.0587,6.0329,6.0284,6.0006,5.9643,5.9426,5.8908,5.8619,5.9015,5.9262,5.9549,5.9916,6.0061,6.0121,6.0172,6.0144,5.9664,5.8488,5.8483,5.7845,5.5853,5.5793,5.557,5.4673,5.4791,5.4992,5.5183,5.5203,5.5389,5.5782,5.5802,5.5871,5.6008,5.6008,5.6003,5.6003,5.6056,5.6135,5.6207,5.6128,5.5964,3.0645,0.0,0.0,0.0,0.0,0.0,0.0,4.643,4.9751,5.3526,5.5001,5.6381,5.894,5.9529,5.9633,5.9633,6.0116,6.0289,5.9737,5.9444,5.9306,5.9306,5.9133,5.8944,5.8858,5.8806,5.8666,5.8401,5.8277,5.8151,5.7972,5.8063,5.8312,5.8684,5.8806,5.8909,5.8995,5.8995,5.8995,5.9012,5.9697,5.9985,6.0017,6.0615,6.0879,6.0835,5.9915,5.9578,5.9627,5.8754,5.8419,5.849,5.908,5.9776,6.0426,6.0777,6.1343,6.1795,6.1293,6.0817,6.0406,6.0219,6.0014,5.9931,6.0387,6.0768,6.1268,6.2352,6.2317,6.1939,6.1663,6.1005,6.0447,6.0359,6.0214,5.9898,5.9234,5.8828,5.8644,5.8848,5.9169,5.9523,5.9868,6.0015,6.0084,5.9969,5.9788,5.9525,5.9062,5.908,5.8359,5.6304,5.648,5.6095,5.4464,5.4814,5.5143,5.5288,5.5491,5.5698,5.5792,5.5929,5.5999,5.6008,5.5943,5.5893,5.5856,5.5921,5.5994,5.604,5.5845,5.5691,0.0,0.0,0.0,0.0,0.0,0.0,4.1629,4.375,4.6354,5.1362,5.2825,5.4058,5.6952,5.7515,5.7789,5.8444,5.8944,5.9185,5.903,5.8995,5.8995,5.8995,5.8944,5.8892,5.8822,5.8648,5.8455,5.8241,5.8099,5.8009,5.79,5.8153,5.8437,5.8666,5.8806,5.8927,5.8995,5.8995,5.8995,5.9012,5.9697,5.9985,6.0017,6.0615,6.0879,6.0835,5.9931,5.9644,5.9776,5.8961,5.8578,5.8578,5.9249,5.9921,6.058,6.1169,6.1734,6.2132,6.1804,6.1387,6.1001,6.0894,6.0829,6.0933,6.1722,6.2181,6.2648,6.3726,6.339,6.2507,6.1681,6.0938,6.0346,6.0347,5.9945,5.9456,5.8968,5.872,5.8628,5.8777,5.9026,5.9397,5.9876,6.0061,6.0121,6.0097,5.9946,5.9644,5.9243,5.9164,5.8598,5.7049,5.6851,5.6383,5.5277,5.5319,5.5449,5.5594,5.5793,5.5907,5.5969,5.6091,5.6098,5.6012,5.5947,5.5823,5.561,5.5691,5.5748,5.5748,5.5653,5.5572,3.3737,3.426,0.0,0.0,3.6091,0.0,4.2334,4.2462,4.3057,4.9229,5.0617,5.1512,5.4242,5.4711,5.5209,5.6721,5.7238,5.7824,5.8857,5.8995,5.8995,5.8995,5.8875,5.8771,5.8753,5.8419,5.8205,5.8153,5.7991,5.79,5.79,5.8277,5.8472,5.8508,5.8789,5.8978,5.8995,5.8995,5.8995,5.9012,5.9615,5.9873,5.9889,6.0432,6.0706,6.0661,5.9934,5.9711,5.986,5.9166,5.8823,5.8719,5.9333,6.0017,6.0732,6.1315,6.1845,6.2158,6.1536,6.1257,6.1164,6.0991,6.1443,6.2275,6.3013,6.3774,6.4431,6.4728,6.3883,6.2617,6.1219,6.0491,6.0105,6.0105,5.9408,5.8753,5.8713,5.8662,5.872,5.8833,5.8999,5.931,5.9931,6.0182,6.0351,6.0438,6.0361,6.0015,5.9287,5.9202,5.8842,5.7989,5.7169,5.6638,5.6587,5.6048,5.5796,5.5997,5.6013,5.6071,5.621,5.6207,5.6135,5.6012,5.5968,5.5712,5.5288,5.5439,5.5431,5.5358,5.5533,5.5549,3.5799,3.6384,3.743,3.6215,0.0,0.0,3.6705,3.7468,3.9125,4.1835,4.2819,4.4453,4.8505,4.9243,4.9671,5.0979,5.3217,5.5768,5.8582,5.8995,5.8995,5.8995,5.8875,5.8753,5.8561,5.8348,5.8117,5.7954,5.7918,5.79,5.79,5.8117,5.8348,5.849,5.8718,5.8892,5.8995,5.8995,5.8995,5.8995,5.9149,5.9217,5.9182,5.9333,5.9349,5.9367,5.9098,5.9047,5.9199,5.9415,5.9597,5.973,5.9841,6.0605,6.1648,6.1648,6.2028,6.2475,6.2145,6.2232,6.2519,6.2344,6.2829,6.3537,6.4134,6.4503,6.4549,6.377,6.2712,6.1618,6.0734,6.0054,5.9634,5.9634,5.9353,5.8999,5.87,5.8815,5.9083,5.932,5.9642,5.9953,6.0124,6.0627,6.0962,6.0897,6.0854,6.076,6.0493,6.0416,6.0057,5.9235,5.8324,5.755,5.7014,5.632,5.5985,5.6083,5.6149,5.6155,5.6214,5.6156,5.6079,5.6012,5.5638,5.5307,5.5064,5.5288,5.5314,5.515,5.5476,5.5605,3.7831,3.7738,3.8354,3.7677,0.0,0.0,0.0,3.7235,3.7857,4.0866,4.0978,4.1648,4.5387,4.5992,4.6528,4.8305,5.0711,5.293,5.4615,5.6797,5.8187,5.8187,5.7741,5.7345,5.7258,5.7065,5.6906,5.6799,5.6799,5.6799,5.6799,5.7439,5.7856,5.7943,5.8565,5.8909,5.8995,5.8995,5.8995,5.8995,5.8995,5.8995,5.8995,5.8995,5.8995,5.8995,5.8944,5.8961,5.9047,5.9613,6.0078,6.0468,6.0468,6.1054,6.1897,6.1828,6.2149,6.2629,6.2718,6.2818,6.2964,6.3371,6.3745,6.4044,6.4276,6.4242,6.3924,6.2758,6.2023,6.1307,6.0306,5.9602,5.909,5.8775,5.8554,5.8306,5.8009,5.852,5.9162,5.9543,6.0174,6.0664,6.0689,6.0984,6.1208,6.1149,6.1175,6.119,6.1095,6.0989,6.0736,6.0335,5.9113,5.8219,5.7881,5.6867,5.6256,5.6305,5.6333,5.635,5.635,5.6201,5.5985,5.571,5.5358,5.5161,5.5161,5.5333,5.5344,5.5256,5.5593,5.5745,0.0,0.0,0.0,0.0,0.0,3.8146,0.0,0.0,0.0,4.0644,4.0084,3.9859,0.0,0.0,4.3539,4.564,4.7889,4.9285,4.9114,5.2702,5.5501,5.5842,5.569,5.5519,5.5349,5.5008,5.5056,5.5665,5.5158,5.5108,5.5718,5.666,5.7175,5.7209,5.8256,5.8788,5.8788,5.8926,5.8995,5.8995,5.8995,5.8995,5.8995,5.8995,5.8995,5.8995,5.8995,5.9081,5.9233,5.9905,6.0544,6.1106,6.12,6.1576,6.2072,6.2156,6.2453,6.2818,6.3168,6.3248,6.3351,6.4066,6.4284,6.4161,6.3962,6.3526,6.2882,6.1883,6.1364,6.088,5.9845,5.915,5.8613,5.8117,5.7909,5.7797,5.7652,5.8476,5.9341,5.979,6.062,6.1247,6.1256,6.1276,6.1293,6.1359,6.1428,6.1448,6.1451,6.1292,6.1186,6.1203,5.9693,5.8671,5.8708,5.7331,5.6491,5.6488,5.6513,5.6507,5.6507,5.6191,5.5831,5.5414,5.519,5.5174,5.5377,5.5477,5.55,5.5466,5.5807,5.5942,0.0,0.0,0.0,0.0,4.1155,0.0,0.0,0.0,3.7032,3.5731,0.0,0.0,0.0,0.0,0.0,0.0,0.0,0.0,4.3349,4.6012,4.8606,5.0287,5.2554,5.3683,5.3054,5.2195,5.2824,5.5496,5.323,5.2975,5.5807,5.6218,5.644,5.6609,5.7532,5.8012,5.8012,5.8651,5.8995,5.8995,5.8995,5.8995,5.8995,5.8995,5.8995,5.8995,5.8995,5.9333,5.9921,6.0539,6.1178,6.1819,6.2167,6.2458,6.2768,6.3168,6.3365,6.3388,6.3319,6.3728,6.4339,6.4351,6.4284,6.4091,6.3413,6.2491,6.1578,6.1332,6.0315,5.9272,5.9111,5.8743,5.8437,5.8356,5.8465,5.8619,5.8783,5.942,6.0067,6.0413,6.1032,6.1442,6.1383,6.1524,6.1633,6.1638,6.1678,6.1679,6.168,6.1585,6.1572,6.1637,6.001,5.8975,5.9042,5.7461,5.6504,5.65,5.6498,5.6507,5.6507,5.6058,5.5731,5.5491,5.5326,5.5345,5.5587,5.5827,5.5826,5.5656,5.6029,5.6152,0.0,0.0,0.0,0.0,0.0,0.0,3.8046,0.0,3.6893,0.0,0.0,0.0,0.0,0.0,0.0,0.0,4.0405,0.0,0.0,0.0,4.4643,4.7617,0.0,4.9431,5.0414,5.0148,5.0795,5.2926,5.1522,5.1569,5.3904,5.5007,5.567,5.5871,5.6775,5.746,5.7909,5.8219,5.8582,5.8995,5.8995,5.8995,5.8995,5.8995,5.9249,5.9676,5.9676,6.0027,6.0691,6.1322,6.1709,6.1992,6.2757,6.2952,6.2818,6.3014,6.3287,6.3535,6.3707,6.4124,6.4519,6.4227,6.3392,6.252,6.2306,6.1587,6.0835,6.0713,6.0243,5.9671,5.9441,5.9187,5.8863,5.8461,5.8591,5.8815,5.8772,5.9459,6.0217,6.0627,6.1152,6.1564,6.1584,6.1636,6.1718,6.1719,6.1718,6.1718,6.1717,6.168,6.1484,6.101,5.9804,5.8867,5.8398,5.7217,5.6492,5.6509,5.65,5.6434,5.6272,5.6021,5.5793,5.5555,5.5495,5.5586,5.5784,5.5968,5.6072,5.6113,5.6276,5.6386,4.4295,0.0,0.0,0.0,0.0,0.0,0.0,0.0,0.0,0.0,0.0,0.0,0.0,0.0,0.0,0.0,0.0,3.9154,0.0,3.8654,0.0,0.0,0.0,4.55,4.7293,4.7124,4.7733,4.9848,4.8917,4.945,5.2217,5.3522,5.4471,5.5112,5.6016,5.6736,5.7237,5.7495,5.7978,5.8685,5.8685,5.8908,5.9266,5.9317,5.962,6.0129,6.0175,6.0514,6.1154,6.1615,6.201,6.2324,6.3109,6.3139,6.273,6.2813,6.3043,6.3371,6.3553,6.3831,6.4056,6.3448,6.246,6.1476,6.1346,6.0898,6.0401,6.0314,6.0262,6.0122,5.9776,5.9592,5.9386,5.8858,5.9,5.9241,5.9194,5.9797,6.0508,6.0952,6.1356,6.1631,6.1679,6.1719,6.1719,6.1719,6.1718,6.1717,6.1717,6.1716,6.136,6.0495,5.9635,5.8779,5.7887,5.6991,5.6507,5.6504,5.6486,5.6358,5.6142,5.6065,5.5932,5.575,5.5728,5.5796,5.6025,5.6145,5.6267,5.6411,5.6475,5.6507,0.0,0.0,0.0,4.1691,0.0,0.0,0.0,0.0,3.8748,0.0,0.0,0.0,0.0,0.0,0.0,0.0,0.0,0.0,0.0,0.0,0.0,0.0,0.0,0.0,4.349,4.2273,4.2997,4.665,4.4877,4.6016,5.1536,5.1875,5.2701,5.4463,5.5237,5.5651,5.5685,5.646,5.7219,5.7943,5.7943,5.8639,5.9969,6.0109,6.0068,5.9931,6.0052,6.0467,6.1105,6.1131,6.1923,6.3147,6.3183,6.2906,6.2555,6.2793,6.2921,6.2877,6.2487,6.2623,6.2793,6.196,6.1666,6.1545,6.0859,6.0486,6.03,6.0293,6.0118,5.9923,5.9908,5.9901,5.9893,5.984,5.9998,6.0243,6.0564,6.0852,6.1175,6.1504,6.1635,6.1718,6.1719,6.1719,6.1719,6.1719,6.1719,6.1719,6.1719,6.1719,6.1367,6.0506,5.9685,5.8824,5.7961,5.7031,5.651,5.649,5.637,5.6286,5.6217,5.6116,5.6092,5.6096,5.6038,5.6102,5.628,5.6349,5.6403,5.6403,5.6452,5.6507,4.8173,4.8758,4.8604,4.4295,0.0,0.0,0.0,0.0,0.0,0.0,0.0,0.0,0.0,0.0,0.0,0.0,0.0,0.0,0.0,0.0,0.0,0.0,0.0,0.0,0.0,4.1373,4.2658,4.4418,4.5229,4.7,5.0101,5.1707,5.2925,5.3754,5.4494,5.5099,5.5582,5.6271,5.6978,5.778,5.8204,5.8671,5.9126,5.9287,5.9562,5.9976,5.9992,6.0419,6.1024,6.1024,6.1255,6.1618,6.1849,6.1832,6.1782,6.2353,6.2567,6.2583,6.2726,6.2457,6.2053,6.1802,6.1407,6.0949,6.08,6.0716,6.0695,6.0739,6.0729,6.0656,6.0531,6.055,6.0602,6.0476,6.0612,6.0842,6.0946,6.1217,6.1457,6.1537,6.1576,6.1635,6.1675,6.1666,6.1663,6.1678,6.1718,6.1717,6.1715,6.1714,6.1169,5.9687,5.9297,5.8555,5.7147,5.6624,5.6373,5.6431,5.6325,5.6254,5.6334,5.628,5.6269,5.6297,5.6296,5.6293,5.6358,5.6484,5.6514,5.6466,5.6484,5.6517,4.9497,5.0174,5.0174,4.6592,4.599,4.5203,4.1001,0.0,4.1713,0.0,0.0,0.0,0.0,0.0,0.0,0.0,0.0,0.0,0.0,3.3499,0.0,0.0,0.0,0.0,0.0,3.9035,4.0311,4.2996,4.3749,4.5592,4.8998,5.0826,5.2286,5.3375,5.4115,5.4846,5.5532,5.5914,5.6625,5.7668,5.8089,5.8581,5.9092,5.9226,5.9498,5.9916,5.9951,6.0208,6.0622,6.0622,6.0726,6.0989,6.132,6.1359,6.1243,6.1836,6.1977,6.195,6.2126,6.1863,6.1415,6.1435,6.1095,6.0748,6.0854,6.0889,6.0948,6.0987,6.1041,6.1056,6.0951,6.1007,6.1052,6.0923,6.1061,6.1226,6.1269,6.1441,6.1566,6.1555,6.1562,6.1571,6.1613,6.1601,6.1606,6.1675,6.1716,6.1713,6.1709,6.1436,6.0695,5.9253,5.8824,5.8122,5.6717,5.6444,5.6345,5.6412,5.6321,5.6308,5.6445,5.6373,5.6407,5.6416,5.6441,5.6444,5.6435,5.6536,5.6507,5.6425,5.6441,5.6388]}]]